GFSSGP_con_3kmhel_003.txt.gz
Helicity
36 5 -45 -65 60 85 147 83 21 32 35 -65 -42 18 -24 -23 11 26 -19 6 -29 -28 -14 -3 14 10 31 53 76 90 104 102 74 59 50 38 36 34 66 117 125 115 28 31 73 42 98 166 200
-3 -73 -59 -23 77 244 208 88 76 -1 -55 -23 11 -4 21 6 -15 -9 21 -24 -7 -20 -1 -25 12 14 15 57 63 68 73 72 51 36 25 20 24 44 55 64 68 59 32 13 4 -5 52 72 99
-67 -69 -34 12 81 177 148 5 -16 -29 -23 1 13 21 11 -13 -6 12 8 -6 -9 -1 -10 -13 26 18 13 44 61 77 86 74 55 30 25 18 23 43 48 46 63 75 75 53 32 -3 10 47 97
-47 -30 8 56 98 17 21 7 7 32 45 54 44 70 -19 -34 -15 13 3 -5 21 5 -1 0 9 17 18 27 41 45 46 45 32 27 40 39 40 43 45 43 35 48 39 32 28 2 32 54 72
-24 4 108 68 31 -14 -48 21 71 122 112 65 33 31 8 5 35 49 23 20 17 -17 -20 4 25 17 15 29 30 36 43 47 57 58 40 45 57 63 57 41 22 38 36 33 18 34 38 44 39
36 25 76 72 42 -37 -3 -12 40 40 37 6 34 49 32 -19 50 4 1 4 2 0 12 4 12 15 1 4 21 35 56 80 94 93 78 64 63 59 52 42 33 18 12 10 9 13 31 45 26
102 67 71 41 27 13 36 16 56 43 27 7 29 28 -19 -20 24 22 4 23 18 14 21 21 13 -1 3 17 56 78 93 108 107 86 81 81 73 66 53 46 35 22 18 20 20 3 3 11 37
69 62 55 -6 17 2 -8 41 51 35 4 10 16 35 9 -58 45 59 64 65 42 30 35 28 14 24 36 37 63 89 83 94 84 67 73 72 60 57 55 45 28 23 17 14 22 36 49 64 59
23 71 48 28 29 21 14 33 -2 27 35 12 5 17 12 79 83 121 102 91 62 41 81 54 63 68 57 68 82 71 77 66 67 54 55 52 41 48 43 39 48 52 52 39 38 59 66 64 56
-3 22 -5 -6 -5 90 93 69 43 36 44 36 6 -2 29 111 98 132 148 156 113 87 77 92 96 75 79 68 88 42 55 68 78 79 91 74 60 48 59 68 73 64 60 57 47 43 62 53 40
7 9 2 3 18 38 84 83 76 58 41 44 60 87 114 111 101 139 177 195 186 159 145 114 82 75 50 44 75 55 60 68 84 87 96 88 83 74 84 95 94 88 85 68 64 63 62 74 63
29 52 66 49 33 16 25 12 16 28 38 58 94 141 124 110 69 27 127 139 211 212 148 144 132 112 80 105 99 78 85 86 94 86 94 117 116 108 105 107 97 92 88 83 83 85 70 64 63
32 42 36 33 49 27 1 29 35 23 41 44 71 138 167 121 62 34 69 98 197 191 190 168 154 117 115 124 123 104 94 108 131 137 111 114 125 119 118 105 104 101 116 118 111 98 91 81 68
39 37 36 39 47 44 42 47 16 -7 15 101 150 162 131 112 72 63 76 130 173 145 147 143 117 109 124 104 112 117 130 152 167 157 136 128 128 121 117 116 124 122 117 106 99 95 99 105 101
17 15 -1 28 60 30 38 20 60 49 70 101 154 147 128 87 107 141 157 206 175 150 153 146 126 130 114 96 95 110 119 144 162 159 142 135 152 139 132 132 131 116 109 97 98 91 89 99 100
-7 -6 37 39 16 -5 69 86 49 53 87 92 120 168 151 76 95 115 118 189 185 187 200 153 126 123 111 91 86 95 110 128 126 137 150 140 138 134 144 144 129 119 111 110 106 95 92 87 82
13 12 31 28 30 -18 64 112 87 11 52 69 84 151 128 46 53 31 89 179 218 220 226 166 122 126 106 81 74 84 94 109 120 146 156 137 141 149 151 138 122 117 120 124 118 105 101 95 97
-2 -13 -11 36 -5 -57 -54 49 66 28 51 42 27 87 48 21 53 19 34 125 190 216 169 133 89 114 114 77 72 77 87 108 138 138 159 150 178 178 175 159 142 153 148 133 133 116 115 100 85
-21 -18 -29 -18 9 -71 -40 7 25 -25 69 61 74 120 145 129 98 64 56 97 172 163 133 77 68 58 132 108 77 77 102 128 170 185 162 168 193 207 229 220 194 206 199 175 167 163 142 128 117
-13 -6 -13 -6 -5 -11 11 18 67 60 56 44 80 109 142 141 104 53 30 28 71 84 66 48 49 67 70 103 93 100 139 120 166 209 222 234 247 235 278 294 281 287 283 255 260 274 261 208 197
-25 9 -15 11 6 50 15 40 58 56 58 95 71 109 107 88 68 47 36 46 54 70 74 77 94 88 95 118 159 172 204 183 216 207 274 293 343 318 333 360 371 363 393 363 378 397 375 328 317
-19 25 33 -7 12 47 47 53 109 52 58 89 129 121 79 82 76 57 24 0 4 24 50 56 79 89 112 146 188 194 213 201 243 253 249 257 308 323 346 368 424 422 435 370 386 408 458 504 475
6 27 17 41 52 58 51 87 93 72 63 88 142 85 80 72 19 12 5 16 63 83 112 129 133 146 168 167 159 165 175 216 248 235 210 221 250 292 299 351 427 441 366 401 397 476 512 526 546
8 32 42 55 62 71 75 88 112 99 69 60 64 48 21 -19 14 96 148 169 230 261 301 319 315 286 241 167 111 111 144 171 180 153 165 195 205 204 247 393 521 528 493 647 499 556 657 619 454
29 40 42 73 74 41 66 87 127 45 53 54 36 49 78 104 101 116 183 250 278 306 288 252 234 195 151 140 105 115 114 119 137 146 165 157 196 246 338 523 745 753 889 847 819 769 727 678 624
3 9 30 58 82 57 64 128 95 91 15 -15 107 90 90 182 172 208 201 238 237 243 251 227 158 90 84 123 156 148 135 163 166 159 156 196 286 404 554 690 710 775 951 818 806 832 692 411 356
14 28 11 57 64 94 59 59 51 175 33 45 118 144 179 207 255 203 161 189 217 215 183 154 139 124 137 147 128 131 131 132 169 202 236 273 351 421 495 538 610 664 663 730 394 199 97 26 48
59 29 47 57 95 59 81 51 103 113 33 17 57 140 171 122 166 144 144 148 172 150 110 110 154 140 126 122 108 103 124 165 214 288 294 340 372 364 320 308 274 341 260 -17 -29 -8 36 47 65
61 80 87 65 90 104 134 164 147 66 58 91 112 83 60 107 90 98 107 160 140 111 98 79 127 94 109 110 98 79 117 179 287 340 381 351 316 278 224 196 174 31 -18 13 32 44 63 89 97
75 89 49 89 122 182 225 254 91 120 15 62 123 134 107 107 135 124 86 91 116 63 61 74 90 84 87 68 50 57 99 190 329 377 331 299 258 205 135 125 119 83 66 85 91 84 100 112 99

GFSSGP_con_3kmhel_006.txt.gz
Helicity
16 -23 -55 -22 95 145 228 133 -15 5 9 -42 -22 19 30 28 34 23 -3 3 2 -31 -47 -53 -33 -24 35 29 43 56 59 54 57 51 48 47 57 93 102 120 115 95 65 38 18 19 31 38 50
-29 -81 -49 -13 142 285 215 47 -2 -37 -23 3 30 26 52 30 -12 -2 36 -15 -26 -34 -33 -37 -26 -17 17 18 37 40 53 45 49 55 65 62 76 93 80 63 63 58 46 24 5 -4 31 54 81
-58 -53 -45 27 122 174 113 -15 -8 -24 -12 8 20 15 3 -8 -7 -5 -1 -14 -25 -27 -31 -21 -16 1 8 26 19 38 36 33 32 34 35 45 70 77 60 52 56 62 60 56 56 71 69 68 58
-54 -50 -4 133 173 35 -7 -42 -18 -11 2 15 19 79 -18 -34 -20 -21 -35 -13 -15 -29 -29 -31 -9 -1 -5 -3 16 21 32 42 50 49 44 52 60 54 48 56 70 72 70 75 82 86 90 91 81
-33 1 130 107 97 -10 -49 -56 -11 -8 11 6 1 -6 -12 3 -9 29 -16 -23 3 -24 -50 -44 -19 -17 -16 3 18 42 64 79 65 50 46 55 64 54 36 35 33 37 44 51 72 79 90 93 71
8 -7 91 94 14 -28 -23 -18 23 45 22 9 24 28 22 -19 35 -35 -23 -27 -21 -23 -51 -39 -18 -10 13 26 41 54 67 72 52 36 27 24 28 26 27 29 35 47 61 61 58 50 63 51 51
27 33 52 27 3 -9 -24 -14 25 16 9 30 40 33 1 -9 -31 -33 -27 -6 -15 -3 16 -0 -3 10 21 28 35 58 67 65 55 42 30 41 48 33 11 -5 -8 24 43 49 42 35 16 25 47
29 45 50 24 30 18 -6 2 -11 -2 2 39 13 30 15 -22 21 15 2 -7 7 30 16 9 18 26 41 33 37 69 50 44 43 39 52 60 57 47 34 27 23 33 39 36 33 35 36 38 45
36 55 49 14 8 -1 17 11 15 -8 -0 -1 15 19 -7 49 93 100 69 19 21 21 17 29 41 62 63 59 51 39 32 35 42 47 59 69 58 47 38 34 42 56 59 59 58 53 52 51 47
35 31 -0 6 38 29 82 97 73 58 23 -1 -8 1 39 139 147 164 112 75 41 36 18 47 82 82 78 57 71 48 25 38 52 62 66 62 56 54 47 46 52 55 55 65 82 77 68 65 48
5 24 41 32 28 38 58 69 59 71 39 33 47 72 115 99 113 137 91 86 72 68 77 86 102 88 78 59 60 62 60 63 60 64 76 70 61 58 66 65 65 69 71 75 78 74 65 58 54
35 36 21 26 18 4 24 17 32 69 47 41 47 97 109 103 122 109 70 81 84 108 96 98 85 77 57 44 60 68 83 87 82 80 86 84 87 83 79 82 80 83 83 79 84 81 71 61 58
32 30 34 34 36 31 15 30 31 46 27 9 69 84 102 100 75 70 53 58 76 104 113 88 94 79 66 71 83 98 93 100 106 110 113 117 105 100 103 94 93 87 84 84 83 87 83 65 47
26 15 16 13 10 12 15 13 -9 17 8 23 85 112 84 88 54 44 54 64 105 111 99 97 104 94 95 86 88 74 80 89 113 123 117 116 122 125 125 114 108 107 102 92 82 71 70 75 65
12 3 9 -22 -1 -16 -5 -14 10 49 30 41 57 86 83 61 26 44 44 95 151 139 116 127 119 91 95 87 83 73 71 87 93 92 93 104 118 124 127 124 120 115 119 110 99 85 78 73 76
17 12 11 39 7 7 -23 -35 40 28 46 49 42 61 75 31 1 -9 -10 57 103 158 147 127 102 79 73 70 53 48 57 70 79 84 106 112 120 128 137 142 128 126 138 138 132 115 105 97 89
33 6 19 32 10 6 -11 45 39 7 4 38 -14 28 51 21 23 13 3 57 123 142 156 136 73 43 56 60 62 69 65 78 83 99 135 149 150 148 165 171 150 147 153 156 157 144 152 141 113
-6 -6 4 7 -13 -10 -37 8 34 -31 -22 -56 -29 30 78 51 44 50 44 74 110 126 137 126 61 37 48 82 107 108 87 79 86 84 129 151 197 205 230 213 193 203 192 174 177 160 160 153 136
-23 -26 -21 -4 4 -48 -24 12 49 53 62 35 28 59 95 94 69 56 36 34 73 81 96 79 64 62 66 100 116 102 101 111 119 116 135 180 210 238 272 289 269 274 268 214 227 208 170 154 159
-4 7 1 1 7 -25 14 48 90 117 113 80 43 59 85 95 76 83 74 1 -17 29 42 40 41 73 111 160 186 155 138 127 126 137 131 181 218 242 293 322 347 360 350 298 268 311 280 239 246
-20 -15 -26 -27 -1 29 14 72 93 82 116 98 79 62 78 92 83 23 5 -10 2 -0 33 46 54 93 138 156 158 158 147 150 147 138 166 192 197 185 239 275 329 377 430 400 363 379 397 338 347
-22 6 -17 -5 32 37 55 77 110 98 87 96 72 53 62 37 16 19 23 -2 8 40 49 55 94 145 180 188 175 157 143 139 161 185 183 162 135 148 182 228 276 307 365 411 442 434 475 494 487
-37 -10 7 28 54 63 75 98 117 124 111 92 52 41 34 13 31 41 32 78 101 127 161 185 213 238 209 166 145 138 141 165 187 156 138 145 143 137 136 164 195 268 354 396 436 451 432 477 507
-0 29 54 60 69 90 74 102 96 140 129 53 44 82 32 38 62 120 131 172 178 197 234 243 239 227 194 133 100 76 80 98 86 103 126 134 127 117 129 135 188 287 362 421 575 757 783 790 832
40 49 61 82 104 67 57 100 117 167 91 60 59 62 63 113 132 120 188 207 219 238 248 216 182 153 87 51 71 100 103 101 108 127 131 118 126 172 202 255 356 462 564 697 787 834 811 846 764
15 18 43 66 75 57 70 94 131 201 114 131 121 143 138 165 151 186 183 163 200 215 177 125 95 65 45 106 126 126 117 105 94 93 119 162 223 259 291 345 378 409 472 511 565 640 723 700 694
-0 25 11 45 62 84 54 68 93 260 252 161 142 155 132 191 163 171 151 176 164 125 110 110 109 125 119 120 106 82 74 55 66 108 162 231 297 319 338 323 286 249 224 270 292 304 177 253 94
48 27 36 42 51 49 85 49 81 229 143 53 28 86 139 131 151 159 134 116 134 142 134 125 136 162 145 102 93 77 64 86 115 154 156 251 308 289 259 230 201 125 70 85 42 34 43 -87 -38
56 68 74 60 83 99 123 124 133 98 -19 -28 57 81 123 152 111 102 84 78 93 120 142 142 147 134 133 101 72 72 67 67 85 125 169 223 264 271 249 204 178 144 80 84 62 47 46 49 62
61 90 84 82 91 153 197 240 153 109 9 49 87 110 126 111 90 84 77 91 118 137 202 189 166 121 79 56 52 50 55 52 95 178 250 276 333 280 275 274 153 142 140 115 88 74 73 68 69

GFSSGP_con_3kmhel_009.txt.gz
Helicity
5 -19 -40 -29 90 109 166 101 -13 -4 -17 -36 -25 -17 9 -6 -12 23 3 -11 -11 -14 -38 -40 -27 -9 2 24 30 25 40 55 66 58 84 100 134 145 132 124 103 69 43 31 20 27 39 52 88
-28 -53 -26 21 139 256 218 8 -10 -23 -9 -0 11 2 -0 15 -13 -17 -6 -36 -31 -35 -43 -43 -46 -35 -23 8 23 24 23 33 44 53 69 83 97 96 90 83 75 55 46 43 45 66 73 100 123
-48 -43 5 71 131 174 121 -23 -19 -11 -8 -6 15 -2 13 17 -9 -13 -57 -31 -44 -53 -56 -55 -47 -32 -20 1 1 10 24 36 40 45 52 61 65 63 65 77 80 80 84 96 104 112 107 119 121
-51 -58 1 124 167 22 -9 -46 -43 -14 6 9 24 55 -16 -43 -13 -42 -20 -35 -33 -43 -56 -49 -33 -23 -11 6 29 41 52 57 62 45 47 43 40 61 66 66 68 72 86 84 90 95 106 108 104
-30 -1 115 147 90 -3 -50 -63 -44 -10 2 7 4 3 3 -34 -35 9 -2 -20 -27 -37 -37 -21 -14 -13 3 20 32 46 58 66 62 61 53 41 37 38 41 56 70 75 77 91 94 102 110 102 98
11 -4 104 86 30 -28 -32 -41 -29 -17 3 -9 5 -1 -5 -37 10 1 -2 -13 -29 -20 -27 -19 -18 -9 5 21 37 50 68 63 56 34 14 19 36 39 34 33 28 30 35 36 38 49 63 77 98
18 33 45 9 11 2 -22 -42 1 6 -0 -6 24 16 7 -15 -6 -1 -12 -19 -22 -11 -9 -7 -3 2 19 26 31 44 35 41 39 24 15 27 32 26 24 17 13 22 31 31 30 34 37 48 53
36 32 10 3 14 27 -21 -11 -7 5 20 14 -3 8 12 3 10 -8 -30 -28 -14 -6 -5 4 8 18 28 33 37 32 19 22 30 29 29 27 25 23 18 12 20 33 38 38 33 39 45 49 55
39 44 39 31 12 13 -14 3 -7 1 10 1 1 -0 1 87 73 51 6 -14 -16 -13 -2 6 25 45 48 46 34 20 12 24 32 41 46 40 30 28 26 32 34 41 45 52 53 51 57 59 60
21 49 38 -8 -24 -16 34 48 57 49 33 29 29 3 19 125 118 87 42 23 22 19 9 14 36 56 58 49 44 27 11 16 26 33 39 38 35 31 25 31 38 48 50 56 58 62 57 52 58
55 30 -24 45 34 31 39 48 62 45 28 27 34 40 76 112 99 73 27 20 43 27 28 40 45 52 53 39 33 29 28 34 40 45 51 59 57 49 45 45 45 49 56 50 48 46 45 49 56
35 35 20 18 17 12 16 27 25 54 29 14 17 73 107 111 100 64 21 14 38 45 41 37 33 39 37 35 48 48 42 41 48 57 65 68 69 73 74 72 68 68 66 63 66 64 54 45 42
25 28 24 18 14 16 13 24 18 43 25 -16 14 75 103 82 66 44 16 1 12 22 31 32 40 51 56 40 38 43 43 47 49 60 72 81 80 84 93 97 97 93 86 85 83 76 75 68 55
10 -0 4 -4 -8 6 11 3 6 8 8 3 35 69 76 63 72 27 11 5 22 33 38 47 46 46 57 45 39 36 32 33 41 56 67 70 73 81 83 82 84 88 97 98 97 98 93 82 73
25 3 -3 12 14 -0 -11 -12 5 16 -0 10 14 36 47 19 26 46 24 13 13 34 52 86 78 58 48 35 43 37 40 35 31 37 43 50 72 79 83 81 75 74 84 89 102 99 98 90 85
19 15 7 35 45 29 5 11 9 -17 9 -4 -11 2 19 4 -17 -20 -5 -7 10 51 86 94 84 77 48 31 41 44 51 44 35 37 35 42 53 79 88 100 96 87 97 100 102 102 101 94 97
48 9 22 20 16 14 15 9 5 -0 27 -17 -58 -39 3 3 -13 -8 -11 9 42 65 115 109 95 67 53 31 43 61 65 61 55 43 43 44 63 98 128 139 136 131 128 138 137 129 132 119 117
2 -0 -0 7 20 17 5 41 31 21 8 -18 -9 3 31 45 27 15 18 51 76 70 89 96 96 81 68 45 64 77 69 72 66 73 76 82 98 108 149 164 170 177 186 189 202 183 174 157 137
1 -4 -19 -19 19 14 18 26 78 89 107 94 54 37 63 95 72 58 55 44 30 47 74 62 71 82 77 98 109 118 112 91 73 78 85 94 109 124 145 164 141 158 201 217 229 220 215 217 197
-1 -1 6 5 19 8 35 61 88 142 139 106 57 64 75 102 82 68 43 17 -6 24 48 77 93 96 104 110 129 150 142 131 122 118 104 109 117 114 124 129 135 137 158 173 231 270 286 256 273
-6 16 6 -8 24 33 44 88 100 100 122 71 52 46 42 66 63 43 46 47 75 98 80 78 88 118 148 166 163 154 156 157 137 122 99 107 92 95 96 93 100 108 142 185 218 243 285 324 294
10 8 -21 -18 20 47 62 87 117 100 113 86 66 47 71 79 74 75 68 98 87 95 124 142 172 201 208 184 161 153 126 118 114 119 122 90 92 104 111 100 97 105 130 151 171 196 227 252 309
-5 -0 8 25 43 59 82 80 122 117 95 61 66 88 105 104 89 94 111 123 166 200 202 195 193 208 176 129 121 113 121 79 64 65 49 44 64 77 75 91 115 134 140 149 177 211 244 234 254
15 46 43 47 60 83 65 83 94 120 120 112 82 123 127 92 97 130 151 181 215 207 192 188 195 163 137 117 93 60 58 67 106 87 45 42 42 56 88 111 163 193 218 255 301 317 396 451 513
38 49 61 80 99 83 65 68 137 159 155 143 146 157 121 94 118 156 199 201 171 173 155 134 118 108 67 21 26 59 133 158 138 96 37 41 71 88 136 184 252 301 343 372 350 364 440 514 534
30 30 54 66 78 66 59 111 130 160 185 179 171 158 124 112 90 140 99 77 99 113 92 51 19 60 142 182 211 187 145 103 72 32 51 89 99 128 187 225 253 246 252 268 279 266 307 365 380
23 45 25 53 53 53 65 86 56 151 212 158 148 147 131 115 150 112 98 94 102 108 102 111 162 163 163 182 169 156 121 81 41 35 52 77 79 153 223 279 269 225 221 213 174 155 84 37 -96
49 38 41 46 45 33 53 65 92 139 177 114 70 82 96 102 146 147 124 100 99 128 151 159 177 189 163 149 144 130 91 37 15 10 39 87 170 244 274 277 254 244 220 196 106 92 61 -15 -43
57 67 78 52 49 43 64 70 132 132 86 62 41 57 60 95 108 74 47 46 60 110 151 137 150 156 180 181 169 127 72 14 41 74 112 152 214 232 277 295 289 247 169 82 49 41 40 22 23
66 81 82 75 64 127 188 211 92 119 86 44 18 56 80 78 48 13 14 65 70 81 98 109 152 182 184 182 124 60 44 74 76 115 181 219 243 284 270 248 207 93 3 18 74 69 59 49 42

GFSSGP_con_3kmhel_012.txt.gz
Helicity
4 -22 -39 -1 29 43 124 147 59 46 26 -26 -34 -30 10 -9 -11 61 20 15 -1 -21 -28 -18 -25 -10 7 11 13 25 35 34 30 53 80 90 103 105 103 98 80 49 46 49 58 51 88 110 102
-12 -24 -22 13 14 76 151 57 55 34 25 15 -0 -5 10 45 26 55 30 -4 -34 -39 -46 -36 -20 1 2 2 5 22 33 49 63 79 93 83 81 88 97 96 80 61 50 51 55 68 84 88 99
-29 -39 4 36 21 105 147 40 53 38 -5 -25 16 26 19 50 35 27 -9 -25 -33 -30 -25 -10 -3 -2 10 12 21 42 48 52 55 60 76 87 86 87 78 75 74 78 81 82 84 95 98 93 96
-21 -8 -3 -23 143 107 77 48 24 7 7 -0 23 55 35 2 2 -28 -20 -21 -9 -7 -7 -9 -18 -6 11 28 40 45 47 53 68 63 50 40 45 65 78 74 68 59 59 61 71 87 90 91 93
-32 -40 7 70 121 75 40 17 3 27 25 25 3 23 27 -13 -37 -8 -6 -7 1 -2 -3 6 -10 12 24 33 37 49 65 63 54 39 28 26 27 33 48 51 54 57 52 55 67 72 77 83 87
-19 -57 6 70 104 45 23 -6 -10 -1 12 21 10 15 11 -6 13 5 2 13 4 3 -3 9 3 -3 5 13 24 31 41 39 40 35 31 34 47 51 56 55 51 41 41 42 52 60 65 66 67
-30 -10 48 67 54 47 38 -8 1 11 12 10 14 3 5 15 -2 -8 -3 1 -2 -6 6 15 10 10 -2 7 25 32 13 13 19 22 22 35 41 38 39 33 29 24 29 35 43 47 46 49 48
2 21 38 50 26 58 18 -0 4 -5 20 19 26 -10 11 15 18 8 -2 -2 -2 -3 12 5 1 12 17 40 40 18 5 9 21 26 35 39 32 35 37 20 49 40 40 39 42 48 48 46 49
-1 10 40 55 36 50 11 8 7 11 18 9 14 19 3 52 27 10 -12 -18 -13 -5 5 3 12 19 29 25 35 32 21 17 18 27 33 22 37 44 37 72 45 45 46 45 44 46 44 29 33
4 15 70 56 43 31 -2 10 5 43 35 30 24 5 14 61 45 27 24 25 10 17 5 15 9 22 20 22 18 20 18 17 22 21 25 24 43 50 46 59 66 62 62 50 48 47 31 9 50
63 67 60 6 -9 20 29 37 34 28 24 3 9 10 39 41 33 24 15 14 18 15 8 2 9 9 8 15 13 18 18 20 25 24 26 38 34 43 43 53 53 53 55 45 47 49 46 63 55
77 31 17 9 22 29 25 16 32 28 -16 6 -0 17 38 35 24 11 12 17 16 7 -5 3 4 19 30 18 23 10 12 14 13 16 23 34 37 44 46 51 51 44 50 49 44 51 60 54 49
-6 3 14 8 9 21 30 18 15 17 3 -12 6 19 29 20 15 6 4 5 5 -1 -1 6 22 28 31 25 16 9 8 19 13 14 23 24 20 30 35 46 51 58 57 50 46 45 46 49 46
8 -1 -2 3 -0 9 25 1 30 22 11 6 14 27 25 12 16 18 6 -9 -19 -8 4 23 43 52 46 26 21 10 19 27 26 26 24 19 14 23 19 30 34 38 47 50 54 54 55 59 62
-6 -14 -15 -1 4 7 24 4 -21 42 26 17 2 11 18 15 17 10 2 -11 -19 -14 3 37 52 61 50 42 30 22 33 32 34 27 25 17 3 6 14 27 34 40 56 55 51 55 57 56 65
-0 7 9 23 12 26 40 56 54 15 32 15 19 1 18 20 11 8 -11 -18 -15 -8 24 48 73 76 57 53 44 39 49 47 48 46 38 37 34 35 35 42 52 51 66 66 66 61 65 65 59
-0 -2 10 17 33 30 24 35 61 5 3 -4 -11 -20 -0 5 37 28 12 -0 -0 14 42 69 77 75 67 83 61 64 72 64 70 70 64 69 61 67 74 81 81 89 97 99 103 97 102 95 93
12 1 -4 14 29 30 26 43 43 23 27 11 -6 -4 -1 28 62 48 28 22 37 45 47 71 79 121 106 93 75 75 87 89 85 94 104 99 97 92 95 98 94 105 105 95 92 103 118 141 124
8 1 12 24 35 46 37 45 74 64 98 85 55 40 60 104 103 102 98 105 109 75 75 122 149 136 121 109 110 116 131 119 118 132 141 114 125 96 98 108 103 102 112 105 97 103 112 122 147
9 2 20 21 31 31 53 55 97 115 143 132 93 80 75 108 144 169 159 142 123 109 123 128 147 139 127 125 122 122 135 145 144 146 140 136 127 117 128 114 99 90 95 92 95 94 121 148 159
20 25 32 18 15 29 37 59 86 105 122 111 104 100 126 156 165 146 125 111 103 119 130 151 169 151 151 138 134 147 141 134 160 158 137 139 116 128 108 91 95 87 79 96 101 117 120 149 176
22 35 14 6 17 55 47 97 96 101 119 109 119 144 157 149 124 113 95 99 136 160 169 163 163 153 149 158 129 130 143 144 150 139 110 115 102 100 62 60 73 79 93 98 109 125 149 166 182
58 29 27 29 24 41 68 50 121 84 124 125 140 168 149 130 121 107 103 130 155 170 166 157 138 150 129 102 112 108 101 99 112 137 142 104 99 76 53 52 52 62 96 123 136 156 156 174 202
29 22 27 35 47 62 83 76 120 112 132 152 167 183 159 138 102 95 101 112 140 136 128 114 108 102 80 89 57 31 3 84 137 146 124 130 103 57 58 59 53 100 148 206 242 261 324 331 397
34 19 37 50 59 103 65 51 200 131 135 158 183 180 143 122 115 111 111 140 173 165 148 136 137 90 97 35 36 134 163 157 162 160 149 121 99 88 36 108 159 191 220 228 227 248 260 289 300
41 49 67 70 72 68 41 71 127 97 127 165 172 146 122 119 89 115 151 151 152 125 110 96 63 94 134 153 149 158 186 187 174 159 120 88 57 11 64 58 123 171 179 179 200 304 281 196 180
29 49 34 47 43 28 62 71 68 103 144 176 145 98 93 71 94 118 129 128 85 61 71 117 157 157 157 183 211 189 180 158 121 80 38 -11 -1 45 85 150 195 246 261 252 252 207 165 156 159
51 41 33 51 58 39 51 33 38 97 113 140 120 71 71 66 74 128 134 103 66 85 105 128 143 148 143 159 190 168 148 122 72 4 17 62 94 98 113 203 209 220 288 193 109 69 39 36 35
51 56 68 69 67 49 22 20 190 115 96 102 78 78 36 70 109 137 120 86 53 66 106 129 122 136 173 166 131 101 81 73 79 94 104 116 119 134 150 159 173 196 127 30 -45 -54 36 98 103
77 100 93 83 81 110 141 96 97 57 54 77 79 134 90 100 123 141 127 102 85 108 97 129 168 157 138 102 91 114 98 92 109 120 122 121 111 102 133 176 185 103 43 20 107 103 81 78 75

GFSSGP_con_3kmhel_015.txt.gz
Helicity
17 -27 -36 -43 -6 -63 128 55 61 62 68 54 18 11 101 99 90 121 100 29 25 31 17 15 16 15 32 42 36 38 51 65 74 76 77 83 95 101 89 78 73 78 75 77 78 77 73 64 65
0 -39 -42 -36 -36 -9 81 30 21 87 73 25 14 -5 35 89 64 72 48 40 33 19 21 12 36 50 30 27 30 32 39 55 67 84 87 86 80 74 84 81 73 62 56 49 42 45 51 55 59
-26 -38 -47 -34 -75 47 88 -2 104 46 18 -5 39 45 23 64 59 114 64 38 25 18 29 31 33 29 28 29 38 40 49 68 77 71 65 54 56 66 67 69 76 78 70 62 63 64 63 58 60
-2 -29 -35 -82 93 88 38 61 47 27 24 -11 22 74 57 67 44 54 39 27 24 19 35 27 29 44 53 53 51 58 56 58 45 29 25 30 31 36 55 65 73 76 76 76 73 72 74 71 69
-60 -81 -52 31 86 36 37 36 -2 5 22 14 -29 51 54 51 59 37 28 20 23 35 36 39 42 33 27 34 44 47 41 38 38 44 43 44 47 55 65 70 72 71 68 67 67 67 72 70 63
-54 -72 14 44 44 32 25 15 -10 12 18 34 -9 34 59 17 34 31 22 33 31 35 43 27 27 28 28 30 39 46 50 31 21 25 33 40 49 61 64 71 67 63 59 55 52 52 48 47 45
-5 -65 35 74 30 29 54 -3 -9 7 17 4 16 35 31 7 0 -9 -6 17 23 29 28 40 47 41 34 29 36 41 26 28 28 32 36 41 50 53 57 61 62 57 53 48 44 41 39 36 34
2 18 47 28 1 71 53 -4 17 -20 60 51 48 30 8 20 13 6 0 16 26 20 41 61 33 38 29 54 42 32 30 29 32 33 36 28 33 31 30 49 66 55 48 45 42 38 35 31 27
-52 -22 25 5 7 51 19 22 14 48 32 29 25 61 65 45 18 10 9 15 26 23 57 24 33 20 9 11 35 37 32 32 29 32 26 21 24 45 60 106 82 64 62 56 43 33 25 14 9
-57 -19 79 49 37 28 8 6 16 11 10 -10 -6 20 55 20 14 22 28 31 29 34 30 44 22 18 5 5 10 29 32 24 29 36 33 24 55 49 40 56 57 36 35 35 21 24 14 -6 38
-22 62 66 43 30 6 -7 11 14 14 26 -14 -20 -28 48 41 37 31 21 30 33 36 20 30 18 1 -14 11 -6 3 15 24 22 12 16 23 28 43 37 49 54 58 51 26 51 48 35 100 65
25 45 7 9 21 37 9 -7 10 29 36 12 -10 37 65 38 36 26 11 22 18 34 28 23 26 15 4 -16 -7 2 5 23 19 53 29 35 36 51 46 40 44 44 65 65 44 49 59 38 37
20 11 20 -1 11 36 30 8 24 5 7 -1 -1 44 42 39 35 23 6 -1 24 22 25 20 49 29 30 16 -1 7 6 27 52 43 60 42 38 46 35 35 21 27 32 38 44 45 46 51 42
15 -2 -8 -3 -2 3 39 -13 17 12 -6 24 26 12 31 27 20 22 2 7 10 26 37 44 26 48 45 25 36 28 39 53 47 68 97 67 51 52 26 27 24 16 22 34 48 51 51 46 48
-1 -11 -18 -3 -7 -2 22 3 24 54 15 19 24 10 14 21 17 24 16 5 7 9 11 31 40 78 71 58 57 51 74 64 53 56 67 56 42 41 38 35 34 28 41 43 44 51 55 51 48
18 15 11 4 21 8 47 43 83 27 23 19 24 16 13 26 19 32 29 9 5 -4 -1 32 75 96 86 92 86 85 91 66 42 53 63 68 57 58 59 57 56 57 73 58 68 70 73 76 80
20 33 11 43 15 23 2 41 84 35 21 -3 20 38 26 10 36 38 52 18 2 2 26 47 100 69 105 134 95 102 90 50 49 94 75 138 108 125 115 99 81 92 85 86 86 74 77 81 83
43 8 25 22 61 12 6 2 74 51 20 30 12 13 25 21 42 72 75 103 64 78 65 84 96 122 199 155 101 86 75 75 90 97 127 174 124 174 134 124 111 105 91 93 99 100 81 87 91
80 31 28 57 63 38 42 33 90 53 49 70 47 53 51 32 143 229 156 117 108 99 110 112 183 172 117 133 127 121 108 127 111 155 199 171 207 173 143 133 144 138 131 120 117 97 84 93 87
22 19 32 35 32 34 37 32 88 88 120 114 108 99 112 161 186 172 204 198 164 139 114 127 129 141 166 156 135 113 128 121 142 104 232 122 190 134 139 172 152 164 148 120 99 86 100 108 107
38 61 60 42 20 -6 13 49 85 99 107 139 161 145 126 155 139 164 172 145 117 128 139 157 177 195 191 162 152 150 115 128 141 180 143 145 148 116 129 111 126 132 120 124 106 114 112 125 120
44 62 29 13 9 9 34 42 143 130 132 123 140 147 144 144 154 141 126 110 116 136 157 177 187 167 139 131 126 90 74 100 126 78 143 163 99 108 125 122 130 142 133 95 93 89 154 199 178
86 37 22 17 17 29 37 16 182 84 106 116 152 157 154 165 162 142 114 105 104 110 151 159 132 131 126 97 83 64 107 176 124 130 173 146 151 186 135 143 155 121 68 72 50 97 152 165 187
17 6 13 10 31 56 92 32 73 90 188 133 155 151 159 168 124 102 86 75 115 158 171 136 115 106 80 86 103 123 88 88 104 130 146 176 181 148 138 134 118 45 12 41 120 263 233 191 211
10 9 32 40 47 67 77 37 148 171 155 180 131 134 163 156 118 87 75 110 158 144 124 110 94 79 101 97 83 107 119 135 141 158 182 164 136 124 111 117 60 59 132 164 291 316 272 242 154
18 21 60 62 79 65 61 40 152 116 111 115 137 166 145 147 106 103 99 118 135 142 123 105 64 55 96 150 183 176 181 186 191 193 139 103 89 69 86 56 197 196 239 318 292 213 152 69 81
35 43 30 36 51 44 46 106 86 112 84 104 120 110 138 125 114 110 113 113 127 132 141 122 90 90 124 178 164 167 135 141 152 129 78 86 71 64 157 178 162 265 348 272 226 181 112 25 8
28 36 23 46 54 56 66 31 94 91 89 134 51 98 110 90 91 114 99 125 143 154 135 137 107 127 170 142 121 129 134 156 115 105 123 138 127 126 101 108 208 253 199 145 99 66 3 14 63
44 45 43 50 85 87 81 68 111 142 187 160 147 94 94 84 76 58 108 134 121 138 168 146 160 141 115 133 173 160 152 147 131 128 160 177 137 127 130 140 115 128 116 83 54 31 48 110 134
47 83 74 81 95 119 104 77 141 123 96 68 35 37 100 68 41 94 135 166 165 203 243 160 151 121 145 151 128 106 120 127 130 230 140 193 133 71 81 130 123 91 68 71 82 93 105 101 125

GFSSGP_con_3kmhel_018.txt.gz
Helicity
18 81 101 111 12 -30 -59 79 87 92 58 49 128 72 89 112 130 190 133 69 143 17 31 62 44 33 49 62 68 61 58 58 59 65 64 67 71 73 73 74 74 80 86 82 72 70 66 61 54
39 134 34 34 -23 -98 47 105 98 163 132 82 38 44 99 115 19 54 118 42 41 121 41 56 56 64 82 66 61 63 64 58 58 58 60 56 65 69 68 67 65 68 73 69 61 60 55 59 64
47 123 -5 -55 -51 30 169 51 150 37 -2 29 35 104 129 89 115 151 66 81 112 46 63 66 67 76 68 67 68 66 71 70 72 70 69 62 57 52 56 65 74 80 78 70 57 49 39 44 55
-5 16 12 -35 -40 68 80 102 65 69 35 -17 79 69 142 76 145 117 41 43 89 70 49 51 53 57 71 81 84 90 84 80 86 86 73 61 59 60 64 69 75 78 76 64 54 50 48 53 55
48 -89 -52 -40 83 64 62 58 26 29 12 24 7 185 157 134 112 47 65 71 86 57 39 48 61 72 82 81 80 78 76 70 57 47 43 44 46 47 63 63 67 66 63 57 50 44 37 31 29
-112 -45 -31 -8 116 83 58 22 -7 47 31 66 57 101 119 77 73 64 48 70 68 74 46 45 63 71 71 65 53 52 52 31 28 31 32 36 39 44 50 57 62 62 63 61 53 46 43 36 29
-60 -41 17 121 91 71 45 1 -15 23 47 14 38 104 60 65 55 26 57 69 57 43 62 43 44 43 41 32 43 48 32 30 34 35 27 29 30 33 43 57 61 60 58 51 45 40 32 26 22
150 41 67 56 19 95 78 -27 53 4 97 81 31 52 73 126 41 70 70 42 32 49 51 39 38 -3 26 14 33 33 31 27 25 19 22 22 12 3 21 41 40 45 39 34 30 18 11 11 10
104 9 41 32 8 100 56 27 17 80 57 74 77 10 183 101 62 45 32 7 53 51 51 38 55 54 45 41 10 20 20 21 21 14 10 29 2 42 17 62 58 40 17 26 22 -4 -3 13 12
-22 19 114 80 59 52 -1 26 71 3 49 53 64 104 139 61 38 31 23 30 46 46 22 67 46 43 2 26 45 27 10 4 8 25 27 38 46 38 19 80 68 42 26 18 18 21 9 26 53
-31 67 70 120 70 24 30 52 -25 -14 -17 -14 -28 86 97 57 38 40 19 44 40 46 21 108 93 19 -5 11 -9 15 26 44 40 80 59 45 32 63 53 62 51 61 62 38 50 66 63 53 62
25 34 27 125 91 26 2 35 12 15 56 16 91 76 83 56 44 24 16 54 58 84 112 159 65 28 6 -3 10 27 33 50 44 58 89 56 42 62 50 55 41 25 28 38 41 52 55 55 78
49 23 71 34 29 74 62 6 29 41 63 70 59 56 103 54 46 17 2 37 31 47 98 101 152 46 32 21 32 39 40 71 68 78 109 75 52 76 65 55 38 39 39 43 56 69 56 57 75
21 -2 -7 -20 -5 -2 7 -7 -14 11 79 11 19 56 56 52 51 45 -10 5 55 61 121 135 141 87 69 50 85 63 72 77 52 113 104 84 78 71 47 59 44 38 43 55 72 71 95 100 97
9 -9 -10 -11 -10 -11 11 -12 3 80 29 61 66 0 52 44 24 66 29 6 6 27 51 230 121 146 152 98 96 74 153 92 89 109 99 93 76 79 75 67 64 73 89 88 90 79 106 108 102
15 15 -12 -43 -59 -8 25 -2 50 82 72 30 70 38 3 56 36 63 52 10 24 -9 71 30 118 185 173 85 156 104 156 124 71 64 118 117 117 101 108 108 108 119 125 118 107 109 96 113 108
-13 21 -8 -20 58 30 41 38 79 64 48 9 -9 50 38 16 69 76 59 27 33 41 84 91 115 169 131 122 136 156 145 105 81 125 109 222 259 204 210 150 128 127 140 132 117 118 122 135 134
71 10 24 -5 87 11 12 -11 39 97 86 27 9 11 69 40 45 144 239 223 142 161 107 122 262 297 282 221 156 110 113 68 80 97 161 220 178 243 205 152 148 152 155 150 149 150 152 148 140
104 98 42 63 101 37 10 7 62 137 22 32 0 19 69 215 244 268 273 268 167 135 266 273 210 157 136 165 204 217 254 246 195 184 182 224 163 180 166 133 150 154 188 193 180 160 147 141 145
77 83 33 75 59 26 23 10 154 158 107 62 67 79 144 180 174 195 260 281 244 193 172 159 158 189 202 231 161 127 154 118 100 81 172 192 183 253 182 158 151 137 153 155 145 148 160 156 127
11 62 93 69 44 13 -19 -11 173 165 75 129 146 150 185 208 190 160 191 181 154 151 139 143 149 148 169 215 229 174 117 102 136 168 142 187 273 229 160 194 166 153 160 158 144 125 132 157 137
81 92 43 21 18 26 81 4 138 140 125 166 231 268 249 218 223 182 144 122 113 121 138 142 170 207 201 156 160 156 153 181 165 162 179 239 222 215 201 149 138 145 147 153 131 137 149 165 216
100 40 31 23 18 22 2 29 192 128 144 168 172 212 228 240 203 168 139 123 113 92 103 129 121 133 124 99 79 57 70 91 117 132 152 173 231 159 161 136 128 135 118 124 175 279 267 253 246
31 18 14 4 10 60 -24 35 123 36 116 88 182 203 166 118 123 135 89 48 55 50 65 108 102 127 126 132 122 88 83 115 157 194 225 224 141 101 90 99 90 82 155 214 207 246 265 229 241
4 29 27 37 37 55 57 28 139 148 207 189 201 168 163 150 191 163 164 198 164 141 98 100 120 118 118 164 216 282 317 305 305 266 203 127 84 75 33 62 116 156 218 246 253 246 235 202 182
1 1 32 50 75 49 20 53 191 170 141 191 240 196 89 99 68 89 90 77 107 165 141 166 168 132 141 190 261 271 279 242 197 186 125 93 98 88 83 120 148 211 244 262 233 161 122 69 67
18 52 19 42 53 57 7 120 173 134 88 89 149 75 128 101 94 104 119 137 201 198 174 142 162 127 202 196 185 204 204 186 177 140 108 89 134 137 156 160 204 198 197 143 104 92 70 56 59
17 16 30 60 65 71 36 55 133 53 63 130 8 123 203 100 119 144 129 222 242 205 191 215 222 218 270 266 250 251 200 178 168 104 111 223 163 135 116 128 154 123 105 100 85 94 80 84 85
52 75 54 51 81 112 104 82 88 99 120 145 160 134 143 188 167 163 267 240 219 194 234 184 262 299 264 218 205 189 153 139 122 264 263 198 145 114 93 119 107 102 91 96 95 85 72 72 77
51 93 73 121 108 160 177 118 42 120 119 172 122 123 95 146 250 291 225 184 181 191 151 208 272 287 197 224 177 137 129 148 234 265 193 132 103 109 106 99 107 84 87 72 66 74 70 96 98

GFSSGP_con_3kmhel_021.txt.gz
Helicity
13 61 81 51 28 4 37 3 55 93 203 53 0 48 60 81 68 137 38 97 65 73 80 81 78 75 73 81 80 69 50 48 50 64 70 79 86 86 84 82 78 79 81 81 74 74 75 71 66
32 82 54 53 26 49 135 109 196 110 40 120 72 -15 97 117 101 114 114 63 74 73 80 73 76 59 68 89 75 66 64 68 77 82 89 87 83 79 69 61 54 53 56 64 61 51 52 55 57
47 46 47 12 13 107 46 94 104 93 9 69 112 213 70 60 88 129 137 123 68 71 66 63 71 89 90 77 74 73 73 76 77 81 84 69 54 46 38 38 40 45 49 42 35 33 36 34 32
73 12 55 45 104 81 161 101 85 108 139 113 120 134 204 127 92 123 123 56 83 66 57 52 56 48 59 69 85 91 90 82 75 59 47 40 39 37 40 45 46 47 44 43 39 32 28 23 13
62 19 -57 -3 110 44 41 -3 36 121 78 143 180 126 130 124 36 116 92 56 86 49 33 26 34 48 65 79 81 68 60 48 34 30 29 39 43 45 49 45 45 46 40 37 32 26 21 17 11
47 56 59 136 96 66 139 39 58 86 130 68 139 156 32 45 140 114 54 40 34 25 1 9 34 54 60 51 47 54 45 28 27 28 32 33 33 35 45 45 41 39 35 30 22 15 11 10 8
-27 2 58 86 43 96 131 93 27 -7 86 72 91 40 63 113 26 98 58 27 35 12 8 -11 4 31 26 25 29 26 22 20 18 22 31 15 25 20 23 38 35 37 30 23 20 4 -2 9 11
1 36 190 76 55 141 82 78 35 93 135 -26 53 76 160 83 75 104 68 28 14 -2 -10 -12 17 5 -8 -29 10 12 14 12 0 14 22 7 27 7 1 27 16 9 10 12 0 -6 -1 15 25
6 102 95 31 186 103 76 131 54 56 126 138 102 124 151 86 138 117 51 -2 7 -27 -23 -1 -3 -20 -13 -35 -14 -17 -8 0 -13 6 4 -12 10 19 20 27 27 9 24 11 -8 1 5 4 9
83 15 112 77 68 25 38 81 46 90 84 135 213 215 177 129 116 69 15 35 56 44 76 30 24 3 14 8 15 -5 -29 -33 -29 -31 -1 -12 0 13 27 34 32 14 18 9 -6 2 6 23 37
-16 36 25 107 -4 30 75 30 28 32 74 108 120 105 102 74 57 33 -4 39 46 67 159 153 67 56 30 49 21 15 -16 -29 -1 4 45 49 53 58 65 49 30 39 15 30 19 32 51 48 70
50 66 31 55 160 95 90 -8 -25 26 54 105 177 128 79 53 30 11 -16 22 87 144 218 188 122 85 42 43 55 38 63 77 87 75 75 75 67 73 79 54 30 12 25 31 40 49 49 47 39
67 80 85 63 201 236 111 25 33 64 100 108 152 142 67 18 3 -13 15 70 107 181 249 259 194 87 51 67 50 69 121 100 110 123 109 91 83 59 47 35 26 24 34 47 55 57 51 47 40
69 66 8 21 50 62 42 21 9 24 75 78 117 94 68 76 44 -9 -13 57 131 127 284 255 280 101 78 73 94 67 114 97 137 117 104 99 88 57 66 56 52 46 53 54 63 58 49 49 68
30 13 -6 -9 -31 -11 10 3 -37 72 92 119 81 126 90 78 77 46 -2 55 51 145 309 327 394 58 144 -10 132 115 89 110 132 119 126 119 121 89 100 95 80 74 82 78 73 63 57 57 64
7 9 61 3 32 -3 37 -15 -10 106 113 104 87 50 105 47 66 75 50 140 83 99 175 186 192 85 -39 -4 131 149 145 115 107 132 135 177 186 171 167 126 93 101 104 96 101 99 79 77 83
-1 23 -10 -13 71 43 38 19 105 75 60 47 84 46 34 42 99 153 191 203 181 181 158 212 144 -6 45 69 164 161 140 96 104 123 160 185 235 241 212 160 121 108 105 109 121 137 115 97 75
17 15 47 70 17 20 -10 -28 64 27 69 73 64 26 102 345 410 415 456 419 316 246 287 254 225 243 171 191 194 219 217 217 199 199 178 173 166 182 189 186 157 138 124 114 111 91 76 64 78
50 60 48 79 99 56 18 -26 131 116 48 30 133 167 376 415 419 522 535 485 383 265 318 280 302 272 250 237 191 204 238 207 162 127 154 179 223 304 245 243 257 215 137 119 106 92 99 112 109
45 79 82 27 49 38 68 64 66 165 193 242 229 206 262 311 322 362 395 414 388 293 245 218 181 179 234 260 260 251 206 219 260 273 269 273 307 316 314 262 211 190 161 142 119 104 87 98 115
125 62 101 78 41 11 12 58 151 202 278 373 157 72 72 102 180 224 245 249 266 270 195 145 110 119 161 195 168 175 171 164 166 167 154 186 227 255 236 184 167 130 110 112 112 113 136 120 120
96 77 47 47 40 29 78 85 220 261 334 410 424 336 262 185 143 96 85 155 172 178 171 148 81 82 105 118 125 126 113 123 118 151 184 200 208 206 157 120 94 97 101 89 81 104 84 97 104
35 30 23 31 38 50 65 67 150 275 291 297 313 305 245 220 180 114 65 79 76 87 95 79 135 138 113 94 63 62 115 152 187 190 198 178 143 111 115 117 97 80 49 62 94 108 143 151 146
27 62 68 81 91 73 78 40 179 186 198 298 243 196 163 183 110 89 117 111 50 8 -8 56 107 125 148 181 249 279 281 273 259 221 150 77 57 77 52 21 36 38 63 81 92 102 142 155 141
31 53 57 64 56 51 19 89 53 232 207 232 306 342 322 209 173 175 162 124 94 142 163 170 173 156 153 153 172 219 257 258 238 186 114 110 84 47 53 52 31 60 90 106 109 136 140 103 109
13 18 38 46 54 18 28 103 159 256 313 261 211 189 135 105 89 136 155 179 205 260 280 238 223 196 216 213 265 257 231 183 166 135 93 110 129 94 65 44 56 114 118 107 115 92 71 70 82
7 31 15 50 18 45 56 61 141 68 97 121 90 49 24 6 107 178 272 326 306 304 258 232 255 262 308 326 323 270 218 171 116 94 177 159 114 65 60 52 101 99 98 83 73 91 73 103 103
23 22 41 38 60 39 61 86 64 85 127 130 126 118 126 186 295 340 317 280 278 238 180 197 227 246 261 269 301 228 193 175 177 239 232 177 112 72 86 92 77 102 93 68 84 83 66 91 99
22 56 55 64 116 109 59 75 79 54 110 154 176 180 221 260 289 275 252 204 186 165 112 150 174 209 256 263 216 181 158 154 208 257 214 199 117 95 74 82 83 92 99 79 56 40 47 72 94
47 86 103 125 87 137 175 69 13 165 196 216 213 196 227 223 188 159 196 205 166 126 136 148 215 266 230 188 154 172 188 228 241 288 235 238 155 133 154 157 126 108 102 86 71 81 108 110 114

GFSSGP_con_3kmhel_024.txt.gz
Helicity
52 53 50 52 46 83 61 104 13 130 200 91 91 124 141 123 89 83 42 45 69 102 85 80 68 65 68 76 86 93 80 68 70 80 86 81 84 77 70 58 52 49 54 60 62 64 56 57 58
65 59 79 44 43 115 109 70 146 80 -80 -37 75 111 169 125 106 74 75 5 67 102 70 67 84 81 71 78 72 65 69 72 73 82 96 91 75 56 45 39 39 40 44 42 28 27 28 32 32
48 50 49 31 34 66 53 79 54 -14 -19 -34 -18 66 63 29 -11 4 21 25 77 90 73 63 68 58 83 73 73 73 65 65 75 78 69 58 51 44 40 44 43 38 36 31 27 18 19 15 12
32 60 51 26 156 18 58 74 213 190 139 125 36 106 44 -16 1 32 8 38 96 67 49 54 57 60 59 73 75 67 64 65 59 46 39 37 41 41 43 42 37 30 29 25 23 18 13 7 5
62 55 37 94 124 83 42 80 109 187 160 114 90 48 15 73 132 72 31 66 86 45 33 22 34 48 61 72 65 53 51 41 29 24 26 35 30 31 27 19 17 17 19 18 14 11 9 9 11
96 59 118 126 153 75 195 83 158 170 151 133 120 54 11 39 116 2 16 32 31 23 3 4 23 30 41 41 37 49 42 27 27 22 16 19 13 12 -0 5 8 11 5 8 6 3 6 16 23
-16 44 40 58 10 96 62 33 77 99 86 86 -2 34 13 54 39 5 17 39 16 -16 -22 -27 -18 -6 12 25 35 30 16 5 9 -1 6 7 -9 -13 -15 -10 -10 -14 -13 -16 -22 -20 -1 8 16
-19 14 95 114 106 160 29 101 109 91 91 40 54 -3 28 62 54 32 28 30 -13 -52 -29 -37 -38 -25 -7 -3 -0 -4 -11 -5 -1 -4 5 4 -12 -17 -25 -20 -21 -17 -19 -35 -41 -40 -33 -15 -7
-9 95 114 111 74 94 79 147 143 42 17 31 14 19 83 117 72 86 68 27 -11 -13 -23 -55 -26 -14 -23 -42 -40 -26 -30 -24 -9 -2 8 6 -20 -10 -6 -10 -34 -22 -20 -39 -40 -39 -32 -13 -12
43 109 117 1 19 121 83 94 85 98 148 168 174 166 133 142 126 109 78 32 -7 -13 -35 -12 -30 -26 -12 -12 -18 -15 -36 -43 -20 -12 1 3 8 1 2 -10 -25 -28 -21 -38 -43 -39 -25 -0 30
4 -24 16 83 35 63 100 121 128 171 96 69 128 108 120 139 133 111 84 39 -1 13 17 -0 -1 -35 22 15 6 -11 -6 -24 -18 -3 1 25 30 28 8 -8 -8 -6 -11 10 4 5 19 17 34
5 -12 63 52 19 47 50 113 78 25 5 64 103 106 119 148 117 65 21 21 76 91 74 41 7 9 6 23 49 32 47 32 11 10 38 85 85 71 53 41 31 30 32 25 23 30 31 33 34
89 50 88 106 121 69 83 145 26 16 130 139 149 117 84 98 53 -7 4 8 163 189 157 95 115 99 67 86 71 75 78 71 58 70 77 107 105 92 98 76 67 63 63 61 59 49 36 26 25
38 45 59 82 137 120 76 58 55 41 190 209 186 94 53 22 -10 -28 5 64 182 232 254 227 170 193 142 74 89 119 147 136 125 99 101 111 114 130 131 128 110 109 97 81 74 68 64 51 41
1 21 40 10 9 37 63 20 20 72 170 214 131 109 79 56 18 -29 17 30 252 294 317 260 244 70 113 85 70 99 124 146 125 110 118 128 136 158 147 142 138 120 98 102 104 92 91 80 53
36 78 -10 -4 -21 8 20 -9 9 101 185 135 98 107 75 58 13 -69 -54 44 260 346 301 264 249 89 52 36 88 90 115 115 142 114 148 179 207 191 173 146 142 133 149 128 108 74 58 31 24
6 71 52 26 21 5 9 19 30 59 111 109 79 87 55 89 99 136 247 283 240 237 270 253 144 91 36 87 112 156 165 159 150 173 191 229 250 243 217 211 203 239 193 155 120 105 61 65 70
41 65 32 85 -9 -3 43 -1 62 14 38 46 143 226 314 358 364 422 482 458 358 266 299 269 211 126 149 194 213 221 234 296 332 364 375 392 363 348 298 257 292 238 188 177 137 103 99 88 87
1 26 86 114 46 14 51 35 83 -1 102 233 342 399 455 547 503 518 469 380 339 338 343 223 261 217 177 199 251 301 329 315 337 353 354 343 319 263 236 223 202 181 169 148 148 116 111 104 77
50 61 99 86 91 42 92 129 207 164 214 271 373 422 472 459 505 473 396 356 298 209 168 177 170 177 167 152 147 156 151 167 150 180 241 250 236 191 191 151 160 184 156 146 121 107 89 75 99
128 110 84 48 55 39 88 133 187 266 328 324 301 291 333 272 332 307 264 226 218 218 158 94 80 84 106 129 139 161 133 128 154 159 123 105 65 73 101 114 95 83 82 105 125 145 154 115 94
52 69 75 80 58 48 94 140 243 279 376 322 312 318 295 222 168 119 112 153 158 145 131 102 72 50 38 84 106 112 120 118 76 70 71 76 54 47 54 65 74 90 78 95 80 96 84 94 109
20 51 43 49 65 68 155 166 196 244 284 283 232 162 159 83 16 10 25 39 39 79 91 76 73 43 68 101 85 87 122 111 138 150 167 145 91 64 64 94 63 34 21 48 72 85 106 84 81
56 69 85 95 101 118 156 123 181 222 213 183 144 174 59 -20 -46 -13 -15 23 50 50 69 100 120 101 129 149 135 170 189 198 200 176 144 92 76 80 93 64 34 -1 8 28 41 48 58 78 97
62 46 52 77 70 82 52 99 147 104 250 254 247 208 133 75 45 58 54 64 102 89 105 116 163 173 201 239 250 241 237 216 186 141 123 138 112 67 38 33 6 -30 -11 22 47 62 88 104 113
16 22 39 40 44 24 67 98 123 155 257 177 158 149 90 28 52 74 147 217 224 226 213 223 208 194 183 223 230 223 164 117 68 77 93 137 99 75 45 48 10 30 56 60 70 85 86 77 74
9 16 16 32 20 65 84 138 66 94 111 131 167 105 139 205 250 290 304 298 294 245 177 183 194 182 213 267 267 207 116 80 96 93 148 140 130 130 104 58 57 55 47 68 82 93 79 71 73
14 5 1 -2 35 86 108 127 114 129 96 163 155 264 284 274 302 307 300 271 223 164 122 104 183 176 210 194 163 140 124 113 135 174 163 169 174 168 116 111 92 71 58 83 110 125 100 74 55
-20 -9 14 40 56 80 136 145 113 96 162 238 320 295 240 249 221 193 229 208 180 141 133 126 179 181 173 168 143 111 98 133 153 189 223 240 233 218 127 136 90 106 99 100 127 155 154 138 102
20 39 44 62 58 104 115 113 70 137 149 185 178 158 142 174 270 343 191 134 142 115 146 139 148 143 133 107 107 126 133 143 179 195 212 240 249 278 226 199 139 122 124 126 154 200 144 125 106

GFSSGP_con_3kmhel_027.txt.gz
Helicity
45 70 64 79 31 70 122 81 36 84 105 73 75 65 102 112 77 69 19 12 72 38 21 46 65 70 71 86 95 100 87 73 69 68 68 79 88 87 69 56 45 41 42 34 36 32 29 26 33
49 38 83 72 30 48 116 45 74 -13 -24 102 139 85 106 74 21 98 84 21 54 38 42 57 68 80 76 83 97 73 69 64 61 67 78 80 67 50 37 33 34 35 35 33 34 32 31 28 23
8 20 49 53 48 62 75 91 98 26 16 94 28 47 51 -1 103 71 -8 29 46 23 43 55 73 72 77 75 59 66 71 70 72 68 67 55 38 30 28 30 28 27 28 31 32 33 28 28 29
12 67 66 76 81 28 28 86 96 101 100 85 7 70 39 -3 -24 -10 27 31 11 28 56 49 64 61 67 65 64 67 68 57 46 35 24 20 19 19 18 16 15 16 21 24 24 29 31 29 34
34 45 60 156 87 55 90 96 61 71 84 35 70 34 60 -44 60 53 2 10 44 40 43 32 34 40 40 61 77 56 40 24 10 8 8 10 12 4 -0 -0 -1 2 8 10 9 11 18 23 30
77 26 100 193 208 209 174 107 132 161 88 128 146 130 20 -16 77 11 20 8 12 43 3 8 19 22 47 55 27 22 15 7 -0 -1 -4 -8 -13 -14 -9 -9 -8 -6 -7 -13 -9 -3 5 14 27
3 38 58 52 -2 208 200 44 27 95 52 63 48 11 -15 -46 -31 -14 -13 -10 -4 -6 -4 -21 -11 22 31 13 8 6 2 1 -2 -9 -22 -24 -14 -16 -14 -16 -20 -22 -28 -37 -33 -25 -11 -2 -0
46 3 51 20 74 159 168 118 -3 31 30 62 58 22 -68 -98 -42 -19 -15 -6 -2 -23 -35 -26 -14 -1 -18 -15 -4 -6 -8 -6 -14 -28 -27 -23 -22 -20 -17 -25 -25 -29 -39 -48 -49 -42 -30 -18 -7
38 44 73 81 123 66 34 -33 48 61 116 73 34 24 -18 20 23 26 52 51 32 -28 -39 -42 -31 -54 -38 -28 -42 -26 -25 -20 -20 -17 -5 -10 -17 -16 -18 -30 -35 -37 -50 -54 -46 -39 -40 -33 -17
10 92 61 44 58 93 55 79 120 137 75 87 151 169 119 69 69 89 62 41 -5 -41 -75 -89 -75 -44 -19 -29 -52 -46 -30 -29 -16 -9 -2 -5 -9 -8 -7 -14 -27 -25 -30 -30 -26 -19 -15 3 18
37 86 39 52 -12 123 66 92 115 205 52 50 133 104 58 77 73 88 31 21 -9 -53 -77 -69 -60 -34 -6 -23 -31 -29 -16 -10 -7 13 21 8 9 -5 16 22 25 35 35 40 33 33 38 32 26
-6 25 -9 27 37 92 38 92 135 76 1 -3 114 87 54 64 89 77 40 14 -19 -21 -22 -38 -24 11 -26 -11 -2 11 31 22 13 18 26 50 60 66 86 87 74 74 59 68 60 51 36 27 13
-23 -0 54 39 71 92 97 89 51 27 54 49 104 104 52 86 83 55 57 16 24 17 3 11 11 1 -20 -3 24 27 51 48 44 51 58 75 97 118 99 113 103 105 88 87 75 64 51 42 37
22 52 88 93 95 93 110 80 25 8 123 151 165 72 71 108 87 35 73 56 98 101 51 69 51 27 50 68 59 25 64 68 65 82 74 89 115 131 137 155 155 152 143 126 106 91 87 54 48
54 96 80 76 108 76 65 45 14 44 114 160 111 87 74 77 32 4 45 86 168 155 145 135 95 75 89 94 81 79 117 100 81 102 114 145 176 204 217 239 229 225 182 155 125 114 91 57 59
31 34 -8 -14 18 51 45 -7 25 88 161 131 76 53 10 -6 -15 -43 -39 85 199 217 223 190 154 122 104 146 121 151 161 164 160 174 234 299 327 336 308 271 251 202 159 131 112 64 35 39 20
64 -15 -2 -20 14 27 10 2 37 128 121 114 57 62 78 89 108 86 74 121 204 297 385 341 255 132 71 103 184 260 269 271 294 361 402 407 396 349 287 262 221 173 146 98 71 86 73 81 84
23 11 25 -15 36 7 4 21 6 140 88 135 150 182 200 238 199 185 188 253 374 408 463 339 202 194 134 307 311 297 290 314 356 349 353 320 291 273 235 177 151 116 94 107 149 121 101 94 77
24 44 22 22 41 72 -6 20 88 128 230 248 261 334 375 431 344 388 390 372 386 337 296 201 209 229 240 230 192 230 215 237 276 267 239 212 177 143 131 111 105 86 94 88 94 69 104 101 126
50 -2 62 93 115 80 101 167 166 179 194 234 375 483 528 573 575 562 504 446 320 288 208 228 257 183 115 106 106 141 177 188 147 120 118 104 102 92 58 22 5 34 81 122 118 120 112 113 144
79 81 96 74 98 91 136 170 166 179 240 290 368 378 383 389 424 384 333 223 140 114 104 98 52 46 62 80 92 117 125 94 114 124 82 71 77 62 38 36 23 45 55 75 90 131 152 132 114
68 110 125 117 108 101 135 124 178 202 266 300 264 239 240 223 200 102 69 26 32 9 21 19 12 13 30 43 59 57 60 99 105 48 10 35 65 54 47 37 49 64 35 43 42 76 75 101 102
44 67 78 84 95 135 181 195 176 203 177 195 201 180 113 47 35 31 -23 -29 4 11 26 26 48 70 62 78 91 96 123 115 98 109 107 96 102 80 59 75 63 37 -4 -35 -21 5 27 21 31
58 81 115 112 89 119 151 168 129 146 151 177 140 122 52 38 9 3 13 49 69 53 91 103 110 93 111 146 160 177 168 150 134 100 119 122 111 106 103 78 46 10 -31 -12 8 27 19 26 35
69 83 81 82 53 53 125 123 112 32 133 137 133 64 47 28 6 -23 -34 62 112 130 171 130 127 123 148 194 204 170 157 144 145 145 137 109 101 114 106 114 78 26 32 28 53 49 65 56 72
43 38 35 15 39 59 72 96 99 94 240 156 101 92 119 124 61 72 154 183 155 181 182 132 133 124 162 187 180 157 128 135 125 117 97 109 121 137 118 124 110 82 67 71 98 106 93 81 77
21 46 28 59 51 70 79 118 143 107 246 217 101 85 143 207 230 274 232 260 268 218 182 153 148 178 154 121 121 95 106 121 118 85 105 124 132 143 153 188 170 148 128 106 97 78 66 85 85
21 12 1 15 40 50 65 114 142 139 157 132 165 208 251 306 320 327 326 276 229 249 148 160 186 179 124 134 135 126 94 103 121 137 123 147 165 190 217 212 204 166 157 166 95 70 74 85 129
28 8 20 22 35 62 67 65 104 162 179 198 199 230 287 300 309 318 306 284 209 174 173 140 127 115 138 115 112 113 110 122 142 143 159 185 217 237 263 299 276 228 185 107 88 88 87 127 153
21 21 34 52 43 67 96 76 108 134 227 242 215 232 312 360 384 387 333 280 226 160 105 78 174 185 113 111 126 131 157 164 148 164 168 173 195 248 258 287 247 101 41 94 85 88 112 153 142

GFSSGP_con_3kmhel_030.txt.gz
Helicity
22 21 27 55 113 158 165 117 39 60 99 71 115 92 70 69 102 123 57 -21 31 9 -16 -5 32 58 65 65 74 95 90 86 85 78 70 72 69 54 38 35 33 36 43 43 42 41 44 50 57
39 30 67 89 59 118 125 49 58 63 25 61 29 22 127 161 41 -19 68 53 52 22 -2 4 33 58 58 65 94 82 76 69 64 56 58 49 31 24 22 20 25 32 37 40 39 44 48 51 52
45 72 100 78 59 48 130 50 146 76 44 41 122 55 18 14 -15 99 105 64 52 20 4 5 42 59 63 80 67 72 72 68 53 42 25 10 9 13 21 22 25 27 31 33 37 41 46 51 56
56 99 100 80 39 76 70 112 86 82 68 90 -3 44 55 9 20 -0 53 44 41 -1 -9 15 38 42 49 60 80 71 56 34 12 -5 -6 -4 3 10 12 11 12 20 21 25 30 32 41 46 44
34 80 81 37 83 85 96 99 136 78 71 90 -21 2 -24 30 55 75 65 13 2 -10 -2 3 16 30 53 60 64 44 28 -2 -12 -15 -13 -11 -11 -5 -3 -3 1 1 -0 10 13 17 23 29 35
86 47 106 157 148 150 151 132 95 86 41 -32 12 67 8 57 53 20 3 -11 -22 5 -13 -15 14 32 42 52 33 13 -2 -14 -15 -21 -26 -23 -17 -18 -15 -5 -4 -4 -7 -2 4 5 5 9 16
92 69 74 78 231 206 158 85 196 33 72 8 110 96 34 55 -9 15 -6 -24 -36 -43 -21 -12 1 17 31 18 2 -2 -10 -22 -27 -30 -29 -22 -24 -20 -14 -4 -1 -3 -8 -7 -2 4 8 12 22
120 127 86 59 113 435 110 243 47 -13 -5 105 62 6 -4 -30 -12 8 -26 -42 -52 -44 -34 -13 -8 -0 -6 -10 -6 -10 -20 -28 -28 -24 -17 -13 -16 -20 -21 -10 -14 -6 -5 -9 -8 -6 -1 -3 3
70 76 80 28 38 81 35 22 -35 3 126 83 36 36 6 103 22 12 -26 -43 -38 -48 -43 -43 -11 -18 -20 -23 -39 -25 -27 -26 -21 -11 -6 -9 -14 -15 -15 -14 -15 1 -1 -5 -7 -6 -6 4 6
71 67 33 11 5 31 4 48 49 -26 98 56 98 142 164 105 22 14 -12 -24 -45 -64 -76 -42 -41 -46 -51 -54 -52 -39 -37 -29 -19 -11 -5 4 9 13 18 21 16 29 39 34 35 37 41 31 12
48 20 12 11 -20 128 190 106 1 74 25 32 124 169 127 39 -10 8 -41 -31 -35 -82 -60 -53 -58 -59 -64 -61 -38 -40 -30 -18 -13 -9 8 20 32 30 46 52 49 57 74 66 67 59 48 45 20
60 88 1 -44 -25 125 136 92 16 39 -13 44 109 153 68 4 -21 -23 -12 -32 -33 -61 -52 -52 -57 -64 -72 -43 -14 -13 -20 -0 14 26 27 42 56 66 75 87 92 119 111 124 115 92 83 76 47
25 13 8 58 80 104 141 33 13 -28 13 113 110 93 50 13 -24 -45 6 -8 -16 -37 -19 -33 -23 -50 -44 -28 -15 -3 -3 16 39 51 57 74 93 107 136 173 177 175 151 138 127 113 105 83 64
-7 18 52 65 72 83 77 48 21 -19 65 121 117 69 57 38 18 -35 3 28 25 2 4 -7 -11 -27 -25 -21 -6 -6 2 32 62 98 124 128 140 178 230 239 225 216 177 147 126 103 80 60 59
53 59 94 112 91 99 73 34 -3 6 92 93 43 62 32 -21 -27 -20 -28 -8 38 20 65 80 84 57 51 43 57 54 56 94 133 173 190 206 227 265 274 267 243 200 158 145 125 118 111 101 61
48 58 40 44 57 65 40 -5 27 50 127 49 14 52 46 1 -18 -66 -58 -7 38 116 202 213 212 165 139 82 120 101 241 199 250 269 268 277 276 255 238 198 175 154 143 118 99 102 106 67 43
64 51 41 18 42 28 42 11 68 43 91 83 80 101 107 68 47 2 -23 -2 121 262 382 435 332 293 180 184 160 203 233 280 264 272 267 242 229 213 187 156 133 104 49 29 58 68 41 52 104
18 22 18 17 2 26 13 26 46 49 98 113 133 145 168 133 91 78 99 186 293 455 555 623 467 308 264 216 188 258 268 219 199 189 156 143 134 107 66 79 90 73 57 49 56 63 80 60 86
37 36 55 37 24 61 41 14 28 61 173 126 165 193 228 221 162 170 197 229 341 361 443 461 313 216 98 75 90 122 96 101 124 123 124 131 108 114 87 64 76 73 85 70 66 48 83 86 107
69 64 44 68 90 81 83 85 80 109 147 90 144 229 284 314 331 323 281 258 249 181 103 69 26 -73 -42 20 22 50 44 94 131 142 168 145 114 84 60 40 39 62 80 93 90 89 69 59 76
85 76 56 46 114 147 107 110 102 122 146 175 208 247 296 292 279 252 223 151 77 -5 -40 -37 -58 -38 20 72 98 109 137 129 122 156 156 111 74 69 51 43 70 74 57 57 44 69 99 126 97
28 52 63 100 108 106 135 96 136 137 182 204 219 216 184 164 147 114 81 93 110 73 67 90 75 55 32 38 68 85 80 114 148 164 121 111 96 61 49 56 75 93 93 98 60 36 29 36 47
41 67 85 93 108 122 150 135 115 192 185 167 144 130 108 72 69 51 91 86 64 28 14 51 76 77 41 60 84 116 168 180 182 145 139 129 95 73 68 82 94 83 51 8 -16 -5 26 73 93
52 88 124 111 95 92 124 158 87 149 147 126 93 82 52 59 44 105 121 70 66 34 48 115 53 66 94 110 133 163 171 161 142 117 124 122 106 89 79 86 103 75 56 60 89 69 72 83 88
86 102 84 84 105 31 126 107 47 37 90 126 92 71 59 89 98 119 82 88 153 108 92 95 110 130 122 144 179 181 147 120 110 124 147 132 140 157 118 125 113 121 118 108 145 90 92 126 153
75 74 56 -12 15 37 85 56 71 23 54 119 73 22 95 86 75 118 201 159 148 108 139 125 155 118 131 168 161 114 98 108 112 120 131 124 140 132 138 150 183 178 198 206 191 188 162 157 108
42 54 49 60 48 8 51 62 51 102 153 195 173 153 78 62 105 189 158 142 193 216 176 141 138 116 130 132 105 78 77 93 101 93 111 138 155 184 185 217 239 273 284 159 196 187 129 98 79
42 36 40 40 6 24 17 44 72 86 112 177 190 118 111 130 193 235 230 253 281 258 208 161 121 101 82 81 90 112 127 126 130 139 148 167 186 210 209 247 258 281 228 234 158 139 131 125 98
66 38 45 33 40 52 39 28 48 150 138 169 139 155 191 231 295 320 350 340 323 296 199 139 139 118 86 133 147 157 142 133 153 166 177 181 182 174 181 200 224 290 254 190 178 148 141 111 124
33 25 42 57 47 75 81 43 42 54 132 168 190 196 256 333 371 351 344 337 278 168 205 227 119 120 154 157 165 156 154 172 181 170 174 168 149 137 151 181 263 216 161 155 174 203 117 170 133

GFSSGP_con_3kmhel_033.txt.gz
Helicity
26 17 27 32 52 64 157 187 118 104 101 84 124 138 130 143 153 164 17 17 34 52 6 -1 17 42 48 58 87 92 74 68 63 63 64 71 57 39 34 37 36 43 48 50 54 55 50 48 45
25 24 49 58 60 33 94 155 189 98 56 108 95 51 123 173 96 -13 -25 -25 98 56 7 0 8 28 42 61 71 61 67 75 77 70 62 42 24 21 28 36 30 35 44 45 48 50 49 42 40
44 37 66 66 72 18 102 54 86 31 -37 66 57 2 -5 72 64 24 41 103 30 -2 -4 -1 14 22 39 56 51 62 74 65 40 27 18 9 11 16 20 18 13 21 31 36 45 48 47 44 41
53 49 92 90 71 59 71 55 137 148 18 19 41 168 28 7 9 17 94 20 27 -10 -12 0 17 30 41 44 57 59 41 15 0 2 6 3 2 7 12 9 10 24 33 35 38 39 43 41 39
65 69 91 92 143 66 66 101 163 141 64 18 -3 -45 -6 -16 78 62 64 17 6 -24 -22 -4 16 26 34 43 39 26 9 1 -1 -7 -14 -12 -1 5 8 8 7 13 20 28 33 31 29 25 22
74 72 101 152 177 99 160 165 196 172 48 101 -17 51 24 76 62 74 20 -8 -40 -18 -18 -3 7 20 30 29 27 13 3 -8 -14 -24 -21 -13 -4 5 7 1 7 19 23 26 25 23 17 11 6
81 73 71 131 151 178 193 129 174 110 -52 -106 25 24 51 106 48 20 -17 -41 -40 -23 -15 -9 1 18 22 23 5 -4 -12 -20 -25 -24 -18 -7 1 7 10 14 14 10 11 17 20 18 14 10 4
85 90 92 114 165 256 157 99 44 -26 -53 14 29 -47 54 75 29 -2 -25 -39 -34 -27 -21 -6 9 11 -2 -4 -15 -17 -23 -24 -22 -14 -1 6 14 20 22 23 22 16 11 10 16 20 24 31 26
83 97 113 96 59 53 36 44 -10 10 -49 -3 -17 -13 65 93 29 4 -22 -42 -41 -27 -14 10 -4 -19 -25 -27 -31 -34 -28 -23 -12 0 11 15 15 18 25 27 30 40 46 48 57 67 67 42 41
65 56 57 25 34 67 -8 23 55 13 -5 -18 45 86 133 50 10 -7 -23 -39 -35 -21 -10 -12 -28 -35 -40 -47 -47 -46 -31 -29 -16 -4 8 13 20 26 28 43 63 103 121 120 114 106 85 66 48
28 27 8 25 32 32 -28 -86 66 29 -57 -27 52 114 102 17 -15 -21 -45 -40 -19 -5 -21 -40 -47 -50 -56 -53 -49 -31 -27 -18 -8 -5 16 25 36 41 54 80 99 111 134 110 106 102 96 97 65
12 2 4 33 -3 138 68 43 62 21 -32 -22 106 149 63 19 -15 -20 -30 -35 -39 -37 -31 -49 -67 -47 -46 -37 -28 -16 -12 -6 3 25 44 44 66 100 126 139 145 150 133 137 133 113 109 115 101
20 36 -4 19 11 -13 104 23 12 -8 -6 62 90 64 48 16 -31 -43 -54 -61 -58 -47 -28 -43 -27 -37 -29 -13 -15 -16 -4 13 33 52 77 90 112 140 154 166 166 165 158 149 141 136 133 125 110
-11 6 16 22 68 49 33 13 -4 -18 47 50 90 26 15 16 -16 -34 -44 -36 -46 -22 -8 -2 7 7 1 -5 3 -4 1 28 92 105 130 143 146 154 161 164 181 177 165 155 144 131 121 110 104
7 49 59 97 51 17 54 -4 -23 -10 34 33 72 36 4 -26 -46 -16 -26 -41 -22 -5 57 98 87 79 69 55 41 54 45 105 158 165 171 180 173 182 176 180 188 177 162 148 142 140 116 103 101
57 60 63 84 43 28 -18 23 52 0 36 20 51 42 10 -20 -58 -93 -67 -87 -22 56 134 206 223 194 181 137 24 23 32 148 123 134 143 167 169 164 164 173 176 165 151 150 132 103 103 120 113
70 19 44 56 80 48 31 -9 76 11 -13 25 28 55 49 16 -13 -22 -37 -15 27 111 215 323 338 338 314 174 54 43 38 98 114 113 111 137 153 170 174 167 141 128 106 82 80 100 108 119 129
5 47 53 27 37 74 36 35 83 33 18 57 66 60 71 72 24 31 35 75 135 188 300 418 465 342 223 95 112 101 94 89 87 114 142 164 174 159 140 142 131 85 76 86 100 104 92 70 69
34 80 56 49 45 73 56 31 50 47 59 90 93 77 90 106 100 96 97 109 193 260 264 269 343 232 101 76 37 45 77 101 125 142 172 179 162 147 125 89 75 69 85 74 63 68 100 102 112
60 50 42 68 70 38 29 48 46 63 77 79 79 96 117 139 162 179 155 125 107 124 141 128 84 50 -2 -27 -36 15 59 88 136 147 149 146 126 81 50 40 48 55 65 77 73 68 52 57 85
89 55 32 37 69 84 45 38 51 58 89 98 102 100 120 136 181 195 169 101 56 31 4 -17 -6 -44 -80 -43 27 88 106 111 110 123 155 154 95 86 79 72 69 68 62 73 65 52 69 100 103
19 45 45 54 50 41 77 40 65 76 91 99 101 97 112 142 154 114 94 24 34 32 -21 -46 -37 -37 3 53 57 82 69 88 129 170 182 147 125 107 86 82 90 93 85 72 73 85 107 111 153
1 45 70 72 105 71 94 73 66 95 89 103 114 83 81 130 129 100 48 46 74 14 -29 14 53 96 85 78 77 80 118 145 167 171 156 125 112 92 93 106 102 88 88 96 101 112 90 92 97
30 73 95 83 79 34 106 125 100 106 78 129 101 62 83 106 108 80 24 61 47 31 80 185 133 133 113 113 101 118 142 152 161 153 135 129 121 116 104 103 95 91 110 139 161 158 143 105 94
70 81 59 58 81 62 102 81 65 27 43 109 69 29 61 70 84 51 43 67 113 153 126 149 153 166 151 152 133 122 126 148 145 142 146 135 135 121 112 124 126 166 188 200 204 190 104 93 130
62 59 61 -4 5 6 51 22 27 7 48 74 59 47 70 79 59 40 77 116 145 120 131 174 161 159 158 149 117 107 171 169 154 139 124 128 135 142 136 157 182 190 201 210 209 162 93 111 133
41 63 66 60 31 20 29 26 25 70 82 104 132 141 129 74 75 105 120 139 148 174 174 178 208 187 122 102 105 150 180 133 119 127 140 141 139 163 180 172 155 155 195 202 193 147 123 153 140
47 58 29 50 7 14 11 14 16 14 54 101 137 145 119 112 118 139 180 214 252 240 212 208 179 102 113 118 140 180 142 127 126 130 148 172 188 182 159 141 140 141 168 203 198 155 161 132 130
72 53 69 46 29 15 11 12 18 14 66 114 135 144 124 131 143 198 269 315 283 238 213 190 135 69 119 106 178 164 156 147 144 153 181 181 149 141 142 138 140 148 197 178 144 117 115 142 121
48 49 44 42 28 64 68 31 28 0 14 57 88 120 143 164 211 279 327 296 242 241 229 175 83 151 114 197 189 159 145 146 174 198 164 128 121 124 131 130 138 177 170 102 119 128 186 125 116

GFSSGP_con_3kmhel_036.txt.gz
Helicity
25 24 27 27 25 28 52 75 158 148 190 69 116 207 246 340 241 211 45 52 48 41 34 23 22 16 29 54 70 63 62 66 70 62 59 55 43 41 47 49 49 52 50 47 45 49 48 50 45
33 31 32 47 28 29 28 92 123 133 121 175 227 205 184 178 136 89 79 6 16 42 42 33 27 21 34 50 57 50 57 63 62 52 46 38 34 43 45 40 34 35 37 39 43 46 45 42 45
25 31 34 41 10 18 44 72 111 98 186 194 272 237 143 135 69 53 14 3 66 70 56 43 34 26 39 51 41 50 53 47 41 27 30 28 37 33 27 23 23 34 41 44 47 46 43 37 33
29 34 44 15 29 84 96 51 138 161 220 192 83 139 107 20 13 35 32 35 40 58 1 27 22 29 45 34 49 44 38 29 17 22 18 20 21 19 16 16 21 32 41 43 39 30 22 17 11
30 55 19 10 61 70 63 105 85 109 167 3 -32 6 -33 13 -0 -37 -4 20 -0 -8 4 17 17 31 28 42 46 37 20 13 11 6 7 17 17 16 23 26 26 29 28 26 20 17 20 16 11
44 77 26 12 62 100 91 78 65 93 56 118 84 -23 31 68 42 65 21 6 29 10 13 11 23 23 34 40 37 23 12 -2 -5 2 14 19 21 26 28 22 26 23 23 24 24 23 25 26 24
73 38 42 62 89 119 157 75 144 113 42 -78 -13 -32 46 73 29 1 68 37 -45 -46 -3 6 13 21 33 31 26 7 -4 -14 -4 9 16 26 27 27 27 28 26 29 30 40 42 40 43 39 37
79 65 47 57 75 108 117 191 189 229 73 4 7 -41 49 97 58 1 -4 -58 -39 -20 -2 4 10 18 15 14 -3 -9 -15 -11 10 17 23 23 26 22 19 32 46 51 50 61 76 79 65 53 52
78 48 38 80 91 145 57 89 -16 -24 47 -1 -8 -4 53 103 39 -5 -28 -34 -2 -14 -2 1 17 20 11 -1 -2 -14 -12 -1 16 17 19 6 20 23 31 66 74 78 86 100 101 94 76 40 65
45 19 38 33 48 49 46 -11 -29 -79 -54 -24 -17 29 125 55 28 -14 -11 -16 -28 -14 -1 13 24 20 9 -5 -10 -13 -9 -1 3 15 18 21 33 33 50 72 88 96 95 101 101 91 57 47 70
22 2 65 49 27 9 -3 -87 2 -88 -36 -4 23 110 104 32 -14 -20 -22 -16 -6 7 32 37 22 11 -4 -1 -18 -15 -8 1 9 32 32 51 45 50 50 64 70 72 70 79 87 95 104 97 88
-12 -13 34 61 82 81 -35 -8 -41 -80 23 -8 20 100 74 16 -25 -27 -12 4 17 20 27 18 12 10 2 -6 -7 1 5 19 28 43 40 43 59 79 82 87 88 85 94 108 117 121 105 98 94
-8 -0 11 8 -10 29 7 -20 -36 -13 15 46 38 45 4 -7 -17 -11 -0 5 -0 -3 3 -1 3 5 -0 11 9 15 24 28 49 63 76 71 83 99 100 108 113 125 126 142 138 134 121 106 99
14 23 23 29 6 8 -14 1 -32 24 28 43 42 6 -7 1 3 2 -21 -29 -17 -7 -4 11 5 10 25 42 50 37 26 25 63 88 95 101 103 107 112 126 143 155 168 175 177 152 130 116 101
2 4 43 -35 -5 -21 -17 -15 26 -16 12 28 11 -0 -9 -12 -19 -35 -47 -32 -7 18 36 42 55 60 75 71 73 45 25 17 40 85 75 99 109 111 132 157 181 186 179 184 155 130 118 111 101
36 4 20 49 -4 -25 -32 30 8 19 -0 29 16 -3 -18 -26 -38 -56 -59 -31 15 53 77 127 138 140 159 129 112 131 39 -26 -35 43 83 103 114 149 174 190 195 180 169 138 110 99 93 105 113
15 -2 27 49 8 3 -39 13 20 -19 -8 15 23 17 -1 -11 -35 -48 -23 -1 26 61 129 191 232 275 260 244 153 67 63 65 65 61 84 109 146 180 180 170 147 108 108 102 90 100 106 104 117
9 30 6 32 48 11 -8 21 16 -8 3 18 26 30 39 43 41 -6 -8 29 50 114 157 183 240 307 275 241 29 -15 13 59 67 84 99 121 149 160 158 141 110 93 107 100 85 71 80 55 76
28 13 13 39 37 20 21 15 55 27 4 37 25 38 61 70 48 59 63 76 113 193 215 148 189 209 106 97 -43 15 34 67 65 81 99 133 181 176 149 126 90 59 77 64 43 47 56 49 86
33 11 27 52 25 34 12 14 30 29 35 35 50 41 54 83 81 89 94 103 119 119 126 143 113 29 4 19 -5 14 60 62 80 96 144 181 196 161 112 87 82 76 76 71 53 49 69 93 119
52 57 10 27 48 43 2 -10 32 56 48 63 80 76 61 70 100 110 126 144 136 119 82 37 -13 -33 15 60 95 94 77 82 99 136 177 218 183 147 125 116 110 100 78 101 104 98 75 107 112
40 57 24 3 -21 -17 20 1 84 75 69 70 95 88 84 105 106 124 149 133 62 30 10 -34 -0 81 109 80 78 73 66 88 129 158 209 193 147 140 139 119 101 98 104 98 85 94 119 114 131
44 16 19 -1 -9 15 50 11 106 87 58 85 108 114 119 122 122 128 122 86 54 97 41 39 58 75 91 64 81 91 136 160 161 181 187 173 160 126 113 103 97 89 89 101 140 127 124 147 155
22 -2 3 -3 10 -10 47 24 25 65 60 114 102 112 128 116 113 104 103 99 121 101 89 93 107 120 113 110 131 168 175 151 120 150 159 153 140 131 113 113 100 108 132 143 143 161 147 103 91
-33 -57 -18 -11 -2 1 60 4 -4 98 46 32 68 86 99 94 94 92 93 59 88 112 106 103 120 152 161 181 186 174 156 162 147 187 174 137 122 98 100 144 144 163 168 164 140 105 101 62 63
-4 10 4 8 -0 7 26 -5 35 33 21 39 60 84 82 72 78 75 71 84 119 136 106 132 172 203 211 183 164 139 160 164 181 164 140 118 122 134 171 178 165 147 142 139 125 109 85 68 82
24 14 72 46 34 3 10 16 5 34 31 54 101 118 105 94 93 88 93 114 147 148 168 214 217 238 222 239 201 144 152 172 171 153 139 135 135 157 161 137 131 127 134 134 105 75 92 102 94
52 72 31 29 8 22 24 16 15 29 40 65 98 100 87 91 109 106 110 150 175 205 224 235 251 266 277 178 100 145 156 174 164 139 133 141 150 135 132 113 107 111 117 116 117 98 85 70 68
69 48 57 43 44 36 39 37 39 37 31 44 63 92 86 103 115 115 135 176 224 244 249 277 288 257 216 123 102 148 187 159 129 127 144 155 134 116 96 96 96 106 116 136 169 105 91 102 71
66 35 24 36 22 44 41 24 40 27 25 44 64 90 82 117 126 145 177 228 255 283 316 324 301 260 99 92 99 184 154 122 133 154 148 140 104 92 86 88 94 117 152 137 125 108 122 87 77

GFSSGP_con_3kmhel_042.txt.gz
Helicity
9 9 6 47 40 36 28 4 31 298 237 246 221 205 203 224 184 206 71 197 203 152 116 87 86 53 59 66 76 73 72 76 71 69 65 57 43 42 40 32 27 26 31 33 34 35 37 36 34
16 78 16 30 32 61 7 135 177 196 137 145 263 208 288 218 144 196 155 133 115 145 89 89 77 57 68 65 70 69 76 75 74 76 64 46 44 42 36 27 20 16 27 28 28 29 30 29 30
9 45 43 23 -10 56 16 87 182 -15 70 105 137 206 201 245 221 152 132 151 152 93 93 92 64 62 78 84 69 74 79 85 72 60 43 44 40 32 32 25 25 26 27 27 25 23 24 22 24
30 19 20 12 16 11 69 32 -98 145 182 156 115 141 76 142 174 98 39 93 178 178 104 64 57 64 73 67 68 75 87 76 48 36 38 35 33 33 36 34 26 21 20 12 12 13 13 16 16
9 31 10 -5 -29 -3 63 99 49 126 117 25 41 77 86 112 114 68 54 82 118 164 134 100 39 53 61 75 60 80 74 48 42 42 43 36 33 34 34 27 20 21 20 14 8 9 8 8 11
12 2 19 -23 -40 28 83 75 182 196 136 313 41 79 71 65 101 170 138 133 163 182 139 60 37 86 86 89 71 67 58 55 48 48 45 38 32 25 27 18 24 27 24 15 8 10 10 12 12
-6 -8 -13 17 12 45 92 202 261 131 109 -81 48 127 61 37 88 39 181 184 146 87 -11 10 44 94 101 81 73 60 53 54 52 49 38 25 17 22 24 36 31 27 22 20 17 15 20 25 25
-2 10 42 17 9 116 302 245 20 -1 -8 58 2 75 78 102 129 133 83 140 9 -27 -50 20 69 51 71 82 70 55 53 67 48 30 14 9 4 10 25 40 36 35 36 33 26 20 19 27 24
9 13 11 26 43 164 247 48 71 16 51 122 120 96 112 152 172 156 59 42 29 -61 -37 -7 -10 -13 45 57 50 60 55 40 29 6 -12 -33 -16 -6 46 50 42 40 36 31 30 22 19 61 53
8 4 34 49 9 -27 115 53 131 8 42 98 110 146 117 82 40 59 -27 -2 13 -180 -10 -40 -33 -45 -1 43 4 24 12 -10 -13 -18 -8 -16 14 47 44 30 41 38 35 39 24 21 60 75 85
-4 14 23 30 95 -40 -63 -103 44 14 125 65 65 67 78 65 46 24 9 27 -116 101 95 115 165 167 95 48 28 5 -28 -11 -17 6 19 12 47 22 60 20 26 19 14 63 71 87 128 89 85
15 -1 39 32 3 12 14 12 130 83 66 -3 64 91 71 6 11 -12 -22 24 114 43 41 79 96 72 45 -7 -29 -9 1 24 36 33 54 29 36 31 54 100 118 86 143 124 142 155 161 127 88
1 48 23 76 49 63 110 109 13 19 -64 238 -14 67 17 -10 -7 -6 -25 65 17 54 79 95 64 99 44 46 81 144 152 116 64 82 56 97 102 89 93 161 168 186 217 211 165 143 117 110 87
-15 27 32 36 38 66 78 44 18 -17 11 56 52 17 13 1 -13 48 44 76 48 119 138 101 63 49 56 201 229 242 187 109 88 66 54 65 80 89 175 196 213 207 140 149 141 127 108 89 73
36 50 70 46 19 104 53 -66 17 51 30 53 40 48 39 -11 39 73 124 165 186 149 126 81 73 137 255 241 211 242 239 145 90 40 44 104 127 212 224 184 174 166 144 121 122 107 99 81 56
43 9 -4 16 89 -9 88 -14 -3 -18 45 36 43 33 33 69 57 63 136 88 119 146 87 90 160 241 261 266 232 189 148 161 170 80 73 106 140 140 164 165 144 115 95 110 92 85 63 56 55
42 3 20 61 11 10 88 16 50 11 23 43 40 48 32 42 57 96 95 58 124 201 188 239 279 267 227 181 154 172 211 319 169 174 70 117 100 108 99 114 97 80 88 103 110 82 87 90 80
32 66 54 -13 42 -16 70 32 52 28 32 51 42 36 36 57 55 100 50 65 91 318 371 262 244 239 219 208 207 174 185 186 163 105 75 54 53 58 53 69 71 37 81 101 91 57 40 42 57
47 14 35 -12 59 -2 13 53 80 36 -3 60 54 61 57 86 58 126 91 59 145 362 273 218 241 208 203 205 175 96 96 143 106 77 43 28 49 81 98 159 106 96 106 121 97 116 119 86 97
55 -26 75 64 40 18 -9 -2 88 49 40 52 70 99 78 74 96 188 99 104 208 331 295 279 273 181 116 109 70 88 120 96 71 54 44 68 104 113 77 130 171 197 147 123 163 169 132 144 151
37 62 82 103 1 5 -2 7 107 57 17 11 61 68 94 108 238 200 121 100 145 328 295 260 236 130 26 101 87 129 116 76 98 123 91 172 123 117 140 159 168 150 157 160 143 137 140 185 168
35 86 -22 -18 25 -12 53 -14 115 53 44 23 13 86 105 90 219 227 143 150 195 274 224 170 128 85 57 93 105 152 120 122 97 125 113 198 150 145 172 198 182 170 158 139 140 154 152 172 195
2 7 43 17 17 43 36 -60 20 149 71 -7 26 44 55 93 193 210 213 214 109 184 149 99 47 90 153 80 164 115 101 207 235 237 355 310 171 178 121 122 165 223 235 218 192 183 188 199 220
-25 -20 23 1 26 112 125 128 158 88 138 -30 -27 73 58 165 170 170 253 264 162 137 101 69 77 145 238 140 205 136 200 294 290 298 303 163 250 276 258 317 320 274 237 196 164 149 145 145 167
-8 -3 14 50 -61 9 -7 34 15 78 43 121 56 144 95 138 205 178 228 215 200 166 99 110 143 286 274 201 201 238 306 337 362 316 277 165 278 276 289 277 223 183 160 147 146 149 152 156 171
52 6 -25 31 13 23 66 -11 64 170 111 113 184 170 149 190 179 185 217 221 243 211 199 167 174 304 255 236 251 321 365 284 239 162 255 240 260 260 247 213 192 164 150 140 134 139 138 136 186
39 20 6 1 17 -12 -0 21 108 96 102 82 126 120 158 132 151 173 206 261 250 204 186 132 171 258 299 271 382 446 327 281 297 373 305 172 232 202 223 191 160 142 143 132 124 133 147 195 186
25 35 12 2 18 11 24 -17 196 71 70 40 82 106 139 121 136 143 200 249 223 183 176 139 216 348 345 473 467 379 302 358 334 303 116 228 211 203 163 157 150 147 129 139 199 177 188 200 171
13 -20 19 34 34 42 34 48 66 58 47 43 41 118 149 144 163 178 214 236 220 220 256 218 236 401 527 533 415 394 396 351 261 116 208 206 203 165 157 147 145 141 183 206 190 183 162 214 218
76 68 -0 63 36 74 57 29 36 42 48 35 34 102 157 170 150 202 222 286 252 293 340 334 266 410 493 482 440 365 399 190 195 156 195 197 186 156 140 144 133 162 225 193 153 160 169 157 147

GFSSGP_con_3kmhel_045.txt.gz
Helicity
-3 15 48 56 80 97 69 21 34 96 142 159 93 -10 89 141 158 197 183 178 176 161 189 123 174 121 91 72 63 67 69 74 73 72 72 61 42 37 29 18 20 26 34 36 39 40 40 45 55
7 32 85 82 73 82 58 36 29 28 127 160 131 59 87 59 101 213 240 137 135 226 185 144 138 102 80 65 61 63 69 72 72 74 65 45 44 35 32 31 33 37 40 40 37 35 41 52 51
12 23 61 61 38 68 5 36 21 -12 56 124 124 129 123 99 142 180 138 133 177 210 163 148 134 93 65 62 64 72 88 87 68 58 43 47 42 35 41 43 37 32 30 21 20 20 26 44 71
40 55 58 42 -10 26 67 60 27 132 122 128 108 126 127 112 95 134 152 123 224 223 154 119 87 68 54 54 80 87 106 66 50 40 43 44 42 38 38 34 30 23 24 25 22 18 16 22 42
58 70 64 24 4 55 52 40 112 203 205 149 78 107 118 120 183 177 220 136 184 171 123 68 67 54 53 69 81 90 82 42 38 50 42 36 35 34 33 33 32 30 31 26 22 14 6 6 18
73 71 73 -8 44 14 219 316 296 316 184 103 96 87 57 105 242 194 209 203 269 154 99 121 79 50 27 82 80 82 57 45 48 40 40 37 38 33 35 34 29 30 27 24 21 9 2 5 17
50 61 23 75 63 19 159 167 266 139 50 85 143 155 82 173 126 150 193 236 406 429 232 117 107 -10 68 67 72 71 59 41 32 39 32 23 26 34 34 29 32 32 33 32 21 11 14 15 17
47 81 111 75 36 35 93 109 207 148 -1 35 50 96 114 146 139 125 138 121 97 228 152 38 -51 68 73 63 78 68 43 29 30 21 4 7 23 25 30 25 26 35 34 28 21 17 38 33 16
4 90 60 63 -5 -43 -32 54 90 9 133 82 144 177 175 165 190 189 230 266 158 33 -64 -60 12 31 48 29 48 50 31 18 18 1 -1 16 -9 -3 12 25 36 34 35 29 12 29 55 50 34
19 10 13 -39 3 -35 -63 -10 -83 -24 -39 123 193 176 165 193 236 212 201 259 103 -61 -78 -64 22 7 36 32 41 17 1 -21 -9 -11 -23 -41 -16 2 5 13 28 39 55 50 42 60 71 85 74
66 66 50 -6 -1 -9 -18 90 109 90 54 169 111 52 86 172 150 173 106 78 -120 -52 -114 -27 -21 -22 38 14 -20 -40 -33 -14 24 -0 -8 -15 -11 28 31 40 6 65 65 106 127 124 114 118 97
50 35 63 85 26 17 59 11 25 12 31 63 133 72 18 17 60 69 41 -69 -195 -111 17 41 31 -14 -6 -17 -36 -34 -29 1 54 61 49 40 30 59 63 90 124 243 176 192 158 128 115 109 107
8 39 -31 44 21 22 212 180 63 -15 7 63 153 56 16 -12 6 45 -54 -63 -25 47 101 109 79 23 -7 8 54 95 123 142 127 100 106 77 131 135 148 199 214 216 200 178 157 141 133 125 111
13 6 14 42 52 73 133 117 72 3 68 51 -38 -65 -73 -28 58 70 16 28 135 126 92 139 108 68 209 197 249 258 246 173 125 113 121 112 107 204 199 206 212 175 161 161 146 136 119 118 100
78 67 69 74 78 95 73 118 -39 -20 62 40 -7 -53 -79 40 93 -26 -90 197 186 119 71 96 124 212 233 268 276 217 160 112 125 200 169 153 131 176 212 198 173 135 135 128 137 123 119 108 83
65 39 32 18 68 73 85 23 -14 45 102 32 -3 -38 -37 22 134 102 230 261 218 150 93 97 164 216 229 234 238 203 187 167 149 210 177 163 113 155 194 169 153 128 116 107 98 87 63 62 85
61 29 -1 13 -7 43 45 -13 48 32 95 50 44 -11 57 148 170 181 232 258 268 178 181 261 235 222 214 190 186 191 194 207 158 187 166 37 64 117 172 141 104 111 108 101 71 57 50 57 47
52 29 19 44 -6 126 12 -14 -46 65 116 63 46 7 50 93 143 162 203 255 276 336 326 314 268 249 231 234 233 237 198 160 112 120 80 91 178 148 108 81 70 122 98 86 61 69 63 45 22
-3 60 33 35 31 64 67 72 114 97 101 100 103 75 61 79 135 157 181 290 397 433 405 359 300 271 281 245 229 184 129 82 109 77 97 113 100 109 74 65 64 91 113 82 84 70 64 46 54
12 3 37 98 22 51 17 60 96 56 155 153 130 109 121 126 215 196 240 340 466 446 408 331 291 244 221 199 165 110 120 104 107 77 76 89 88 100 132 142 144 121 95 112 104 102 95 90 95
42 -8 -19 44 113 43 -11 -5 69 28 71 130 143 159 208 299 317 327 336 356 449 445 450 296 274 165 170 143 109 145 132 181 151 100 95 84 125 117 89 114 132 109 107 110 102 101 109 126 115
-19 -23 65 22 41 26 27 -13 -50 9 66 194 147 190 226 230 292 352 362 364 376 419 341 253 193 139 145 100 156 165 175 195 137 116 132 184 175 156 83 167 155 145 148 166 144 149 138 148 152
-32 39 41 -1 -5 12 23 75 -2 109 -13 55 50 185 241 254 405 427 431 509 446 478 319 162 128 98 158 78 161 145 151 164 197 193 228 247 216 172 97 293 304 289 261 228 202 173 154 154 173
8 22 27 36 7 58 13 149 34 -33 76 157 172 -95 74 236 350 351 288 382 320 289 187 94 116 119 74 125 184 157 212 280 343 351 340 278 227 376 439 367 327 309 288 239 196 177 166 154 165
76 42 65 76 15 -67 39 51 135 12 14 78 88 -29 -19 103 207 254 340 325 353 349 235 197 120 125 142 197 219 266 339 390 410 353 334 370 468 449 343 262 270 221 184 168 163 153 146 147 167
62 20 49 65 24 65 49 26 -3 40 -29 -15 41 30 -47 136 237 340 404 375 365 323 221 191 191 262 276 321 352 395 426 425 409 422 463 503 414 322 231 178 182 172 162 148 145 144 163 184 187
45 86 47 53 16 49 11 23 141 133 105 94 70 123 225 274 270 298 333 377 332 280 237 237 312 339 382 380 415 467 460 427 409 485 442 440 390 371 231 210 174 148 144 165 199 176 167 178 189
30 -21 20 40 24 7 40 20 58 102 18 107 136 162 204 214 216 257 345 393 373 386 277 255 286 346 375 444 493 529 475 445 430 536 401 369 285 278 270 197 165 150 184 211 184 164 143 191 199
18 38 51 50 67 27 42 57 12 24 45 37 78 164 191 200 193 235 325 396 414 390 308 217 249 372 456 522 541 551 539 501 390 401 487 427 229 207 197 166 154 144 188 170 153 141 154 182 173
30 21 37 79 40 58 40 23 46 78 58 61 28 133 214 250 237 261 339 394 423 395 327 246 313 450 518 546 596 568 526 365 405 378 390 298 193 201 177 160 137 128 187 184 159 135 154 161 155

GFSSGP_con_3kmhel_048.txt.gz
Helicity
24 24 43 90 97 95 72 45 40 59 76 90 88 101 111 138 125 141 83 82 128 140 121 156 149 197 126 106 100 79 72 77 77 71 79 83 58 44 37 33 30 33 46 63 68 73 82 112 142
23 28 67 87 86 71 30 38 49 42 62 26 78 69 119 111 88 74 125 90 156 167 166 198 254 217 128 101 77 68 68 68 83 82 86 75 56 48 44 36 36 42 51 60 66 82 85 93 103
34 39 60 71 49 24 12 2 -10 7 23 75 66 98 57 52 29 10 71 165 197 212 235 221 214 160 117 86 78 69 64 69 81 87 63 50 44 41 41 40 42 41 46 49 60 78 113 119 103
56 75 84 46 -17 19 30 31 18 97 141 134 83 126 106 87 97 86 154 210 251 233 233 196 190 142 100 83 61 53 71 81 81 68 38 40 46 45 41 36 36 40 43 46 48 62 80 105 124
70 72 67 -5 15 15 18 68 215 178 147 120 66 59 106 117 174 236 212 208 231 293 217 158 142 130 86 59 49 51 72 65 48 42 29 39 44 43 43 40 40 43 38 41 49 51 54 64 76
61 62 46 8 8 12 -17 55 227 260 233 92 85 125 78 110 182 260 311 229 275 265 177 144 100 57 63 40 19 70 60 49 38 30 34 31 32 35 42 49 48 45 43 42 49 42 43 55 59
39 32 6 56 55 35 56 120 116 168 195 97 102 82 87 112 140 206 217 262 130 117 146 233 285 137 5 20 59 49 33 23 18 16 15 20 25 32 38 49 53 53 48 43 51 56 50 42 52
32 35 30 49 71 33 -104 -22 -66 -6 -21 39 31 49 70 98 183 215 233 222 337 208 182 135 225 15 16 30 42 31 15 19 10 2 10 16 21 26 38 49 50 49 40 64 78 64 61 63 49
50 17 38 57 82 34 22 -18 35 57 170 136 124 102 158 199 197 234 205 223 225 156 68 96 34 -29 -29 21 6 12 8 -9 -5 -1 -0 6 13 31 41 39 50 53 61 87 91 93 90 88 83
20 -11 39 31 -2 -50 7 -19 24 45 155 105 179 239 187 148 207 173 141 166 175 72 30 -103 -97 -31 7 -0 -23 -33 -27 -24 -4 -17 -11 -0 9 26 41 50 78 81 100 104 119 136 134 112 87
30 11 54 50 30 -10 -6 -43 -2 27 8 27 99 216 238 159 180 96 -48 -58 -67 -103 -123 -92 -26 27 12 3 -25 -36 -0 3 -18 -9 3 14 12 72 55 82 68 86 136 130 138 129 123 128 106
72 64 77 33 79 10 42 1 12 8 23 171 200 169 166 170 104 4 -48 -34 -67 -82 -51 1 23 11 -9 -20 -11 7 14 17 9 31 -13 -3 14 51 85 105 119 146 131 161 139 126 128 127 116
66 95 9 5 115 106 92 42 72 34 91 150 161 71 100 91 65 -47 1 -60 -114 -63 -18 17 23 -4 -12 37 24 8 55 46 69 70 105 92 102 118 122 151 188 193 155 148 139 126 132 127 114
41 111 -17 120 83 64 92 19 11 -28 82 83 128 -9 93 153 96 -32 -56 -53 -40 -53 5 43 12 -33 7 33 44 64 65 72 87 120 131 157 193 183 175 182 191 203 192 144 123 116 119 112 101
58 29 50 85 144 49 96 33 37 57 45 115 31 51 25 119 92 13 -59 -7 30 40 96 85 65 70 98 99 94 90 102 90 122 133 153 206 221 220 206 195 218 202 179 158 129 120 102 116 100
77 52 40 20 106 54 -14 -27 2 24 82 53 -28 21 42 58 100 17 35 13 23 106 199 192 153 157 160 155 161 159 147 151 159 166 164 209 226 219 196 164 178 180 166 112 105 79 85 49 20
76 61 33 11 37 7 30 -15 10 68 75 8 -2 13 4 71 152 143 126 120 61 146 256 236 212 211 206 200 204 197 188 201 176 170 179 199 203 151 126 146 177 196 142 116 87 58 12 13 21
74 36 56 20 3 52 57 -7 102 148 93 43 -2 11 105 153 168 177 196 192 175 148 173 240 207 220 237 249 261 248 236 212 180 147 142 136 133 129 145 203 180 137 130 117 68 34 38 22 16
106 52 13 7 -2 6 102 -15 40 185 118 98 7 86 172 163 174 172 223 258 220 141 175 216 245 224 264 252 250 224 221 180 135 108 131 135 130 135 160 158 145 126 97 54 46 43 34 43 29
-20 11 101 127 54 7 47 -14 81 229 200 197 69 115 175 176 203 196 230 295 302 267 199 213 222 216 206 227 236 215 191 114 77 115 137 136 129 128 139 121 65 62 69 71 70 72 71 48 54
-29 -5 58 72 26 75 60 71 53 25 59 117 162 125 144 259 312 323 341 363 323 332 270 243 227 223 206 226 261 267 239 162 168 151 118 102 112 113 124 92 122 65 115 89 87 85 89 74 64
50 -16 51 8 42 58 58 44 4 -13 60 135 161 141 153 236 331 422 470 420 415 391 329 320 289 225 217 232 253 268 216 249 144 137 136 153 134 136 129 135 159 129 163 171 121 109 84 85 94
68 -26 -4 19 45 28 20 20 21 -10 20 125 152 157 224 305 409 478 516 506 508 527 448 348 314 220 187 223 223 186 177 194 189 203 192 169 162 224 312 325 264 278 256 187 171 145 131 99 106
21 -18 56 49 26 17 65 45 -21 51 162 94 191 192 238 274 278 383 425 487 499 380 337 348 314 207 142 187 163 146 186 205 235 263 245 227 403 426 440 412 361 357 279 227 196 167 154 157 150
9 39 54 63 59 2 73 12 -39 -4 26 109 198 250 135 236 275 420 454 482 434 389 349 276 228 185 163 165 128 120 180 226 244 284 309 423 541 488 411 372 257 252 216 174 153 163 168 165 165
-11 31 60 42 26 31 42 42 39 8 13 10 1 118 163 156 180 335 467 464 387 352 326 245 217 169 167 156 143 159 234 282 332 413 481 566 568 608 290 545 288 239 144 140 137 128 134 158 153
44 9 33 81 74 64 25 62 39 72 54 11 -28 54 31 84 176 257 355 408 382 333 278 259 191 173 194 205 259 331 383 469 462 501 536 591 446 484 323 394 297 186 102 112 122 123 142 131 122
63 20 46 89 24 15 38 62 28 47 8 30 6 7 78 91 180 231 284 358 319 265 244 202 174 243 286 373 466 478 483 489 498 537 505 548 405 391 481 346 169 163 108 113 131 121 118 121 141
65 32 56 58 67 24 33 65 8 -4 20 25 -4 8 110 147 153 154 193 226 261 258 260 239 300 335 402 420 489 509 486 538 565 552 610 334 274 428 344 132 232 134 106 124 131 117 113 109 128
20 11 16 77 53 69 55 31 37 24 32 59 58 66 92 152 154 182 234 285 291 308 355 388 382 388 444 510 533 573 660 574 551 529 400 227 315 420 167 231 208 124 115 118 111 107 113 107 129

GFSSGP_con_3kmhel_051.txt.gz
Helicity
52 51 59 112 96 98 81 63 37 64 65 68 49 71 96 159 95 107 70 166 190 192 143 174 155 177 181 161 176 125 96 86 88 90 109 115 86 62 50 42 42 44 61 94 111 124 110 104 79
47 46 86 93 87 76 48 27 31 48 53 39 78 90 124 88 130 82 149 161 182 173 144 179 181 207 197 287 153 101 81 76 74 85 97 84 60 46 47 43 49 58 75 110 120 131 130 107 75
39 57 82 87 53 0 19 38 65 57 100 56 27 98 79 99 114 93 151 152 164 156 158 184 187 190 197 173 116 83 71 68 52 78 82 60 57 48 47 53 63 80 91 96 99 100 111 108 63
46 83 90 41 5 32 33 47 25 74 98 88 79 53 74 81 38 50 86 132 162 176 164 170 176 210 174 133 105 81 55 61 65 83 61 60 53 52 56 65 74 65 70 85 97 109 90 89 84
72 72 51 17 36 35 24 14 35 133 144 154 62 43 23 73 127 119 155 160 172 226 170 214 187 166 118 89 77 60 52 52 69 43 48 45 50 52 54 57 55 60 66 68 68 75 94 83 78
83 59 49 21 41 61 45 3 61 63 52 129 76 68 52 124 142 180 220 278 266 255 208 211 153 117 107 94 55 35 27 81 36 27 40 47 32 42 54 51 53 53 62 67 73 65 61 78 65
45 55 0 50 63 53 60 -2 4 24 40 13 51 37 58 92 103 179 253 288 425 290 336 245 204 99 75 37 39 -3 57 27 18 5 17 33 29 42 45 50 62 67 78 73 81 90 75 67 82
31 41 22 31 112 69 -15 16 4 43 57 114 91 51 65 95 168 242 252 294 204 99 191 263 191 222 71 32 10 54 26 11 -28 -8 9 20 36 35 46 69 83 99 95 105 108 114 109 86 88
18 41 30 32 24 41 15 42 18 24 60 134 60 120 147 173 198 230 255 272 305 263 298 212 198 234 117 -16 -19 -5 -13 -3 -5 -15 14 32 39 68 84 86 131 120 112 114 117 116 109 96 84
20 50 -3 21 28 9 44 14 -49 7 141 201 239 177 192 161 155 178 177 182 217 179 107 77 295 176 -7 -58 -53 -16 5 -4 -39 27 31 68 78 80 95 118 113 111 115 154 148 133 132 100 60
3 2 12 48 64 38 9 -46 -34 5 18 82 131 147 148 137 59 74 100 173 173 184 40 -30 -55 -178 -120 -11 27 7 -24 -61 26 11 63 74 92 104 102 89 86 88 129 131 129 125 113 110 97
49 76 85 42 36 43 5 -9 -35 -31 -37 135 189 186 147 92 -3 -48 -4 -20 -87 -126 -123 -135 -76 -52 5 2 -16 -12 -33 -1 15 12 48 55 88 104 95 86 90 115 124 160 154 139 115 129 121
72 97 46 26 20 32 28 -14 19 39 132 222 196 118 99 -33 -118 -45 -48 -60 -20 -70 -29 11 27 47 16 -2 -14 -32 -27 -2 24 -8 14 48 72 92 116 152 143 152 153 157 185 150 130 114 109
57 44 5 38 1 17 29 14 35 78 166 131 103 67 -11 -68 -74 -38 -56 -52 -20 -8 6 34 40 20 10 20 -5 -4 7 47 46 48 46 78 115 149 170 184 198 188 170 175 186 153 113 107 116
29 27 46 22 5 24 37 -3 42 141 85 107 68 52 37 -55 43 67 20 15 14 -3 -9 35 52 49 64 51 21 12 36 76 83 82 101 124 167 205 207 224 218 202 196 210 185 146 118 130 93
49 22 48 -17 32 30 52 -26 66 88 127 71 93 78 39 73 19 -8 -40 -23 20 60 87 80 60 59 43 30 24 41 69 97 105 101 130 167 199 232 257 262 215 198 214 189 142 101 113 95 55
63 37 25 2 20 22 42 -23 51 106 121 124 112 113 61 81 21 -2 -62 -52 41 74 107 83 64 71 38 33 66 88 119 109 110 140 168 188 218 235 257 231 204 206 185 137 95 90 54 16 7
81 96 52 39 27 21 3 40 52 56 97 147 142 130 138 133 107 40 12 -25 -7 -7 47 90 68 72 79 112 142 151 162 165 159 166 173 194 211 231 256 228 202 160 144 114 90 57 9 23 12
86 127 43 77 6 -32 -27 29 70 101 126 85 99 109 127 121 105 109 79 46 45 68 90 162 149 139 174 208 227 214 204 211 190 165 161 178 218 222 218 188 154 138 148 124 71 10 36 35 4
57 62 59 6 35 -27 9 32 8 111 168 160 125 69 60 58 103 135 116 88 123 143 156 196 190 230 209 228 238 223 235 218 202 178 163 189 195 190 178 154 135 134 161 114 77 30 38 33 29
18 -4 32 78 41 8 17 30 51 71 93 59 85 89 91 180 166 187 208 198 162 180 214 228 199 220 230 232 293 276 300 266 236 206 193 183 158 152 137 132 150 165 116 114 77 66 82 64 40
23 -6 22 57 49 17 25 48 38 85 163 131 134 129 112 147 176 232 236 224 237 235 223 221 224 217 196 257 276 315 296 295 200 197 196 175 150 138 159 205 200 166 163 136 113 148 82 51 103
37 30 6 28 55 33 49 42 22 12 62 123 172 191 215 208 261 266 299 268 249 269 298 238 251 239 222 279 243 257 253 183 144 215 206 193 187 230 231 253 283 235 187 169 142 185 152 93 75
-3 4 22 53 30 -4 7 13 -1 7 76 163 229 228 254 280 285 269 265 302 299 353 331 274 312 286 252 343 280 250 233 174 184 238 240 240 276 311 316 322 363 407 202 316 258 181 180 115 102
-12 35 43 37 24 -38 23 17 0 10 4 61 198 295 280 360 394 407 420 445 445 419 350 342 284 254 263 319 311 218 161 152 187 229 245 333 376 351 377 459 405 306 250 391 424 233 219 150 129
5 23 46 30 35 21 29 14 16 12 -3 40 15 129 222 316 358 430 512 494 475 481 363 358 293 239 253 249 189 127 130 152 165 212 304 359 424 474 550 471 528 471 397 260 236 179 209 127 125
41 53 32 84 81 46 33 32 42 50 39 62 35 70 126 160 227 334 372 389 443 467 356 332 312 244 206 222 152 109 151 186 204 251 362 518 623 627 726 443 282 297 342 326 146 196 146 113 111
63 58 90 88 68 38 39 43 11 48 44 49 31 0 2 61 127 160 235 270 322 335 294 270 244 237 222 214 184 214 232 228 338 476 599 636 599 727 394 421 293 320 350 145 190 187 99 84 95
126 132 115 83 74 53 35 24 -12 30 56 43 21 21 28 25 31 61 118 178 273 306 284 253 245 247 243 258 315 367 410 466 512 545 713 780 650 433 195 289 228 336 302 209 205 154 103 169 158
84 95 122 114 71 85 87 35 38 4 -7 20 16 28 15 29 55 87 126 200 245 269 261 262 228 235 272 322 371 443 555 594 709 709 639 645 381 328 356 270 216 273 258 262 173 158 201 193 133

GFSSGP_con_3kmhel_057.txt.gz
Helicity
44 52 52 58 52 87 81 60 45 63 55 52 97 75 73 64 80 109 23 52 110 216 219 172 187 180 203 217 240 242 208 159 133 155 169 145 114 111 105 87 71 62 62 42 32 36 43 48 53
50 55 59 60 57 69 49 40 22 51 39 60 44 106 144 86 14 32 -12 12 110 207 188 148 174 171 198 211 210 176 124 106 136 165 159 143 121 112 97 87 71 65 65 56 42 40 47 54 54
47 59 41 49 56 42 26 43 65 50 36 45 68 78 65 37 54 -16 27 58 107 182 189 135 184 189 192 161 132 115 108 132 145 158 152 133 112 110 92 82 67 53 44 50 45 46 53 63 60
45 55 53 45 6 19 28 40 38 8 12 61 58 65 47 55 91 100 51 68 109 140 179 181 208 222 161 140 144 133 128 139 165 128 149 129 108 98 74 59 60 56 44 37 48 57 65 61 53
61 52 45 2 9 22 6 16 0 -4 9 35 17 26 59 31 66 91 116 105 119 226 102 168 174 215 203 171 153 162 122 175 134 111 154 115 81 82 61 48 45 53 66 68 64 63 54 55 55
55 39 24 -21 16 15 26 11 32 -2 1 3 39 55 65 22 71 112 121 172 210 257 275 212 163 302 187 263 177 171 157 153 79 156 103 100 81 79 57 40 42 63 75 83 76 75 61 51 56
52 36 4 15 26 47 36 5 1 21 8 17 28 27 53 67 111 106 148 147 204 326 309 287 672 665 375 218 131 129 141 80 111 99 136 101 112 73 55 53 54 53 72 93 81 85 82 66 60
61 38 16 3 46 54 20 -1 9 21 13 32 38 13 30 75 131 158 165 197 197 217 282 219 175 47 132 49 36 144 123 74 58 116 149 121 94 82 88 91 86 85 91 78 101 84 72 81 86
49 30 31 19 40 46 31 -11 -4 31 21 45 50 35 71 136 148 209 225 222 178 222 277 387 459 398 237 384 71 47 46 41 108 144 120 107 66 68 50 84 103 115 117 127 106 105 124 117 92
33 18 14 13 13 30 50 -16 13 15 18 18 25 66 130 102 116 158 157 188 214 194 186 167 225 328 473 523 224 168 30 73 106 100 97 79 68 45 72 84 109 136 145 124 109 119 113 61 37
29 12 5 39 79 10 -36 2 41 17 -22 -5 0 89 120 102 102 135 158 176 175 148 144 175 267 232 236 202 82 -95 -33 35 70 75 94 85 78 63 68 64 73 77 87 79 98 90 65 46 42
27 30 36 76 9 4 8 21 13 18 -9 -24 73 117 115 105 98 61 103 101 98 115 100 136 105 40 -35 -23 -110 -55 -18 32 73 80 69 65 64 55 50 70 69 82 83 109 98 80 66 76 60
22 1 10 39 19 5 39 33 26 29 8 62 106 100 79 64 67 48 119 70 52 3 -33 -20 -7 -65 -107 -69 -54 -36 27 69 75 27 50 46 56 64 76 87 95 108 117 100 91 91 89 64 67
26 24 32 18 28 56 63 50 25 17 40 41 51 41 18 28 -11 17 -43 -81 -65 -51 -100 -201 -176 -105 -12 31 -21 -22 -11 -27 -18 18 56 41 50 82 92 111 127 139 118 116 112 94 69 71 67
21 12 18 14 63 60 43 16 5 56 25 31 -24 -79 -3 -22 11 -3 -21 -60 -74 -109 -130 -163 -9 -3 -33 -45 -31 -13 -46 47 53 43 -7 9 40 83 117 145 141 155 156 157 127 94 85 86 87
30 34 1 12 18 5 1 -16 27 52 28 12 -29 -53 -5 31 42 22 -1 4 -4 14 -21 -28 -20 -4 -23 -39 -47 29 12 18 31 16 -6 19 64 116 145 162 161 175 179 152 126 112 106 101 93
53 39 29 29 15 25 12 33 46 80 49 9 3 -37 -21 -3 20 21 30 37 74 17 22 38 18 15 9 8 7 -9 -10 -12 9 26 39 54 93 132 151 156 177 201 187 146 127 123 108 115 116
27 31 54 34 9 4 17 76 65 120 75 39 -3 3 5 -1 19 32 40 31 29 33 17 12 13 25 25 13 12 -1 -28 -4 17 27 41 70 92 123 135 168 203 204 184 159 136 139 156 130 92
34 38 38 37 24 10 37 47 58 104 61 65 70 53 27 22 25 37 61 35 29 33 32 26 16 6 -1 10 -3 -15 8 24 36 49 55 73 106 140 154 199 227 202 171 165 174 173 139 111 86
29 46 40 56 49 0 -22 30 11 119 124 127 123 88 42 25 7 12 28 33 50 78 97 65 46 30 32 24 29 36 47 39 59 97 100 100 132 148 164 217 220 215 219 205 175 155 145 136 95
8 35 38 29 29 -1 -6 22 24 16 42 62 57 113 59 21 0 -9 8 30 18 28 61 72 57 47 52 57 81 106 105 76 94 118 127 123 103 131 160 205 227 238 234 216 213 212 177 124 103
-34 14 26 13 3 24 50 38 29 -1 37 82 68 34 72 68 7 -17 -1 10 5 -21 -22 9 38 47 59 85 97 127 128 129 139 180 170 136 132 163 187 223 259 255 268 283 262 224 184 152 103
-21 20 35 13 13 34 39 26 30 25 9 60 117 96 37 36 50 8 9 25 12 -18 4 24 47 72 91 127 131 160 156 148 164 208 175 179 160 177 228 254 272 294 275 247 257 251 252 171 142
23 43 50 45 58 8 44 20 6 15 26 16 20 118 119 33 28 26 12 0 10 30 53 67 78 82 105 129 161 147 122 153 188 210 234 205 215 208 229 250 257 283 300 344 366 367 190 61 115
20 43 34 39 34 -5 39 14 -6 30 9 -3 9 1 94 116 29 30 32 45 50 91 91 91 99 102 141 170 196 178 196 202 213 231 246 232 251 239 237 255 303 338 391 411 433 480 110 147 153
22 25 39 43 46 40 26 18 26 17 6 7 18 26 2 57 43 47 63 72 90 120 135 141 142 156 205 229 244 199 187 249 221 221 259 217 232 205 252 304 358 498 496 593 383 229 94 207 295
67 64 65 86 60 45 42 22 1 19 14 27 56 62 35 18 28 23 30 68 91 148 185 194 173 166 216 250 294 245 258 230 233 242 200 126 149 240 322 371 412 516 529 322 301 280 260 276 214
76 61 75 74 30 15 24 30 21 22 31 47 55 49 53 29 44 47 43 58 72 103 155 171 172 172 186 201 251 280 250 218 238 239 161 170 236 286 325 420 501 500 382 275 288 250 289 212 108
91 81 94 70 81 44 61 33 20 2 20 40 30 9 -3 -6 3 29 50 54 72 87 108 136 157 155 162 173 183 189 189 183 212 195 201 229 307 282 453 500 414 390 257 229 261 230 181 98 147
60 106 115 97 55 108 112 58 58 10 22 23 -3 4 -1 -12 -10 5 11 25 34 34 59 85 94 110 126 142 166 167 176 191 186 223 322 380 464 334 394 439 409 402 252 394 162 131 102 145 163

GFSSGP_con_3kmhel_060.txt.gz
Helicity
33 22 21 6 15 41 -3 31 58 22 49 85 49 133 93 98 119 122 32 1 50 101 176 176 188 172 178 201 222 229 215 191 165 150 127 139 113 91 71 44 36 19 19 27 28 36 38 38 32
29 33 23 9 18 12 9 73 15 83 77 64 74 90 90 77 105 58 15 -38 16 100 191 186 194 185 190 214 214 205 188 180 166 152 154 154 114 97 74 64 46 22 13 20 21 31 34 31 28
22 20 2 8 -0 -15 34 51 69 67 26 42 71 103 77 71 45 55 16 1 29 128 163 226 203 183 190 192 188 188 197 193 166 156 165 155 122 100 89 67 57 39 18 30 31 34 29 30 28
22 40 30 -1 -13 16 12 42 44 46 15 30 41 57 44 66 79 56 50 59 31 139 178 225 219 201 192 186 194 200 192 170 169 178 165 145 122 91 78 52 52 47 43 37 31 31 37 30 30
22 31 2 -7 -10 9 11 18 19 18 22 26 26 60 49 33 100 78 138 59 101 214 196 226 257 194 192 186 181 186 180 165 161 174 176 145 105 105 72 74 64 51 44 36 43 46 41 36 28
29 15 5 -12 27 21 18 12 -12 10 19 29 33 65 51 55 81 111 167 174 237 269 164 208 173 230 192 225 165 126 147 159 162 176 147 151 105 95 84 79 78 73 58 58 50 44 38 33 26
-11 11 -17 3 19 29 38 16 -22 5 25 26 37 47 65 82 83 108 134 162 210 277 460 625 847 761 555 368 196 66 136 153 188 177 115 150 116 89 80 79 85 90 83 72 63 57 53 37 29
6 11 -17 9 21 28 25 8 31 3 10 60 31 30 42 71 104 122 138 164 248 320 301 401 517 385 37 3 120 54 101 164 244 161 136 143 103 80 75 72 69 73 78 72 75 81 46 29 43
23 10 -5 19 24 31 18 10 9 29 39 35 57 43 80 143 98 131 164 160 209 175 242 351 313 266 475 39 42 29 -0 137 116 114 106 58 47 44 9 89 67 88 99 99 86 67 44 59 71
-1 3 20 16 34 52 14 -9 -1 78 25 38 81 78 107 129 92 111 155 146 206 265 299 292 235 267 200 132 202 135 -14 -1 44 100 71 63 42 24 61 78 106 115 112 95 78 33 -10 -10 18
22 -5 14 23 18 31 21 -21 17 32 -25 4 17 107 118 89 108 135 148 164 163 193 214 245 217 121 165 289 239 136 54 1 -37 49 36 59 47 59 45 53 67 60 63 55 30 14 49 57 34
-0 22 29 37 24 13 18 16 6 2 48 7 49 112 94 106 91 109 118 164 156 173 128 129 115 190 253 250 171 143 162 -10 -43 -29 55 51 58 44 41 33 40 39 29 55 52 75 82 59 37
26 10 -12 26 14 11 9 3 29 26 41 73 119 120 102 71 51 40 84 147 133 157 174 155 140 71 41 10 39 5 -80 -37 -43 30 70 49 30 42 38 46 42 47 57 72 87 71 58 41 40
14 7 -12 18 -2 3 1 21 23 50 70 82 95 108 40 33 5 61 97 65 77 68 57 -2 -36 -73 -57 -70 -73 -63 -50 -18 -0 -9 -16 27 36 40 43 57 59 64 72 91 74 64 51 56 60
5 20 10 11 22 26 8 19 15 47 57 58 41 -37 -31 -38 -26 -32 -1 -27 10 18 -23 -47 -78 -62 -58 -32 14 -2 -11 -12 -23 -24 53 36 34 37 53 66 75 84 102 104 97 77 71 68 71
-2 -11 22 57 27 29 -2 16 26 46 48 54 18 -3 -17 5 -4 -7 -22 -30 -32 -15 -50 -63 2 13 11 1 -23 -30 -60 -51 -58 -32 3 29 39 51 73 82 90 103 124 116 95 74 83 86 83
19 12 11 53 22 17 -10 25 40 55 50 59 26 27 16 40 20 -3 -6 -5 -22 -24 -4 1 -8 -19 -21 -38 -51 -56 -28 -50 -23 5 3 19 42 65 85 87 97 126 140 126 98 101 96 98 85
14 7 11 13 37 -6 6 20 36 63 61 44 35 30 20 24 21 7 10 4 -0 9 -9 -11 -13 -13 -31 -67 -68 -74 -63 -52 -18 -3 18 37 49 66 83 90 120 132 146 137 127 134 114 105 106
13 4 -11 40 61 11 17 28 8 60 48 64 33 39 29 23 7 9 -1 11 24 36 27 23 8 -17 -58 -66 -57 -51 -30 -9 7 22 25 54 60 67 92 100 125 139 151 169 156 162 141 136 127
-15 2 22 52 65 9 8 33 28 27 50 20 8 22 41 38 38 26 29 23 32 53 53 34 27 14 -4 -36 -30 -28 -7 1 10 28 39 52 60 76 108 91 129 162 180 188 193 177 181 181 143
-14 -36 18 18 30 2 18 15 -10 9 10 13 15 23 32 52 57 39 31 32 17 14 15 8 5 -4 -7 -18 -11 -3 4 9 33 39 57 72 89 93 87 107 142 176 186 193 205 198 181 177 163
3 -21 -21 -17 -8 14 30 18 21 10 4 25 18 33 20 26 24 27 27 22 28 10 -2 -9 -12 -8 -3 14 16 21 34 28 33 44 61 70 87 104 128 130 172 200 182 227 216 199 196 203 219
-25 -0 -25 -5 16 14 13 22 44 28 -2 -2 28 36 26 23 23 27 32 23 -7 -20 -21 -24 -10 -6 9 30 38 46 29 34 74 85 84 94 125 165 176 157 214 225 223 231 240 252 259 279 284
68 29 24 6 10 14 37 33 22 23 21 43 -3 27 22 7 10 8 2 11 13 3 1 9 23 30 41 49 64 75 76 91 143 100 89 100 122 135 166 212 231 201 201 256 255 307 357 368 298
16 13 8 8 12 7 59 17 26 32 5 10 35 42 -8 -0 -14 -0 4 28 29 36 40 36 52 66 94 105 100 117 119 116 109 89 113 138 161 209 255 286 232 203 220 233 341 370 326 271 218
11 -5 40 19 16 29 33 5 32 34 19 18 21 42 31 17 15 -13 -5 8 44 58 79 71 88 80 95 116 114 147 140 109 128 174 158 185 262 294 302 243 176 199 249 351 333 448 233 190 158
10 41 68 50 45 25 28 20 -0 39 15 18 37 30 40 31 24 4 -25 -22 -7 27 61 72 69 69 100 124 136 187 171 141 215 132 207 187 249 279 185 175 194 367 317 308 403 333 271 167 193
16 72 70 75 66 44 44 25 26 49 33 50 55 70 59 34 14 23 7 -10 -19 -8 3 30 48 62 86 118 129 175 162 165 226 242 153 191 229 202 215 249 306 279 402 434 376 414 225 173 187
47 48 110 101 84 62 45 28 30 25 24 21 20 19 24 35 24 8 29 38 27 31 36 33 19 27 56 72 97 137 131 114 155 173 172 181 282 242 200 294 297 326 436 453 323 287 220 119 103
-18 -1 26 77 84 61 56 33 64 20 15 26 24 8 2 11 14 24 24 35 62 62 61 68 74 73 65 72 90 97 134 117 128 159 175 247 347 379 322 389 211 295 485 434 296 250 121 66 41

GFSSGP_con_3kmhel_063.txt.gz
Helicity
35 22 15 9 38 44 8 -28 6 75 28 79 126 117 56 -14 16 29 27 19 -0 94 149 157 188 180 204 189 181 171 161 154 125 116 103 90 83 77 55 37 36 48 37 30 27 19 21 21 20
-16 17 14 -18 36 -20 29 51 75 24 107 79 37 47 37 74 103 50 -173 -45 -47 118 176 156 216 190 192 178 169 169 159 148 125 120 115 105 85 67 44 35 18 30 23 20 16 18 16 14 11
-23 -4 -18 20 25 -6 -24 22 42 59 54 35 18 42 103 76 111 144 104 54 -5 163 214 187 265 235 203 178 180 176 164 146 128 130 119 108 95 71 56 26 16 33 22 22 18 20 16 13 6
5 28 23 1 -33 10 33 38 47 11 47 40 6 49 65 155 126 204 118 58 48 108 199 263 329 248 199 181 187 167 152 144 139 123 118 132 113 98 91 60 38 45 32 31 26 21 12 12 1
2 -7 -0 10 8 16 39 40 43 20 32 21 24 -2 98 65 93 137 208 167 229 378 341 261 356 227 205 206 179 154 158 157 149 138 144 152 134 146 118 92 76 60 42 34 25 23 17 12 -2
-9 25 -18 5 25 43 24 60 56 25 43 55 -0 18 84 84 94 101 108 166 244 232 271 183 423 375 302 195 186 181 171 168 155 144 151 162 147 142 122 104 91 68 51 37 28 26 23 13 9
-18 -26 -17 -14 7 22 58 56 41 47 31 1 61 50 122 89 106 152 113 128 157 196 232 287 176 346 488 461 332 146 110 133 139 155 150 160 158 131 121 96 86 66 54 50 40 35 29 19 16
-29 -4 -9 12 11 50 23 35 64 90 100 35 3 25 57 93 141 146 141 155 160 207 476 508 579 484 365 229 139 173 78 66 103 128 185 179 132 115 112 101 86 83 75 57 36 37 39 31 3
4 -12 7 16 16 68 31 32 85 48 38 43 30 53 78 137 175 182 167 164 208 305 396 546 667 399 251 145 170 120 -20 -16 62 108 125 113 59 61 34 88 87 89 72 49 37 46 32 20 -20
3 -13 -6 53 34 2 -19 66 86 30 22 85 58 34 93 80 100 124 122 106 134 219 338 384 276 338 273 61 65 81 71 -38 -1 37 49 67 69 40 56 99 100 87 72 46 43 12 -2 -64 6
5 -9 24 13 14 30 27 2 34 60 54 64 37 112 121 117 147 114 170 136 142 185 221 175 178 177 144 177 86 102 6 -7 -5 10 43 52 57 83 63 54 42 33 37 33 22 -0 -30 41 34
9 14 8 -10 16 17 24 28 2 10 81 65 156 103 111 144 113 116 137 166 202 231 256 308 223 199 153 114 67 131 48 -23 15 -23 9 32 30 20 46 21 30 25 14 29 12 40 56 57 43
23 2 -2 -4 10 14 14 -2 13 39 86 162 107 99 124 102 80 76 121 155 177 197 161 110 106 40 62 108 146 57 -16 -42 11 -78 -0 -2 19 36 19 36 29 9 38 27 47 57 54 37 32
-15 -22 -8 2 1 3 -7 21 37 118 110 106 42 78 73 21 36 66 131 128 139 159 127 124 100 60 14 -8 20 8 -50 -71 -23 -16 -2 -5 -10 34 34 42 30 40 36 49 58 54 42 40 46
-14 -1 24 32 28 11 4 18 135 104 80 81 24 68 55 -3 35 88 89 127 103 81 120 117 25 -68 -71 -53 -24 -11 -155 -41 -8 -17 -29 -3 4 45 56 44 53 48 46 80 92 70 50 55 61
14 20 42 123 -0 34 6 36 74 52 55 56 25 27 69 54 26 -8 -4 42 38 48 4 -22 -69 -68 -37 -21 -62 -53 -8 -27 -23 -34 -43 -32 -23 31 43 47 74 71 83 107 96 59 71 73 69
49 19 -10 82 20 40 16 94 87 31 20 58 33 55 77 52 65 60 33 20 14 16 -30 -32 -6 -7 4 -24 -12 -18 -41 -15 -27 -39 -43 -24 15 47 51 74 59 108 88 118 91 89 84 100 81
-19 55 53 17 35 14 24 33 125 17 24 42 52 55 53 55 55 77 42 38 40 9 3 2 -7 5 -3 -34 -27 -34 -45 -33 -47 -42 -39 26 30 65 69 45 84 85 108 125 102 96 97 108 101
-0 29 -8 39 38 22 21 108 1 68 28 37 51 55 64 56 46 82 71 37 23 30 7 2 15 12 -9 -24 -31 -33 -31 -36 -33 -23 13 31 59 76 42 59 80 82 119 110 117 113 130 137 137
-19 -27 -13 36 49 15 31 56 74 41 33 40 48 54 74 76 65 80 68 63 50 54 27 9 12 11 -8 -12 -16 -25 -22 -8 -5 7 41 55 80 71 70 77 102 106 142 144 143 133 140 142 141
-12 -58 65 45 54 41 20 37 -9 48 48 44 30 67 43 65 74 89 82 74 42 50 39 26 25 25 3 -14 -17 -21 -20 -12 3 16 40 65 81 70 67 68 137 143 159 199 167 149 143 162 175
-8 13 -10 32 4 5 26 27 57 73 42 51 62 62 58 39 30 73 69 60 50 29 29 15 14 10 16 2 -9 4 10 28 33 31 66 100 77 80 58 83 139 152 159 233 196 157 156 155 215
-35 12 -12 2 17 31 43 -0 55 11 26 64 60 63 47 67 51 38 70 60 47 35 25 16 10 -0 -1 25 -18 29 17 28 51 57 88 118 94 87 110 177 252 212 211 221 262 192 158 192 200
-31 29 -4 9 22 28 -5 21 -2 5 -12 33 51 52 55 48 46 38 30 39 26 15 12 13 12 21 20 45 51 34 68 46 76 110 188 151 128 132 123 182 203 171 237 281 280 208 190 336 290
-0 -1 5 15 11 10 52 27 57 62 43 18 7 4 37 30 27 23 32 42 25 46 50 35 29 30 47 49 59 69 69 71 62 123 118 82 133 133 134 169 250 287 294 274 219 232 340 301 248
59 -16 -6 15 3 19 38 1 39 78 44 25 15 13 55 44 55 85 67 54 42 58 78 64 64 51 66 77 78 53 58 92 105 185 320 193 270 157 165 200 279 330 307 247 272 355 351 277 358
17 -20 -2 22 72 45 29 7 28 62 24 36 43 26 27 46 27 49 59 65 36 45 80 97 70 64 65 97 106 110 117 142 156 210 186 256 209 296 334 320 339 306 152 328 411 383 304 347 328
-42 -31 -20 -10 9 14 19 17 68 17 31 35 19 34 36 43 43 32 32 79 47 44 59 80 70 67 82 109 171 159 187 188 192 251 217 275 246 212 269 278 333 391 433 432 285 294 458 398 275
19 -7 -36 33 5 28 26 30 37 46 29 22 28 21 43 54 42 34 31 40 59 59 66 75 69 80 83 104 174 213 240 220 183 188 245 260 176 187 242 363 527 415 426 293 204 268 368 307 198
9 25 3 -8 -13 34 24 -0 30 23 29 39 25 35 40 32 41 40 31 39 54 95 100 151 95 57 67 108 141 264 185 185 166 162 171 217 283 308 398 480 420 273 353 311 367 359 211 161 119

GFSSGP_con_3kmhel_066.txt.gz
Helicity
17 16 18 2 25 34 7 22 10 -11 42 -22 60 99 110 107 55 103 26 -18 -29 61 35 114 207 233 211 170 149 125 112 118 106 99 92 86 66 64 61 64 70 55 49 31 25 32 33 26 10
-6 18 31 -33 35 -14 -23 15 6 23 87 33 9 78 77 44 68 65 50 -147 -96 91 7 101 157 218 208 176 141 113 113 117 110 106 98 82 63 56 64 78 70 50 36 32 31 23 17 9 0
-43 -43 -16 4 2 12 -15 71 18 43 23 35 27 -13 35 192 217 101 176 39 49 143 120 128 179 196 226 170 138 126 137 130 117 110 91 74 58 55 64 79 59 48 41 32 22 11 10 -5 -18
-5 17 19 -32 -11 -8 -12 -29 48 33 60 234 132 187 168 218 163 163 190 197 140 201 96 162 242 232 267 207 149 139 146 136 126 122 94 71 59 60 79 70 58 52 38 25 17 6 1 -6 -18
5 -37 -19 -2 25 10 31 18 71 74 25 21 19 -38 93 94 96 174 216 228 313 280 276 267 427 232 245 218 203 176 173 153 147 134 102 88 85 74 86 71 70 53 33 24 18 8 3 -3 -8
-28 -3 -35 4 4 55 -3 61 98 61 25 40 19 31 37 61 77 107 122 146 265 366 328 399 325 176 296 287 294 246 210 186 177 152 131 129 148 118 103 86 76 55 38 28 21 11 3 -5 -1
-19 -42 -25 -27 -10 30 113 91 5 69 18 42 35 73 92 47 67 66 108 144 95 140 220 259 312 355 220 376 383 157 238 179 173 152 141 164 185 140 101 77 67 59 40 32 19 19 9 -3 -1
9 -22 -38 1 -5 52 140 60 -2 49 60 65 58 66 105 26 65 100 102 146 227 155 176 245 422 345 285 144 201 224 175 150 153 149 159 147 145 122 98 84 69 54 52 25 30 26 11 -1 -19
-19 -23 -17 -6 -7 85 46 74 48 113 16 110 128 34 74 138 113 116 89 111 177 201 211 294 332 264 287 183 135 96 74 93 92 90 91 114 119 88 78 65 80 71 43 37 17 9 1 -15 -12
27 -13 -3 7 17 18 30 94 52 52 77 -1 3 24 88 127 134 107 70 85 120 163 192 306 273 232 173 129 58 125 122 11 147 56 64 79 102 103 80 75 80 62 53 24 2 -2 -5 -10 -21
10 17 -12 -11 25 33 36 34 93 46 159 76 99 58 162 115 152 140 102 106 124 180 272 289 377 255 202 191 92 104 12 28 -52 -6 37 62 81 76 73 63 53 54 40 1 -6 6 -8 -21 16
36 7 8 18 -17 17 -4 2 45 73 62 39 72 179 155 174 125 112 130 135 148 172 214 229 289 309 234 145 131 8 99 38 4 -1 50 28 56 35 40 35 35 19 -9 -2 7 23 36 29 26
9 27 9 14 5 -6 -15 35 17 125 143 84 180 136 146 104 132 95 122 156 202 221 195 217 338 292 143 186 178 172 112 35 4 54 -12 38 13 23 27 20 19 -6 16 -3 34 54 26 22 15
-35 -37 -26 -23 6 -24 -23 42 43 3 43 76 89 38 49 57 82 145 121 136 161 189 176 131 127 156 93 77 37 7 -19 -50 25 42 -57 -12 2 37 14 34 0 -4 66 26 64 38 36 12 45
8 -6 3 23 21 -25 16 45 76 146 31 56 69 8 8 9 40 138 93 145 177 132 129 121 88 48 6 -1 -13 -60 -83 59 -64 -93 -47 23 40 48 23 31 11 50 44 50 58 79 41 62 41
-16 12 58 17 16 9 39 7 62 44 28 38 78 63 48 54 118 112 58 99 73 87 91 100 57 -2 -41 3 49 44 -53 -167 -139 -140 -24 -13 -9 -20 19 56 63 58 85 114 95 78 74 51 61
29 50 50 33 63 -6 97 122 137 52 -59 -27 108 95 38 157 93 41 60 60 51 60 21 10 1 -125 -187 -100 -120 -54 -75 -17 -65 -83 -94 -44 -32 44 27 21 90 136 143 107 101 78 60 74 85
3 50 27 48 32 13 -9 125 102 63 -68 -89 111 171 72 108 161 59 39 24 14 -55 -46 -70 -61 6 3 -21 -42 -43 -68 -39 -99 -71 -49 5 7 36 43 116 127 133 134 108 142 86 98 111 84
-18 -59 3 60 65 27 14 21 132 128 63 145 119 169 135 50 244 116 64 58 22 11 -17 -24 -9 -19 -39 -52 -56 -57 -40 -55 -68 -58 -39 78 55 79 98 107 122 165 111 158 133 137 166 108 171
-25 -44 -3 41 26 33 11 14 151 94 27 37 112 104 188 109 261 197 148 129 87 -5 36 -13 23 12 -17 0 -21 -27 -16 -20 -28 -4 -2 117 85 102 112 77 120 183 113 144 160 197 192 150 192
-14 -38 -10 20 47 11 30 34 16 14 55 6 73 73 200 92 206 253 231 98 164 151 101 51 44 23 -15 -3 8 -15 5 4 4 18 24 152 165 158 127 86 97 197 152 176 228 256 214 191 244
-14 15 -46 9 -5 -4 97 -16 -4 43 33 78 35 60 160 117 151 242 211 161 108 157 85 59 103 85 18 -44 18 36 8 33 68 81 96 156 191 162 152 119 105 210 224 213 263 208 207 238 316
-45 49 -25 -37 -29 9 34 32 4 38 -1 68 127 103 117 61 111 251 213 169 113 91 117 36 16 79 74 29 -38 67 78 49 44 94 85 203 245 188 152 111 136 207 252 252 263 290 274 211 244
-21 -21 -4 -29 -8 -9 40 35 2 38 -27 36 133 125 96 73 110 113 202 169 138 76 95 75 4 17 -2 101 99 7 113 91 83 133 129 231 240 162 155 152 236 261 286 284 273 333 303 361 333
45 -11 -19 -23 -21 19 22 21 13 88 2 44 28 149 101 76 125 119 159 189 164 139 122 113 93 53 42 42 151 70 36 114 89 134 180 347 204 224 354 290 251 226 359 296 312 348 468 417 429
31 10 -24 21 -16 -13 84 3 46 20 2 72 55 -8 37 105 114 120 122 227 218 180 181 144 132 98 83 97 112 143 99 88 121 86 253 443 338 280 269 310 260 176 327 414 444 497 473 468 330
22 39 6 65 -1 7 -36 -4 47 45 33 46 8 33 18 30 53 132 133 132 220 227 200 211 162 121 87 131 151 174 176 152 93 157 298 360 339 292 297 252 314 311 392 385 505 495 499 410 282
-51 6 -49 11 -1 6 8 -7 64 75 27 54 4 33 38 50 53 21 91 149 193 249 215 191 165 119 129 129 196 178 208 228 246 264 367 273 366 437 377 419 423 457 440 450 536 490 384 276 228
38 5 -29 -29 14 84 -22 38 83 87 25 27 50 59 44 44 47 59 51 51 179 203 227 233 184 129 118 118 149 150 225 302 319 318 316 315 354 355 355 330 346 348 410 416 414 351 398 357 218
-18 34 4 102 52 45 70 -12 49 62 20 75 36 52 29 46 50 50 40 34 96 131 172 216 245 187 136 164 168 235 304 356 337 324 290 313 334 320 338 322 357 409 341 370 321 326 286 222 186

GFSSGP_con_3kmhel_069.txt.gz
Helicity
22 24 24 39 124 152 57 52 140 117 38 -4 -15 38 28 34 42 108 -32 -74 -51 88 173 314 117 151 158 155 152 163 148 123 107 99 89 102 106 111 105 109 106 92 82 64 50 50 52 56 64
-1 21 31 71 108 0 34 112 89 39 43 0 12 10 43 133 201 51 39 19 -84 -17 157 421 376 13 153 153 151 143 136 123 103 94 103 104 113 117 112 101 89 72 56 49 46 48 41 43 45
-24 6 62 31 24 37 144 113 55 58 51 5 93 118 94 131 151 109 141 -51 -75 -50 -73 149 270 153 155 163 156 147 155 133 102 112 107 104 109 111 99 82 65 56 49 45 46 42 31 34 48
13 16 -1 -3 -27 71 202 112 68 90 39 -42 -60 106 55 -73 43 75 17 4 55 34 84 224 39 59 191 183 180 198 177 146 127 121 103 112 107 105 91 69 60 51 44 38 27 19 7 11 33
-7 5 65 55 92 132 98 41 1 -7 -14 16 -79 -5 -31 -7 46 77 16 54 208 182 232 304 331 316 349 172 234 220 192 147 125 118 100 121 108 110 90 71 61 46 35 28 20 14 3 9 37
49 43 -4 19 73 38 81 118 54 82 92 34 -1 33 75 12 47 52 46 66 200 209 252 222 220 354 178 100 265 255 209 169 147 117 97 112 101 110 89 72 58 37 28 25 19 10 10 21 54
56 75 36 -3 -20 5 100 79 67 94 106 84 82 69 55 -15 71 88 47 76 197 252 284 221 288 311 359 109 631 396 310 271 196 134 116 130 114 108 99 80 56 39 36 31 23 23 -3 43 75
-2 54 -17 -85 41 106 32 0 75 129 103 144 102 138 59 36 -12 110 67 126 195 202 249 283 248 264 244 291 46 234 111 222 216 213 196 173 123 108 94 83 56 39 32 26 32 -4 32 58 101
-20 -16 -62 -4 71 29 35 14 58 112 190 191 90 139 113 143 87 87 80 121 171 196 213 280 246 260 194 311 279 73 84 59 119 172 194 165 132 107 96 60 47 32 22 37 -9 20 26 47 77
-9 64 46 114 53 25 30 36 35 147 129 97 100 170 10 101 116 97 78 83 178 192 198 189 234 193 163 162 142 101 90 164 119 120 161 128 114 91 76 56 55 49 25 26 16 26 24 46 43
-10 97 117 74 -27 21 36 33 68 67 148 202 43 105 87 137 121 132 111 93 135 178 165 134 199 116 123 72 127 36 -6 98 -45 53 90 87 91 74 74 50 53 28 20 8 18 15 1 11 21
-13 35 86 -13 -57 12 35 35 18 -4 -6 174 38 65 127 162 127 125 121 120 121 160 181 178 148 127 157 154 112 48 7 -28 23 14 42 49 64 58 27 56 14 23 10 14 9 -8 6 34 32
-39 -18 32 41 3 -10 -32 125 72 72 118 73 36 85 137 100 114 154 150 133 125 137 162 184 212 157 146 243 181 120 103 25 50 21 20 36 49 -1 65 24 17 16 18 6 3 21 28 29 23
-65 -54 -79 -63 -41 -39 -10 127 132 65 26 29 184 81 56 96 157 157 118 144 144 143 146 170 176 202 146 94 107 176 158 33 -22 14 -7 -30 -25 -30 7 5 10 16 -9 19 25 31 21 18 22
-70 -55 -45 -50 4 51 53 123 159 71 -9 105 120 80 45 139 152 136 106 132 125 115 121 153 97 76 97 97 206 204 207 18 -4 -15 -22 -38 -77 -6 21 27 38 -4 17 50 48 47 31 27 31
-18 -60 -49 19 28 64 115 127 164 69 93 36 87 56 63 154 156 164 179 159 98 105 88 86 74 94 102 40 61 61 1 -31 -20 44 -11 -98 -44 6 58 0 -19 1 46 69 74 75 54 42 51
-10 29 55 150 142 81 96 164 138 109 115 149 104 92 79 139 170 156 162 149 117 86 100 110 73 87 68 73 7 -18 -22 27 -77 -127 -155 -49 -11 -37 -21 -4 23 66 104 135 124 92 83 71 81
-3 22 147 79 49 68 87 97 158 121 130 134 70 -15 199 184 105 66 83 61 39 10 -7 10 0 11 -16 -70 -13 6 -43 -87 -146 -121 -78 -50 -45 -25 6 29 71 126 145 154 145 122 93 104 106
46 66 16 -25 83 73 80 80 135 94 138 184 139 -21 233 243 108 10 14 1 -27 -48 -82 -50 -60 -70 -96 -92 -76 -129 -151 -112 -97 -85 -69 -43 -17 14 43 90 119 141 172 161 149 160 131 144 144
65 47 10 39 76 35 22 7 88 50 110 70 100 10 201 257 261 108 44 26 -38 -56 -133 -45 -57 -80 -101 -69 -58 -84 -58 -57 -54 -61 -43 -6 -1 39 97 143 146 139 167 159 157 184 183 170 221
24 25 -12 21 34 -14 5 3 88 59 82 47 -6 78 256 398 347 224 144 115 62 5 -23 -41 -54 -62 -62 -33 -40 -65 -48 -56 -55 -60 -37 -3 69 89 133 147 142 172 181 148 177 198 212 229 272
5 1 8 -3 -31 -40 86 -28 55 3 108 128 134 284 246 432 382 345 213 140 143 81 13 3 -40 -45 -12 -1 4 -13 1 2 -11 -7 5 70 140 144 151 172 176 244 242 229 192 205 249 289 240
-6 27 9 -9 -13 -32 13 30 26 10 -5 67 123 298 281 371 417 414 302 213 167 102 86 77 53 66 38 21 41 13 19 36 27 8 13 104 168 201 167 181 183 204 249 223 225 316 298 378 325
-12 18 64 6 -32 -53 -6 53 -1 -37 -10 47 63 247 228 358 361 350 329 267 200 134 123 109 83 68 35 -8 -28 30 63 63 97 118 117 159 236 238 191 209 265 231 281 281 273 331 370 369 398
23 51 27 -5 -12 -15 -21 38 105 80 48 2 89 256 212 274 344 317 313 283 264 271 193 130 95 66 66 28 6 12 125 146 134 129 149 223 263 274 193 251 297 286 293 301 298 297 393 521 466
89 103 86 18 3 -52 27 -1 8 29 -71 -4 47 216 189 154 212 314 373 380 319 269 271 213 134 119 164 164 124 43 122 208 212 198 268 341 379 307 228 291 265 303 304 318 332 377 430 468 502
45 137 86 105 14 1 -23 -110 -33 -18 51 52 32 75 93 178 140 267 325 347 407 357 283 276 220 140 124 152 188 181 161 200 265 160 220 316 328 319 336 343 320 337 348 354 376 365 372 457 395
76 70 65 110 54 9 -48 -26 -1 157 105 76 83 56 77 56 138 188 319 337 327 405 405 362 280 259 200 155 125 189 202 244 280 239 281 375 396 248 372 416 392 390 389 368 347 356 353 384 295
90 50 67 37 108 17 -4 14 24 132 74 56 84 95 101 69 55 80 77 281 338 382 395 389 341 266 212 191 182 210 300 296 348 391 344 227 314 346 428 368 386 383 385 376 360 357 336 290 313
114 118 102 114 61 100 78 53 0 1 43 92 83 98 125 147 53 15 48 109 232 290 325 388 351 306 300 238 201 241 424 429 333 322 327 354 316 363 370 334 322 330 333 348 340 319 305 326 272

GFSSGP_con_3kmhel_072.txt.gz
Helicity
31 40 43 79 95 75 72 22 142 90 5 32 79 73 65 107 65 49 72 42 76 122 93 167 264 280 224 131 153 197 184 176 170 172 171 160 157 169 183 162 140 119 105 99 100 97 86 71 54
29 38 51 85 89 76 59 31 36 29 11 38 74 89 115 88 105 104 103 70 3 55 126 161 242 268 435 71 76 175 168 166 162 154 152 163 163 180 175 149 119 94 86 82 79 80 77 60 50
26 24 71 42 39 136 68 80 86 98 11 -26 43 81 70 90 84 66 45 4 74 32 35 120 184 135 157 128 154 114 191 175 145 138 157 167 161 170 149 127 94 76 71 63 65 77 83 71 44
66 66 65 67 96 43 95 128 27 93 47 8 -19 66 60 55 81 74 108 84 104 98 102 35 112 139 158 80 112 81 217 192 163 154 159 139 132 143 131 113 80 59 56 61 72 89 107 89 66
62 94 103 84 69 75 188 101 41 54 67 45 14 25 20 34 76 81 83 128 127 194 190 88 279 344 368 198 104 203 195 180 136 150 137 127 133 125 115 84 61 62 58 63 69 105 135 116 93
116 115 120 59 -38 78 67 -1 9 35 50 45 71 103 80 65 101 51 113 98 232 246 269 290 270 154 63 -9 35 252 177 217 162 256 183 146 110 105 105 86 76 70 73 71 75 107 126 92 97
105 162 56 48 70 35 52 28 69 99 77 97 98 86 44 74 160 85 93 62 190 265 285 234 232 227 222 131 254 322 196 182 229 210 172 139 132 122 105 88 79 75 73 76 67 88 132 123 100
97 127 56 23 59 91 56 53 52 106 134 81 54 42 47 73 86 130 110 96 134 236 260 205 202 240 162 171 119 308 245 107 197 199 170 163 133 117 105 90 76 72 61 60 61 76 130 187 157
41 74 105 68 103 99 111 53 103 132 168 99 93 86 34 60 76 145 122 133 117 182 201 187 156 217 219 239 410 167 105 61 136 221 202 189 141 126 103 81 78 64 52 49 78 110 119 186 182
106 82 27 56 112 124 102 33 57 149 143 132 103 97 84 100 115 112 110 116 120 134 145 154 158 175 207 278 296 317 237 134 137 208 226 171 138 113 85 84 70 67 64 75 98 100 91 134 105
39 17 56 67 117 158 41 70 104 165 117 48 59 92 87 78 67 101 105 128 107 113 147 168 164 135 123 61 59 25 103 75 162 143 136 150 151 120 125 106 73 60 56 49 48 42 48 76 76
61 -14 12 69 51 82 -14 76 108 89 56 9 34 155 121 41 107 97 82 88 98 109 122 146 128 101 85 70 62 89 65 8 156 202 172 109 151 89 66 43 47 39 25 36 17 28 41 53 52
108 29 -15 -12 19 47 30 27 70 111 56 96 138 120 66 103 124 141 104 100 95 111 102 109 67 74 28 70 61 34 36 118 52 29 -6 30 37 27 50 18 27 25 48 5 20 22 22 37 54
20 32 -24 -74 6 35 59 25 107 61 95 105 111 89 108 114 112 168 146 106 93 105 107 116 80 55 23 69 66 61 117 153 45 -16 -26 15 19 18 34 20 3 32 22 14 12 3 20 33 44
38 -27 -66 -71 -65 -66 -39 51 104 146 93 73 150 98 93 95 110 142 194 161 107 108 109 110 103 125 114 122 93 136 112 162 29 -24 -20 -10 -28 38 -10 25 5 19 24 32 28 23 33 38 36
16 -3 4 -19 -36 -32 46 101 179 111 80 141 123 45 80 74 129 157 188 191 117 108 92 82 101 81 47 63 46 79 106 181 116 28 -10 -21 -19 11 -16 -6 -9 40 -10 28 45 55 37 27 27
42 31 -6 -30 76 94 134 67 172 122 147 179 132 73 64 69 97 163 181 185 147 93 77 24 -7 3 21 60 78 137 169 127 53 7 -22 -40 -19 -100 -67 -72 40 -13 38 34 51 69 76 59 27
85 81 40 32 30 75 57 84 143 127 143 164 72 54 107 119 71 143 158 136 121 125 18 -3 24 47 39 50 125 159 220 53 31 -74 -100 -77 -103 -86 -49 -55 -24 29 65 67 109 122 90 91 86
10 52 63 18 161 59 83 100 93 140 82 103 100 127 151 166 98 78 96 88 93 61 27 -18 29 12 14 3 57 28 -13 -46 -67 -73 -102 -117 -115 -80 -51 -8 19 49 106 127 133 145 125 107 126
-1 16 4 46 73 60 43 21 86 130 89 147 116 117 151 190 207 133 52 36 59 12 -20 33 75 40 25 -52 -57 -46 31 -20 -72 -101 -143 -136 -97 -53 -8 43 71 109 138 167 185 199 179 135 190
8 49 32 104 12 -6 45 80 84 64 65 98 71 83 139 248 277 212 142 55 44 -26 -98 -52 -62 -78 -93 -93 -100 -61 -68 -136 -175 -163 -141 -116 -83 -31 35 79 124 149 158 162 168 185 192 190 213
-9 2 45 30 66 39 37 -8 14 28 58 62 102 164 181 252 241 228 182 117 78 -7 -121 -102 -101 -85 -128 -138 -149 -154 -149 -159 -149 -138 -107 -90 -38 1 37 65 119 165 160 179 191 194 212 230 224
34 8 34 52 36 39 -7 -9 -8 63 31 77 73 194 207 269 282 264 209 172 78 70 -4 -65 -58 -44 -74 -88 -78 -83 -100 -88 -77 -57 -50 -43 -23 24 84 108 134 188 186 190 209 227 214 212 268
27 47 57 80 74 -63 -39 -34 -107 -16 8 63 128 143 219 236 252 203 182 169 120 107 88 23 -14 -28 -24 -41 -43 -25 -5 -32 -35 -6 9 15 27 47 85 126 142 172 209 217 213 224 232 261 349
16 107 84 52 48 -64 32 5 16 27 -7 88 184 189 300 222 287 257 173 167 157 169 156 104 63 27 13 19 26 35 34 19 32 56 56 104 101 87 112 159 184 223 218 236 261 259 283 299 312
91 99 121 45 8 32 44 -45 -9 10 38 5 188 253 341 293 262 258 264 250 212 178 176 160 130 95 85 90 92 82 52 30 2 27 57 75 124 147 181 210 262 277 232 255 294 319 296 305 317
101 151 104 156 121 31 4 24 -7 8 35 -3 13 172 285 295 269 207 218 258 270 228 206 193 193 165 142 139 93 72 49 48 57 112 164 232 240 230 252 257 297 324 295 269 313 316 315 305 305
84 117 188 143 67 26 28 33 5 23 -0 11 55 99 192 274 257 230 234 248 302 338 288 264 226 218 242 230 178 138 133 130 138 169 200 224 315 333 349 277 254 255 301 375 373 333 323 306 287
93 123 164 157 172 84 73 50 -2 10 32 29 96 72 102 191 303 245 255 242 295 339 340 319 283 250 236 212 202 175 167 175 234 283 306 368 322 265 159 147 257 325 366 383 350 328 315 266 311
65 62 148 152 110 114 58 49 12 22 58 94 84 102 97 93 93 130 231 258 292 365 376 366 337 304 251 262 235 200 192 169 337 369 391 332 209 226 93 265 381 385 335 339 318 363 314 295 275

GFSSGP_con_3kmhel_075.txt.gz
Helicity
67 41 34 53 82 88 134 94 14 6 37 -1 -16 40 56 78 66 51 72 61 56 79 90 153 210 223 329 433 446 232 220 161 176 196 222 231 237 207 203 210 212 188 160 130 94 71 58 49 64
52 40 47 56 123 163 175 7 12 23 12 2 92 69 83 71 30 46 119 64 74 60 155 202 303 269 228 266 277 277 179 116 162 179 197 214 202 176 191 207 195 158 128 108 91 66 40 18 64
41 31 76 96 152 183 168 57 100 57 -4 4 57 98 59 51 98 143 122 106 28 27 146 231 387 187 206 146 67 218 447 111 172 207 210 206 227 154 169 182 161 137 120 102 73 57 51 69 83
67 72 88 104 111 79 130 196 159 48 47 55 31 51 39 39 103 146 139 141 107 41 123 129 301 230 292 139 101 126 172 138 98 224 237 182 201 140 142 159 167 139 129 111 75 44 44 58 55
85 105 128 78 81 43 66 96 3 22 64 85 43 42 13 44 124 97 96 97 103 80 116 123 229 362 534 454 111 129 205 355 104 234 211 178 175 133 159 168 182 158 145 117 74 50 63 59 45
122 125 126 68 41 19 47 27 -5 59 78 89 67 66 75 126 184 95 76 174 118 75 77 147 201 274 415 244 123 97 146 204 175 207 194 186 190 146 160 157 161 151 145 129 81 73 81 61 40
129 156 85 86 90 61 64 55 61 81 99 107 82 60 112 136 95 109 143 111 124 149 183 214 198 219 192 13 -27 77 56 126 128 173 187 176 191 148 160 125 134 137 161 143 112 86 54 47 35
116 157 86 62 113 112 65 27 72 145 89 111 61 59 119 137 110 149 170 172 163 188 240 271 206 95 278 174 271 76 375 177 133 99 167 214 196 179 108 105 124 141 158 167 131 83 34 39 48
102 146 82 104 106 88 76 53 42 149 179 120 96 117 226 170 171 231 217 156 147 142 166 187 191 190 236 144 164 280 125 191 232 137 255 364 250 132 108 109 121 127 145 180 147 114 74 45 45
147 129 56 54 52 93 67 116 119 154 138 126 122 142 204 159 193 214 196 179 107 116 123 90 135 167 288 201 193 366 206 202 92 109 227 232 200 130 110 95 96 115 129 151 162 127 111 62 42
138 76 63 -5 52 82 71 111 197 144 111 140 128 112 189 194 180 143 158 144 86 88 121 111 106 149 216 259 303 320 148 162 147 128 192 187 181 155 123 118 109 103 104 114 148 135 102 48 29
129 44 22 -3 22 26 47 113 134 118 98 124 178 170 143 193 125 88 126 137 109 63 101 125 119 152 159 196 283 191 214 303 106 78 194 227 187 128 105 92 79 87 95 104 119 130 81 90 38
101 51 49 39 -6 28 68 94 45 2 102 218 187 171 126 150 91 59 82 94 77 64 85 82 108 128 89 127 92 27 79 67 45 128 110 101 128 126 88 93 79 56 66 72 67 67 88 70 50
68 73 34 16 38 32 86 76 71 24 125 157 209 148 130 105 71 69 87 98 57 50 69 92 73 78 76 85 130 -13 59 89 195 144 198 141 130 162 60 38 43 49 50 36 29 44 49 52 53
56 15 -30 2 14 -9 64 -17 2 63 222 192 206 143 149 65 98 55 73 109 88 63 68 76 73 41 11 40 125 33 5 75 78 61 -15 -15 61 42 34 22 38 29 37 44 51 52 51 55 52
50 49 18 19 16 -13 32 -38 27 155 253 214 197 157 126 37 76 57 70 127 116 57 73 57 55 43 26 18 98 40 79 42 -16 -12 20 10 34 39 17 56 16 37 43 53 63 49 44 33 33
101 58 41 -4 16 11 -2 1 39 173 203 173 160 167 138 56 55 72 71 160 148 58 44 63 54 89 82 121 85 136 78 69 59 6 -8 -24 -0 -2 25 33 8 48 67 70 70 61 70 50 34
123 86 46 52 -5 32 27 73 44 134 166 123 144 122 129 107 21 92 108 140 179 77 35 43 105 96 105 124 116 93 57 85 60 35 17 -6 -12 -1 23 49 5 34 85 96 85 85 77 72 64
112 99 60 23 17 79 69 44 38 110 130 81 138 103 112 138 125 135 121 126 138 121 -1 18 34 18 -7 100 73 47 39 88 58 -0 -14 -3 -63 -59 1 -54 7 53 102 80 75 106 103 102 108
82 78 26 -18 36 65 45 20 -6 106 96 96 137 113 110 155 150 160 155 141 98 83 34 -28 -0 28 32 38 47 58 63 134 2 -41 -52 -56 -46 -46 -49 -48 -12 -24 90 109 134 153 148 113 136
88 94 59 67 76 93 99 2 40 67 9 -75 40 55 113 193 160 144 129 127 71 43 60 2 43 55 -18 -25 -11 91 62 85 6 -35 -102 -70 -57 -85 -76 70 96 89 108 129 147 173 183 173 189
79 60 30 56 136 148 54 -13 5 22 36 -42 -2 83 112 196 172 152 134 131 92 41 -23 -4 -20 14 16 15 -30 17 -39 -41 31 23 29 -62 -91 -95 -78 -52 62 88 144 156 152 157 175 212 238
52 50 67 97 106 135 101 45 -57 59 -0 32 77 74 136 208 247 217 163 121 78 69 54 18 -37 -37 -61 -89 -102 -116 -81 -15 44 7 -68 -94 -93 -83 -51 -19 49 77 112 107 143 169 185 194 263
5 50 65 158 155 109 66 57 -60 58 120 84 108 72 100 206 223 185 156 116 68 14 42 63 22 -37 -39 -98 -131 -123 -104 -90 -101 -124 -115 -105 -83 -77 -49 20 71 76 85 151 177 166 207 241 230
101 146 235 221 188 43 49 47 -10 5 53 55 15 26 31 139 217 199 228 211 135 76 64 61 44 14 -17 -52 -64 -82 -92 -84 -72 -77 -56 -39 -64 -50 -16 52 111 121 160 198 221 226 215 245 223
224 215 248 198 148 58 95 -23 -41 -29 42 27 30 66 96 165 188 227 239 242 220 184 161 159 133 42 26 -0 -31 -33 -46 -45 -49 -43 1 12 35 37 63 132 142 173 178 224 241 220 200 238 260
184 298 148 180 163 98 67 46 16 -12 21 19 -17 38 57 143 184 190 210 245 253 229 261 288 221 137 113 83 35 28 18 25 7 17 13 58 64 63 107 158 159 181 249 266 280 192 186 243 272
119 157 231 236 158 80 72 31 23 26 30 42 53 40 96 133 125 104 153 176 201 233 280 295 280 257 192 143 103 86 80 73 54 76 75 71 93 113 128 156 194 217 196 241 234 254 292 307 335
225 246 224 174 185 122 79 70 65 7 -5 -14 30 18 77 139 161 131 130 143 196 212 247 269 282 256 215 176 136 112 101 113 116 107 148 163 194 180 164 168 134 135 173 141 187 273 333 326 299
146 201 234 211 233 157 106 63 25 151 48 49 44 42 56 79 141 175 209 199 212 221 281 330 333 301 290 308 253 172 107 231 202 226 273 258 423 222 140 150 187 85 61 116 184 279 302 303 291

GFSSGP_con_3kmhel_078.txt.gz
Helicity
68 66 50 76 102 129 187 202 70 90 62 15 -20 8 31 66 48 33 89 151 130 119 138 189 174 185 198 155 149 202 288 327 294 305 301 265 263 248 265 243 209 174 134 117 100 82 72 76 68
71 68 70 77 122 166 188 122 104 74 32 -20 19 31 43 48 57 76 96 119 135 106 138 265 297 306 258 179 115 112 221 267 266 279 255 242 236 268 262 218 180 160 124 91 69 72 80 65 51
62 63 92 94 120 175 181 72 114 68 61 49 49 58 57 51 75 68 94 123 118 113 164 236 385 480 357 95 195 72 120 194 245 234 232 216 229 270 240 205 156 137 123 97 63 52 62 53 46
84 91 105 107 97 127 101 126 167 63 13 61 67 52 79 91 98 63 63 111 105 166 194 231 263 312 287 266 223 108 67 88 159 181 175 188 234 233 223 216 153 133 116 83 54 81 64 60 53
108 110 118 87 91 58 65 94 63 21 11 43 86 79 93 114 102 84 31 63 164 198 173 173 261 248 192 213 132 74 119 75 148 153 202 177 231 241 228 213 139 132 89 67 75 65 58 48 30
130 128 121 78 95 67 75 38 46 8 38 83 84 111 108 128 123 111 75 75 138 167 106 152 219 260 196 124 97 71 22 128 179 200 250 170 259 219 209 243 164 120 71 61 78 59 42 24 25
137 147 92 90 110 144 47 14 32 28 62 111 169 131 144 150 139 121 149 124 92 61 94 159 199 214 169 113 131 123 228 165 243 238 232 197 292 273 264 225 159 111 82 73 72 52 26 11 7
148 147 108 90 187 176 39 54 48 32 44 136 183 118 139 165 186 171 218 164 122 138 137 192 263 235 204 116 104 148 307 187 345 459 376 195 300 243 235 202 144 99 81 53 60 40 22 10 14
158 180 101 102 204 116 51 119 57 68 104 148 189 186 176 219 197 248 216 153 139 131 160 226 199 176 150 107 94 88 336 313 171 178 208 237 305 259 264 182 127 96 88 48 26 37 36 31 25
185 186 83 68 96 109 88 100 79 65 96 100 163 201 240 235 201 193 173 143 149 121 119 107 131 139 117 109 85 139 124 227 155 118 206 238 234 207 206 158 117 118 106 71 31 46 66 50 28
156 141 115 29 61 71 89 60 22 116 85 172 132 266 276 227 168 137 116 130 169 140 93 88 93 146 153 177 189 336 400 525 336 184 215 206 245 242 285 201 148 156 148 119 110 75 43 34 34
146 95 85 9 10 65 99 51 110 122 135 149 150 259 281 283 150 104 97 102 192 151 104 101 85 117 141 167 273 371 312 418 337 114 176 200 299 279 246 179 179 139 109 110 76 47 45 56 65
145 103 75 31 -24 22 49 92 59 62 148 210 231 253 255 203 140 87 90 80 146 145 100 101 127 118 102 148 236 281 203 138 251 232 123 216 208 202 146 143 131 97 84 79 72 55 56 68 8
111 93 92 40 7 27 45 54 75 90 226 223 244 237 250 166 117 76 69 77 145 123 73 107 135 110 72 93 94 119 236 199 127 91 68 151 143 95 100 85 62 62 75 54 60 60 67 27 46
97 49 32 37 28 53 109 51 84 158 231 262 273 199 198 158 103 72 53 78 126 132 86 70 99 90 59 94 67 130 275 336 228 49 118 39 67 66 69 56 68 68 55 64 84 54 48 63 33
117 101 62 33 76 41 81 10 56 86 208 239 202 184 161 118 70 54 40 70 106 140 89 75 70 79 59 55 51 101 92 144 115 160 148 146 107 114 27 88 61 44 44 59 46 27 52 41 38
163 98 81 23 45 69 52 -32 16 51 107 150 180 171 148 80 76 37 52 54 96 136 110 86 71 97 68 60 70 109 159 155 206 230 120 60 36 20 125 87 40 31 51 57 26 44 60 43 37
160 111 101 62 51 66 102 58 14 62 102 120 179 164 149 70 92 67 71 76 89 155 88 52 66 72 99 86 127 162 176 239 176 238 241 76 -26 28 63 56 42 72 64 42 42 64 74 64 58
151 86 74 51 55 88 59 68 15 71 72 126 164 176 150 69 110 129 101 109 107 155 90 33 78 104 113 101 157 120 124 99 113 59 2 -38 2 43 61 50 47 86 37 60 68 83 73 86 86
154 98 -21 -4 -25 54 59 51 -14 44 33 158 140 143 152 107 122 152 138 131 125 145 85 53 78 65 80 98 147 135 119 79 77 53 33 34 50 40 57 50 74 44 46 64 94 102 104 113 121
125 136 83 72 45 17 79 96 40 15 39 94 72 115 150 168 141 145 127 114 118 123 88 61 59 4 11 53 143 130 135 125 97 45 30 11 33 54 52 17 -5 14 50 96 105 120 136 148 138
177 152 95 87 117 94 127 64 47 -16 -35 4 26 92 155 160 156 134 125 94 103 80 99 97 114 73 4 64 84 114 75 80 97 53 85 -52 -55 -45 -48 -51 -0 -4 69 88 108 137 170 189 181
96 146 99 93 135 149 65 173 83 10 -56 -11 -12 60 138 170 213 182 165 98 86 77 75 104 124 102 113 55 61 16 -32 -40 50 33 -11 -103 -87 -94 -95 -44 -14 46 90 105 127 169 166 184 219
107 62 120 147 173 188 108 160 52 36 22 22 -3 12 76 147 179 150 143 106 65 70 80 76 85 54 47 60 38 36 -24 -40 -53 -42 -59 -105 -124 -122 -103 -46 7 52 91 127 130 142 169 191 230
124 158 245 282 262 203 138 156 105 16 60 72 73 96 49 117 160 185 207 171 120 98 113 92 92 57 30 16 -24 -47 -64 -80 -70 -59 -65 -82 -99 -104 -72 7 76 104 132 157 194 193 188 206 210
123 226 374 346 286 193 245 141 48 18 37 41 3 86 38 49 120 182 203 202 175 118 117 121 120 83 69 32 -12 -60 -111 -129 -156 -160 -129 -128 -87 -54 22 48 109 120 159 184 190 194 203 251 209
165 190 207 270 233 185 158 164 82 20 73 22 6 -1 -4 71 107 150 177 205 211 197 176 146 87 65 77 78 28 -16 -86 -107 -118 -120 -123 -125 -132 -76 11 65 62 104 121 155 152 173 194 237 168
210 158 298 326 199 142 171 139 65 51 123 43 19 20 -19 32 98 138 153 158 176 197 217 195 135 104 91 70 56 38 3 -43 -65 -77 -101 -84 -56 -13 43 71 67 78 114 121 129 120 150 165 215
236 106 209 215 236 159 157 101 40 58 91 69 75 22 -5 35 141 149 129 150 166 178 228 253 220 187 171 164 122 94 54 13 17 34 20 15 44 81 99 145 207 175 138 181 297 182 150 174 198
108 170 215 278 266 207 183 129 57 35 58 39 87 23 -0 -32 56 110 147 191 206 215 236 260 285 273 257 247 182 137 117 111 146 149 52 81 79 153 212 223 169 201 276 283 238 139 212 95 173

GFSSGP_con_3kmhel_084.txt.gz
Helicity
50 29 20 23 27 37 97 119 160 114 98 55 27 24 61 46 89 97 53 82 84 87 135 137 121 149 157 126 180 179 168 160 207 212 241 186 182 144 126 134 154 175 155 99 94 104 91 80 95
48 42 27 40 36 45 115 142 125 116 75 9 6 18 37 43 48 70 77 99 107 110 114 110 146 151 146 131 130 162 169 159 191 211 235 206 187 140 175 195 201 207 135 100 94 88 79 77 105
45 19 30 48 51 17 82 139 134 107 30 20 47 19 49 64 65 91 128 108 77 67 90 129 108 131 161 205 135 100 104 167 172 177 222 204 177 188 211 227 193 173 113 100 85 89 78 83 81
43 52 60 47 53 88 97 137 145 115 76 37 29 104 58 78 77 122 106 111 106 91 84 104 124 115 193 152 202 96 51 94 39 143 152 235 225 225 189 219 180 152 111 114 89 81 66 71 80
48 57 63 46 46 77 145 175 149 137 128 124 66 72 54 77 125 129 146 138 137 138 135 94 102 125 212 237 133 134 123 72 226 159 183 211 196 235 186 211 164 115 130 116 89 71 62 74 74
64 74 62 52 74 77 137 147 148 123 99 93 83 62 64 120 82 128 158 142 137 143 152 159 88 73 148 238 176 163 214 79 159 112 47 157 190 245 209 187 139 125 108 120 82 65 69 61 60
14 60 50 43 46 59 117 160 146 121 94 56 70 111 107 80 117 122 137 149 146 149 139 126 71 32 117 235 206 161 151 161 117 108 36 94 193 204 194 202 180 167 111 113 85 78 63 51 50
48 72 63 48 54 40 190 180 111 99 89 72 54 101 68 142 108 109 140 159 159 141 114 119 67 21 47 157 170 106 84 72 143 122 121 98 107 214 237 213 194 174 121 115 94 79 58 40 37
85 85 53 35 47 51 172 188 105 78 86 69 61 43 113 129 147 169 150 139 145 131 124 143 100 29 28 66 114 10 -33 78 172 127 138 95 133 165 154 121 141 152 113 101 102 68 48 27 29
86 72 31 63 44 50 122 121 97 95 65 75 47 62 113 119 126 146 138 125 121 91 119 152 150 115 36 -37 64 89 17 11 122 162 165 250 199 147 67 98 135 152 117 107 91 64 44 -14 5
73 46 31 66 44 31 50 79 46 83 94 57 52 60 109 103 137 134 133 118 129 93 123 120 141 104 132 131 70 108 89 118 94 124 175 294 300 179 94 119 134 173 111 90 58 39 -7 13 9
61 43 17 37 44 40 8 11 53 53 46 37 52 40 85 119 132 124 130 135 121 94 101 129 97 68 74 81 93 70 71 87 134 200 218 531 391 290 112 125 94 143 74 61 34 15 21 12 15
46 18 37 35 43 47 3 9 -6 8 13 -4 27 59 95 122 119 128 132 138 88 90 77 93 57 46 68 74 90 73 63 122 262 307 705 604 441 318 140 122 81 85 69 35 24 20 8 22 2
74 34 28 39 48 56 45 8 39 61 10 54 46 42 72 99 113 128 136 114 64 83 63 80 51 39 37 46 100 109 114 278 449 705 457 292 339 268 102 116 94 101 77 33 20 18 9 14 -1
71 34 21 34 32 53 36 28 73 40 25 11 31 45 68 87 113 106 132 104 73 78 68 53 74 58 31 62 68 156 289 569 795 589 453 290 158 80 102 126 110 102 74 52 19 1 -4 1 9
43 40 22 74 56 69 78 28 44 55 34 7 29 72 83 73 94 106 134 94 84 88 64 72 66 56 51 71 100 206 462 863 646 348 241 -21 -21 83 99 101 138 84 58 46 3 -14 14 16 22
68 51 22 37 48 51 88 31 66 81 23 11 48 64 58 73 98 119 119 89 79 82 80 76 59 40 39 87 144 198 292 228 118 79 32 -90 66 93 129 90 70 83 126 99 79 25 10 17 7
70 44 27 29 94 24 49 39 40 22 46 41 46 68 60 68 91 124 120 92 95 90 93 80 16 37 50 97 144 188 214 362 265 196 165 63 150 185 80 148 87 117 132 68 16 14 26 15 9
94 87 29 19 125 67 52 47 -13 23 71 13 63 75 46 66 116 127 136 111 107 100 125 107 34 36 44 87 129 150 194 243 240 244 198 265 222 -31 -6 52 20 92 21 1 11 17 35 16 32
54 44 10 34 82 43 26 -45 -22 38 51 42 44 65 51 86 129 147 148 123 115 102 131 98 23 25 60 63 125 115 208 180 263 336 266 166 39 -28 50 -2 67 48 30 -7 6 15 32 27 31
51 40 18 48 67 19 -10 -36 4 42 78 95 53 23 42 80 108 152 143 113 109 87 120 94 44 30 18 91 175 151 205 285 191 75 -9 -95 -155 -69 63 50 8 -20 -35 -2 -1 17 34 44 37
43 20 24 46 54 58 91 42 77 83 80 95 75 41 23 58 76 106 125 116 110 68 98 86 57 45 67 74 117 178 197 169 104 82 2 -53 -76 -23 -22 3 -2 5 19 7 19 27 31 35 38
29 51 38 47 52 48 61 78 -12 84 28 27 45 44 15 27 54 82 116 105 83 68 73 101 104 77 67 92 97 113 180 98 118 119 146 85 93 0 -3 -4 -22 -12 -21 0 11 16 30 42 29
68 37 52 52 56 64 28 123 21 52 39 17 38 27 14 15 41 56 112 110 75 71 57 87 125 131 101 59 66 53 81 93 123 122 150 186 75 -84 -79 -85 -125 -96 -61 -38 1 23 37 50 47
47 75 80 53 103 68 84 83 49 94 26 15 9 26 50 20 32 58 115 112 85 89 69 73 95 115 121 90 17 -4 14 82 58 123 204 109 -39 -150 -157 -166 -147 -116 -32 4 22 34 32 36 50
40 27 94 60 57 40 107 48 29 16 -6 -4 -14 16 31 44 34 65 83 100 72 78 84 75 90 77 106 96 81 50 51 41 22 -17 -8 -12 -38 -157 -184 -181 -131 -80 -27 4 30 34 32 62 79
49 63 40 71 93 56 53 35 31 4 19 20 22 25 22 30 42 49 73 78 62 54 84 88 84 68 99 113 91 81 69 56 34 32 55 -20 -55 -82 -134 -96 -78 -50 -11 16 47 57 52 75 79
97 57 101 100 83 67 34 45 83 51 19 16 24 38 18 8 32 41 56 74 61 35 52 67 71 60 63 66 56 46 67 52 27 22 34 22 -6 -49 -89 -88 -49 -31 15 39 49 62 72 103 123
85 109 125 161 110 95 68 68 52 2 19 55 84 47 26 6 34 69 39 50 50 38 46 56 50 52 49 42 33 23 26 46 51 44 33 31 3 -16 -23 -35 -13 12 36 65 94 100 103 121 119
88 54 60 105 104 63 69 73 13 -8 -1 11 30 52 48 41 38 45 67 96 87 61 52 58 66 55 51 52 49 41 32 34 42 59 82 93 83 70 51 33 14 12 24 61 88 104 147 131 165

GFSSGP_con_3kmhel_087.txt.gz
Helicity
36 21 5 9 29 51 15 51 49 73 50 48 89 53 33 49 25 74 38 51 46 48 92 88 136 124 109 96 157 153 160 137 155 173 170 166 154 150 120 78 100 114 92 89 94 109 94 93 105
18 19 9 3 36 15 33 108 123 28 53 79 55 43 40 5 69 89 32 68 50 45 68 54 122 134 109 87 99 141 155 140 164 180 158 165 157 162 117 111 114 118 112 89 78 107 94 107 131
-16 0 10 39 42 11 15 93 79 58 72 52 37 42 41 39 99 94 102 78 66 65 68 89 119 113 91 87 86 93 120 121 141 185 153 160 164 169 127 118 155 120 97 74 89 99 100 97 115
17 35 39 41 10 9 44 64 64 56 56 48 19 39 88 87 85 91 95 77 72 68 90 149 102 101 105 118 113 167 125 66 92 146 134 149 142 183 146 150 158 123 86 97 121 105 88 102 94
9 22 22 32 2 29 51 46 93 41 30 57 30 6 76 99 99 106 100 83 78 78 101 89 107 112 115 105 187 258 133 88 202 215 0 96 147 153 170 156 154 116 105 119 108 98 79 89 76
33 34 14 -3 -9 79 54 38 83 31 21 41 82 19 35 127 88 106 97 66 91 94 105 113 125 169 167 165 202 143 135 180 125 15 40 145 143 140 135 167 140 156 145 134 97 94 82 75 69
5 13 16 -1 14 40 58 52 72 39 30 20 63 17 67 117 105 131 80 83 94 100 108 124 100 153 184 162 146 110 175 104 123 60 87 143 306 250 98 131 165 181 144 105 85 91 90 72 62
10 28 -4 -9 18 23 46 67 33 51 -3 81 85 42 16 141 158 83 105 112 96 98 108 120 95 154 139 148 178 205 140 51 -1 94 83 -276 134 95 110 167 175 149 117 96 76 86 85 68 60
42 38 20 -13 2 44 56 90 50 50 43 30 41 29 111 140 117 86 116 118 143 107 115 125 85 130 152 112 139 260 215 135 5 70 52 -1 86 48 123 134 177 141 110 93 76 87 95 99 60
35 53 3 -13 49 67 50 75 28 16 22 46 72 72 117 103 100 76 86 82 107 95 128 119 105 126 95 89 152 143 96 68 136 111 75 168 112 86 88 148 170 147 111 103 89 90 88 42 49
46 32 -2 16 60 37 25 13 24 37 38 -2 9 29 49 125 87 63 81 91 132 163 116 103 121 182 91 87 79 77 56 91 179 172 181 222 217 111 125 177 152 170 108 110 90 73 39 38 25
62 11 24 8 24 43 25 7 13 5 24 -1 -9 49 75 70 72 69 72 90 133 180 106 117 142 198 128 73 41 63 37 96 138 195 190 152 226 250 153 166 117 121 98 110 87 60 55 33 21
70 20 26 14 31 35 26 10 -5 19 9 -35 20 11 45 27 70 78 79 109 155 205 122 109 145 160 88 20 33 67 76 73 141 186 119 146 475 281 243 175 100 101 103 96 57 65 51 31 13
51 45 35 22 18 33 37 12 27 8 31 12 16 15 23 47 56 79 95 129 138 163 138 117 136 140 77 38 40 56 93 119 153 190 256 401 594 405 228 161 85 60 83 68 54 63 39 25 26
79 70 44 24 29 39 26 18 32 18 18 31 33 15 35 62 96 74 112 126 129 136 187 124 142 141 89 65 67 70 83 124 230 335 500 706 688 470 373 136 31 78 49 58 81 69 43 32 27
109 62 49 29 -1 32 37 21 -19 13 42 42 24 15 70 67 75 84 124 133 124 131 160 134 155 145 143 79 70 95 141 227 442 441 555 879 660 761 514 159 78 90 89 67 70 56 37 30 20
102 81 51 38 27 52 72 28 0 69 89 43 27 19 79 99 85 87 140 133 131 147 150 155 165 157 140 72 92 172 288 463 672 735 803 795 499 417 373 97 118 83 109 71 18 10 -2 16 13
112 53 26 31 7 71 65 12 17 17 57 52 22 26 61 111 113 99 163 134 133 163 152 166 204 163 89 70 139 216 323 521 696 614 503 269 209 228 65 42 118 114 120 5 20 27 40 44 25
41 44 40 34 25 98 73 39 24 14 31 21 62 35 45 94 99 148 189 138 144 164 154 177 214 121 54 83 194 217 294 273 193 119 13 187 217 41 -34 131 127 192 -34 11 46 80 46 36 32
50 66 100 44 40 51 50 47 19 11 13 23 20 23 51 69 96 156 194 145 131 147 122 188 187 93 68 98 168 224 176 182 200 101 89 -3 -69 -37 179 88 79 29 42 94 122 61 62 45 36
35 34 53 39 33 42 33 41 -12 -9 29 16 1 26 -2 71 113 132 185 137 128 110 116 155 146 83 105 144 187 170 271 232 178 107 175 70 69 176 186 110 -45 80 154 105 47 38 27 28 15
65 25 25 57 81 99 19 34 40 12 25 41 25 29 2 32 87 125 146 123 135 96 91 116 125 86 86 146 184 204 232 214 159 92 218 271 321 139 125 68 62 81 8 15 -49 -20 0 17 21
48 25 39 60 64 70 51 59 1 -16 2 23 23 61 42 19 66 117 132 105 107 123 99 99 112 115 83 122 144 219 176 198 183 156 274 191 -96 -15 -70 20 4 48 38 -5 -55 -10 16 30 49
17 32 27 60 63 60 45 59 36 10 18 39 4 23 44 39 49 89 124 115 111 130 100 109 108 127 129 118 139 137 160 200 202 168 149 78 -85 -67 -52 -70 -69 3 -29 -52 -76 26 -12 -10 17
58 51 50 49 65 53 28 46 50 22 86 24 42 13 23 40 47 90 157 127 102 147 109 109 112 127 145 139 93 125 129 185 195 176 86 5 -53 -96 -111 -65 -88 -94 -49 -46 -42 -29 -36 -9 10
50 44 88 61 59 36 0 89 32 5 11 18 26 18 35 54 61 94 129 115 71 137 115 97 102 119 139 145 92 72 92 122 142 174 115 50 29 8 -55 -65 -78 -51 -87 -90 -51 -18 -13 14 59
69 46 22 79 54 80 76 16 13 0 15 17 36 20 24 35 64 77 94 113 66 110 110 111 78 87 100 112 105 95 93 81 93 129 125 147 118 79 1 -43 -74 -94 -87 -67 -35 -18 16 73 89
-1 21 58 71 76 92 36 -1 -16 70 21 -2 8 11 24 24 47 79 70 102 68 78 87 93 81 58 84 67 81 77 88 88 83 66 95 142 136 150 29 -27 -77 -76 -51 -11 -39 15 48 91 107
67 49 61 78 62 76 94 39 72 71 11 19 92 49 39 30 18 98 63 100 84 74 87 87 79 75 91 88 77 57 51 63 62 73 71 69 66 86 68 19 -40 -75 -32 -2 2 48 63 96 115
23 25 51 70 86 36 31 57 2 40 30 84 30 24 49 45 43 77 73 91 85 90 102 105 71 86 59 108 92 73 70 55 41 45 57 56 38 29 42 3 -11 -29 -8 38 57 85 115 125 136

GFSSGP_con_3kmhel_090.txt.gz
Helicity
22 2 9 13 31 41 3 54 55 141 62 117 149 110 49 34 48 98 48 36 50 60 83 64 88 133 128 103 126 119 106 108 131 140 131 135 134 121 119 93 74 52 77 87 88 91 114 108 131
10 22 12 15 35 -3 3 62 91 77 124 144 114 50 17 8 51 67 17 26 88 34 62 99 79 101 137 118 127 120 115 113 147 159 160 154 135 118 102 84 62 73 74 80 92 88 91 114 125
-41 -38 12 42 33 18 -57 51 103 69 97 85 55 60 12 43 117 113 115 82 63 59 32 105 103 83 112 114 122 107 118 111 147 171 163 155 138 121 117 116 92 85 68 71 79 98 89 122 106
22 18 29 69 6 -68 -45 57 92 137 32 87 11 -8 87 131 114 185 111 71 64 73 71 114 116 114 97 99 74 100 102 81 120 97 442 124 155 143 107 129 101 87 89 66 76 83 95 119 87
18 28 34 16 -5 -16 -7 106 89 129 6 60 56 -2 37 145 207 171 140 116 73 93 135 98 114 143 124 87 98 145 240 202 226 197 -6 251 90 146 106 142 117 91 110 76 51 76 90 99 45
51 33 53 28 -32 -17 76 107 134 141 18 21 95 20 2 127 129 163 184 95 80 92 120 113 135 184 153 106 155 232 262 275 183 177 105 114 158 100 44 93 108 124 140 109 61 73 91 97 62
17 36 32 5 -9 14 11 97 105 101 43 3 57 50 55 138 192 173 137 84 88 94 110 125 108 175 201 170 191 191 154 136 70 107 81 -61 -1 53 95 65 119 180 177 122 88 85 89 92 39
27 42 28 10 12 -7 17 99 87 112 57 28 52 105 37 191 147 118 127 74 95 97 105 129 121 174 161 182 188 164 151 136 167 121 93 43 19 102 152 185 143 180 142 114 92 78 77 76 63
2 53 60 3 -6 -38 62 104 61 86 80 25 13 40 106 148 153 80 139 136 91 85 106 126 118 174 127 176 215 201 119 100 112 39 54 106 61 17 104 98 135 155 156 106 90 86 100 83 58
42 64 28 2 -9 18 66 46 51 24 76 48 53 102 157 212 157 128 140 89 65 78 110 126 123 132 185 200 210 203 182 143 80 100 154 41 7 203 106 106 132 154 125 103 96 95 92 77 58
30 72 5 -19 30 52 41 59 13 73 40 18 49 -11 56 148 103 121 97 83 151 144 182 158 113 102 167 181 211 138 158 146 134 91 166 16 30 57 112 172 156 188 132 143 121 94 86 74 75
22 29 20 4 20 65 51 27 25 -16 -4 33 33 18 39 80 127 142 107 107 112 278 214 213 135 119 168 324 198 120 119 147 157 151 223 97 91 95 194 201 167 151 137 123 98 48 89 66 79
11 19 15 14 30 20 23 54 29 26 24 35 33 -8 34 69 120 48 159 128 142 303 233 184 152 123 145 209 138 62 46 104 177 198 196 179 152 148 183 177 163 154 127 97 54 78 74 66 99
-29 -4 14 18 32 42 41 27 33 37 31 22 56 38 26 39 111 83 169 138 199 332 206 164 147 125 131 160 162 71 35 68 131 162 180 155 140 117 335 226 149 171 108 66 72 84 70 91 62
52 72 72 37 38 60 21 33 20 32 30 43 34 50 51 23 59 152 155 201 245 231 299 139 182 120 121 168 134 98 86 88 188 156 149 164 126 234 317 282 169 152 125 106 126 90 74 89 74
105 93 124 41 43 23 -9 59 30 33 7 45 76 64 49 48 96 169 142 201 227 249 282 193 199 139 179 198 129 120 115 120 159 194 150 210 324 588 388 340 254 132 134 135 117 87 64 54 64
133 145 99 73 51 28 -8 44 39 -13 13 101 53 67 19 89 119 139 160 236 220 219 302 235 166 170 202 220 182 148 155 179 194 263 318 382 555 564 337 355 264 173 171 157 142 83 65 66 62
154 121 78 81 53 30 27 88 63 5 18 83 91 20 14 101 146 141 158 266 214 287 349 253 175 210 234 263 237 165 200 271 320 417 498 612 766 751 524 580 438 217 187 164 143 69 80 32 25
105 134 133 117 14 -20 30 60 77 25 32 28 114 93 71 39 118 205 249 336 234 401 318 251 195 242 240 229 157 158 211 319 416 501 449 620 980 734 552 404 303 185 160 180 63 61 39 17 19
59 91 86 87 93 45 59 31 47 48 26 28 24 44 105 69 115 219 373 334 230 364 267 227 176 219 203 160 128 164 186 204 318 518 796 779 744 621 479 389 334 218 176 261 62 49 115 76 50
61 61 92 60 141 61 97 93 56 31 4 8 11 24 4 86 162 287 403 310 200 355 266 203 154 204 214 203 221 295 273 214 163 141 218 103 164 243 214 197 290 193 162 16 57 78 83 59 52
53 59 45 103 176 173 84 126 48 -1 -0 28 142 82 37 17 111 271 335 309 207 266 261 182 161 211 220 248 210 206 144 161 131 169 134 205 233 306 313 272 94 16 5 40 47 33 -13 76 69
15 46 37 30 92 140 148 143 79 26 30 13 21 98 66 83 -1 228 256 302 188 198 235 178 154 217 258 198 217 205 202 221 169 146 98 85 96 126 118 30 20 6 73 22 44 42 -15 26 53
57 83 67 12 47 111 89 106 77 28 -4 -6 29 62 114 94 38 156 238 296 197 175 214 194 160 218 281 268 199 207 219 229 180 121 75 134 118 20 18 71 42 -12 -12 -29 5 -4 45 -34 28
81 101 70 90 118 97 30 51 69 -0 26 31 64 52 56 105 111 140 333 339 224 275 257 174 165 203 252 280 252 194 184 249 212 174 148 150 138 25 -85 -29 -24 -76 -68 -31 29 75 -70 -36 75
125 82 158 99 182 140 69 74 -4 -7 22 57 40 64 25 71 120 156 298 339 230 274 247 151 156 191 232 250 229 187 174 219 186 187 177 188 91 -9 -107 -142 -86 -47 -51 -63 -8 33 -21 -31 -31
54 81 71 66 -5 -38 102 148 161 13 38 52 42 43 92 70 68 95 192 336 247 249 231 193 145 177 191 193 171 192 175 150 163 181 172 210 129 6 -48 -61 -83 -93 -93 -75 26 34 -20 14 27
89 20 13 67 95 146 55 12 50 -33 31 25 41 47 36 29 79 153 185 352 287 232 216 209 124 153 151 160 147 149 186 178 126 113 156 135 62 -67 -44 -23 -53 -90 -77 -28 -5 -7 44 63 83
61 35 66 71 27 58 87 49 59 162 205 22 51 104 104 95 35 145 172 349 275 220 225 202 148 135 178 147 127 131 147 178 163 173 119 95 53 -14 -32 -33 -12 -16 -7 -19 -19 7 56 61 84
2 23 37 97 93 50 25 38 -20 1 103 48 69 42 42 34 48 56 178 291 250 239 222 192 158 139 153 161 118 104 97 110 123 125 150 127 79 52 16 33 5 -27 34 5 -4 -4 77 67 84

GFSSGP_con_3kmhel_093.txt.gz
Helicity
23 8 34 41 70 53 14 14 81 69 165 149 167 161 149 121 133 120 19 53 84 65 51 59 82 98 101 102 108 99 84 101 114 134 120 118 117 124 122 125 124 96 88 95 78 88 103 122 153
10 29 47 86 91 51 38 15 -15 60 111 157 132 111 124 127 71 63 79 28 54 38 48 52 65 86 85 86 99 110 93 104 118 126 117 113 122 132 118 97 87 85 76 73 66 84 101 116 153
6 40 91 93 79 73 21 -7 122 136 126 107 83 94 56 156 93 93 94 89 72 73 102 59 57 65 83 95 102 114 114 133 155 190 328 240 92 118 115 100 92 89 77 55 54 73 81 111 132
56 72 69 94 8 -32 47 43 138 168 128 119 115 68 99 100 192 101 74 113 155 136 113 74 64 72 89 102 123 105 99 145 274 313 269 262 259 74 105 120 90 100 83 61 59 56 78 81 79
81 99 95 95 20 -31 -54 63 117 153 151 129 145 92 103 210 178 145 161 167 237 188 127 110 98 93 104 127 122 118 100 149 313 352 178 174 126 133 59 69 98 99 98 76 56 51 65 51 81
126 121 133 80 -3 27 63 122 178 190 186 155 143 106 95 197 241 229 189 159 229 190 167 135 125 118 118 134 119 128 159 255 274 215 161 183 229 116 85 39 102 103 119 98 56 59 51 51 114
80 115 67 37 11 -40 -32 61 156 167 172 107 81 181 157 233 231 193 140 136 165 196 162 140 125 128 127 130 176 233 274 235 205 156 132 184 129 107 12 84 70 144 125 97 72 35 55 78 102
68 118 69 -27 -9 -41 39 31 135 183 166 118 104 141 232 112 200 195 144 160 150 141 161 136 127 140 127 146 152 196 227 203 149 134 128 170 101 39 60 40 78 141 133 67 58 79 65 87 137
26 140 97 -6 6 -53 -32 39 69 83 146 129 86 101 181 276 305 278 187 143 138 128 101 115 167 140 128 137 117 150 178 169 140 122 115 143 62 50 -21 111 121 129 108 98 105 79 81 74 109
85 181 84 45 -11 -39 -4 22 52 118 113 114 57 20 321 374 329 252 184 167 187 108 76 132 149 127 153 143 127 153 191 193 170 164 135 111 31 91 35 175 137 124 106 100 104 91 98 97 145
84 97 18 -7 -46 -98 -22 16 63 73 161 106 131 73 344 328 214 189 171 146 105 140 176 204 144 185 142 179 154 204 238 150 133 140 110 82 38 -35 79 183 173 200 127 126 139 109 95 99 134
62 39 47 43 31 2 -13 18 58 75 82 33 25 48 171 149 162 131 91 105 232 296 348 287 204 184 166 159 176 210 214 131 121 134 70 129 42 95 320 320 266 182 121 125 124 124 102 98 125
62 41 30 8 22 52 26 8 49 105 68 66 39 75 66 102 58 58 101 215 395 505 442 338 225 190 166 167 176 194 151 107 112 163 139 112 128 122 139 222 210 172 91 105 116 111 100 112 140
55 63 38 6 17 14 52 69 91 32 58 89 52 59 77 71 61 110 212 360 430 480 433 322 219 188 179 146 139 114 117 111 139 168 134 109 159 90 221 220 184 142 68 97 94 91 113 133 140
82 74 52 50 14 50 80 92 101 17 35 84 93 94 80 152 90 142 217 354 385 395 385 310 207 187 174 123 120 128 137 104 160 128 131 101 162 159 208 200 162 93 78 101 124 112 148 141 118
133 148 114 88 49 58 90 17 65 26 49 38 71 138 131 145 128 187 283 405 390 456 366 303 209 179 150 128 144 146 137 123 108 176 124 129 154 296 259 260 211 115 101 91 81 117 131 113 95
156 155 137 132 105 107 86 51 65 22 82 67 89 81 168 128 151 249 293 433 393 421 393 308 225 213 202 183 155 183 161 158 131 160 129 111 131 227 240 389 276 210 116 147 95 136 142 128 95
234 178 154 125 87 48 67 59 28 -10 85 71 54 104 121 177 238 279 356 428 415 428 392 323 250 243 223 217 196 193 188 159 155 134 147 148 135 269 419 349 288 253 201 192 177 136 125 89 77
147 123 108 123 89 93 39 49 55 123 173 115 49 156 157 150 215 315 403 553 574 499 447 343 285 241 226 229 214 186 140 162 185 162 178 206 254 386 534 659 305 216 229 207 170 144 138 102 46
94 99 98 94 83 80 71 -4 2 102 49 67 43 80 132 124 281 446 575 673 620 519 437 355 274 216 225 196 119 82 111 166 230 271 315 352 393 552 570 399 464 415 233 166 168 177 167 209 98
76 100 116 130 96 127 84 -16 16 107 16 58 66 46 83 153 350 551 586 629 576 501 435 348 245 211 232 205 173 175 183 226 288 370 427 550 553 727 757 627 599 416 278 152 156 184 158 148 153
115 74 44 62 183 132 106 -21 28 115 156 15 7 36 -22 56 376 564 595 589 474 420 355 312 236 219 252 244 201 185 135 122 115 226 395 658 895 938 728 604 456 430 195 173 221 236 86 74 100
128 80 50 138 163 91 67 122 -89 41 171 35 8 62 104 49 322 428 456 491 408 382 338 297 240 223 243 229 208 174 145 110 67 114 123 145 285 311 371 346 304 229 328 279 265 55 38 41 49
109 81 83 191 126 133 37 94 -115 61 91 72 -25 8 92 140 350 351 371 445 404 318 311 304 238 213 244 230 201 183 137 86 61 108 125 140 170 235 257 254 219 236 280 126 -53 21 59 76 61
175 154 264 197 202 125 26 18 -12 16 36 31 -10 24 152 162 349 415 456 436 493 333 296 308 243 216 250 245 234 187 119 100 119 145 99 99 95 137 130 135 124 7 -40 31 102 31 59 41 67
128 158 286 202 120 49 39 31 9 36 19 133 5 74 133 200 324 393 411 443 432 328 296 297 249 232 238 249 212 202 149 102 130 125 127 100 132 133 8 63 37 -56 -87 16 79 89 33 65 111
150 167 91 84 66 6 -88 2 -9 126 13 52 23 96 118 165 284 324 342 385 387 339 302 307 259 232 229 233 217 204 194 141 128 86 95 79 112 117 64 -2 -9 1 -13 11 101 25 -23 -13 -8
106 124 141 134 49 16 -53 13 184 306 190 87 93 108 164 133 221 245 275 399 432 369 293 279 262 242 196 216 208 214 202 166 135 112 104 77 93 117 67 5 -73 -92 -67 42 110 7 -11 -1 94
45 64 82 120 127 91 -65 -108 28 -60 65 185 259 184 164 153 119 228 303 393 460 407 303 278 250 219 198 214 200 199 194 179 149 130 119 89 75 100 71 34 -15 -42 -40 -34 -34 -62 36 10 -51
37 17 33 78 83 53 49 44 26 15 14 216 366 479 108 113 83 75 287 400 437 446 326 271 258 232 195 161 203 178 187 200 195 173 133 108 62 45 11 -36 -53 -46 -55 -48 -26 -22 2 -7 -27

GFSSGP_con_3kmhel_096.txt.gz
Helicity
43 48 41 62 50 44 82 49 -13 23 66 49 87 109 89 137 112 140 53 24 85 45 20 44 59 90 108 111 102 136 157 150 147 149 134 98 114 126 135 147 146 146 138 133 134 123 113 115 162
38 60 71 75 67 60 89 51 57 10 95 70 107 102 134 163 174 190 81 12 52 13 15 44 66 68 84 96 88 98 118 149 174 180 173 133 116 112 108 118 115 131 140 112 107 99 103 134 167
58 75 97 97 69 52 72 67 54 2 65 114 128 106 115 106 109 87 60 51 44 46 67 47 44 44 54 78 100 106 122 161 216 287 336 340 232 123 93 79 96 123 132 97 76 96 132 148 156
95 114 110 103 35 10 -2 -16 20 32 64 119 115 121 225 90 129 75 131 76 94 83 98 78 48 44 54 87 110 132 147 198 262 346 358 345 330 323 165 71 44 101 119 90 80 99 122 134 114
123 137 141 92 -3 31 -14 31 28 72 135 149 140 113 207 111 132 155 138 102 159 120 89 122 100 96 85 104 120 134 177 271 277 328 311 328 321 297 308 148 56 54 92 101 96 82 106 120 140
155 164 158 92 0 -29 -71 1 42 86 155 111 169 188 168 166 254 193 227 188 170 161 145 132 130 116 110 118 118 132 214 289 299 356 242 181 128 159 258 203 85 41 92 119 91 89 111 129 182
145 195 129 86 36 -67 -12 23 135 122 155 102 122 193 181 228 167 201 241 264 206 177 173 155 135 156 143 140 101 123 184 270 273 223 149 96 59 109 251 139 23 49 125 101 79 96 118 147 178
130 178 124 83 66 -48 0 50 8 136 79 107 125 160 171 72 153 234 246 257 217 174 200 186 141 150 158 173 146 176 216 214 201 181 141 115 94 110 180 141 277 36 118 68 87 107 153 171 184
149 206 125 85 85 -2 31 85 -42 6 101 119 108 129 79 227 278 335 320 253 176 146 182 195 108 119 150 168 170 175 172 209 183 189 201 182 165 159 139 238 113 20 85 49 94 105 146 164 160
203 222 102 109 62 -17 -2 75 2 38 43 99 87 125 244 362 370 381 321 227 197 174 214 163 107 119 133 137 173 153 162 201 218 213 201 165 134 136 136 89 80 84 67 75 119 79 159 205 200
171 181 60 -10 26 21 21 55 32 86 46 52 82 106 191 327 348 337 248 216 202 166 236 161 130 116 149 163 146 170 165 207 219 162 158 126 95 122 81 97 89 96 116 144 108 104 156 244 175
148 146 95 11 28 68 11 72 96 74 12 63 62 67 172 249 247 215 187 145 203 255 206 217 183 198 181 185 175 160 174 203 169 109 107 128 105 88 80 95 279 217 222 125 104 129 195 205 211
171 96 78 42 56 81 87 110 85 54 -64 48 73 92 107 163 186 134 144 146 251 290 289 306 255 233 208 208 188 167 182 175 144 91 96 97 96 89 76 176 431 253 184 138 94 110 149 250 180
116 110 83 97 80 80 69 76 59 -2 37 93 95 120 141 142 132 151 244 227 277 305 400 372 294 238 224 220 206 174 153 164 129 110 105 119 108 135 197 400 237 217 169 156 65 93 148 245 177
103 104 115 111 78 70 37 -3 22 43 58 52 45 44 48 159 170 174 283 346 402 396 474 396 307 231 165 190 189 154 154 158 127 128 123 141 117 168 190 430 211 185 144 146 91 145 194 273 203
150 131 93 122 99 69 58 -29 -3 30 26 34 35 31 35 46 122 221 302 376 473 514 471 394 286 208 175 205 179 154 138 127 145 107 131 130 127 185 211 154 145 112 151 128 103 156 201 245 172
149 120 124 112 92 106 84 47 35 46 57 16 -12 -20 56 120 159 255 343 456 476 470 473 373 269 216 199 206 172 145 144 138 110 122 120 116 126 180 226 163 168 195 164 127 131 198 201 240 186
183 167 153 136 87 67 74 53 70 60 8 10 -8 -57 53 77 145 316 435 452 502 448 422 339 279 265 233 213 205 210 199 165 105 109 124 131 144 167 209 137 140 152 155 167 181 200 174 203 216
169 137 109 143 108 93 94 55 96 29 17 -27 -23 56 68 103 166 407 516 524 518 478 459 369 343 293 271 223 227 199 158 120 134 90 130 119 142 219 215 194 155 244 241 163 188 213 152 188 219
118 105 59 61 65 83 65 42 11 -27 -13 -42 -4 0 31 139 275 424 538 538 517 525 421 376 330 296 246 189 207 142 108 114 94 102 104 112 186 309 298 232 300 262 313 207 200 212 256 257 188
91 102 98 84 67 123 175 78 67 28 -24 -112 -35 17 120 115 273 420 523 541 555 534 424 389 325 298 255 205 247 145 134 116 115 114 103 121 133 209 270 354 501 280 378 343 229 195 210 181 236
105 80 89 113 143 157 136 82 85 69 35 35 45 -18 52 126 164 409 579 587 527 512 397 357 331 301 246 238 235 154 112 134 128 147 199 231 150 175 309 456 507 324 543 344 186 161 187 219 245
136 113 122 115 180 188 233 222 81 36 -1 88 44 33 28 46 200 397 455 573 559 510 392 342 325 272 231 221 205 142 114 108 134 183 241 284 308 305 322 439 600 618 502 437 213 234 210 183 168
75 104 117 137 191 267 245 219 55 54 40 69 102 0 -8 -41 106 288 513 639 590 452 363 344 305 247 218 207 180 142 128 115 134 158 172 217 418 600 679 722 668 602 544 432 304 202 197 180 226
71 171 245 256 319 267 159 150 128 26 43 83 113 6 -6 -30 71 340 497 570 493 408 389 347 271 239 202 184 167 139 127 106 86 104 84 138 253 370 637 593 578 464 319 301 174 210 215 135 53
89 204 262 274 242 188 142 168 95 -16 -33 137 134 60 24 29 101 339 405 547 460 401 360 320 251 232 204 168 147 140 105 64 40 34 46 78 71 106 126 215 273 274 242 169 198 190 170 63 74
121 183 152 168 189 177 156 113 -7 34 -4 144 238 112 -68 55 218 297 342 450 393 362 325 298 236 212 195 162 137 133 92 92 86 42 62 100 101 148 209 266 302 334 301 185 159 135 40 72 57
168 134 170 190 175 113 115 9 15 -28 47 218 199 176 134 45 200 252 305 317 305 304 321 237 206 217 186 175 153 133 99 49 94 59 51 81 84 120 147 139 158 206 146 79 -37 -11 57 81 47
108 131 126 146 181 136 7 -15 95 -31 123 279 175 333 278 117 -13 175 224 212 277 332 314 231 199 218 188 188 185 134 131 101 50 108 71 94 99 87 63 83 72 30 -8 -73 -118 -87 13 93 58
77 57 122 199 106 43 34 13 -76 -74 -121 27 125 353 494 434 141 100 132 223 290 304 296 259 212 210 207 203 202 150 133 147 143 69 110 101 107 94 58 41 30 3 -30 -60 -51 -27 15 40 -3

GFSSGP_con_3kmhel_099.txt.gz
Helicity
52 64 60 68 59 63 58 51 17 8 28 27 52 74 77 88 85 63 146 -7 48 34 -1 -5 44 85 104 121 141 133 133 156 169 180 212 188 205 191 171 167 169 167 157 168 163 162 165 145 160
72 73 91 77 74 70 91 22 66 42 -4 48 90 134 95 88 132 182 192 13 52 45 4 -31 52 75 92 113 130 126 139 144 168 196 209 221 219 215 169 148 148 150 133 104 139 141 142 133 179
86 102 110 98 89 83 93 51 124 111 -17 28 57 112 109 66 121 150 14 39 40 45 2 -15 53 71 70 84 133 153 142 167 190 207 218 219 244 142 213 146 110 110 104 98 100 139 137 145 177
122 150 145 97 44 43 54 55 82 86 3 24 61 111 118 94 136 78 116 115 98 35 9 21 56 70 80 85 107 155 180 191 229 283 264 226 229 280 159 179 91 82 89 78 102 109 135 162 171
159 165 171 84 3 42 51 7 35 21 29 13 87 113 114 101 131 159 192 120 106 63 57 65 70 77 107 113 124 150 204 288 307 310 264 272 268 247 217 222 160 74 80 82 104 144 114 153 190
200 184 195 73 18 41 36 24 49 78 74 7 158 161 115 104 153 153 192 131 118 140 102 123 110 95 106 141 156 164 256 283 310 297 300 300 286 238 238 211 113 193 176 230 124 127 136 192 185
200 221 141 69 -10 -24 10 38 73 114 56 34 176 183 102 103 148 194 184 180 182 182 158 152 154 148 133 125 158 180 269 300 291 233 206 185 188 221 189 139 174 238 274 221 120 125 151 208 195
200 240 179 67 28 -86 -20 87 82 196 129 65 160 103 88 114 235 246 227 241 238 214 180 166 173 172 139 142 159 192 260 307 278 205 153 140 155 145 141 164 185 212 319 95 112 116 178 221 162
202 257 255 89 91 33 25 158 79 145 116 13 80 109 64 258 323 319 288 274 244 195 176 182 206 163 156 168 176 182 246 264 241 188 165 164 135 127 116 144 128 262 220 75 141 109 212 206 122
251 257 260 139 130 29 -19 28 95 141 215 169 30 92 152 352 366 325 310 288 251 240 173 167 191 144 146 154 179 212 247 215 194 218 229 194 173 130 107 147 187 227 231 274 202 146 240 226 143
244 261 258 161 112 62 -7 29 16 149 206 109 91 53 77 194 274 289 289 278 229 177 198 165 165 130 130 141 177 205 246 255 257 248 225 214 177 129 150 154 181 180 155 191 180 206 259 207 155
233 202 146 103 81 66 22 9 76 143 164 60 98 90 121 164 191 228 262 201 226 245 208 194 169 139 125 164 176 173 207 225 231 231 234 222 157 140 169 165 175 251 224 141 226 172 219 215 174
195 179 136 93 57 67 57 21 73 172 14 145 114 114 113 146 139 148 201 199 231 255 274 252 232 153 162 166 185 179 149 178 196 218 175 152 147 143 106 139 118 196 227 171 206 198 223 186 149
197 142 103 105 63 64 66 47 108 45 67 126 100 87 107 125 134 152 231 205 278 274 297 306 257 191 212 159 193 196 195 158 184 195 128 106 146 118 137 126 153 211 181 213 228 227 215 176 160
153 147 147 149 145 83 75 23 79 65 31 68 106 102 83 108 130 135 233 290 305 304 354 357 313 242 215 180 205 221 230 194 157 181 133 81 144 138 135 168 230 393 308 212 230 285 261 208 143
198 184 154 130 146 112 136 -4 38 38 55 58 51 3 -5 4 68 148 214 277 321 389 387 423 352 283 229 222 229 226 230 199 156 170 124 124 163 192 154 204 294 381 214 187 243 272 230 197 157
197 213 213 172 153 127 132 84 51 76 49 25 44 34 6 -24 -4 71 224 335 392 445 468 493 396 311 233 208 227 234 232 202 184 157 142 135 174 160 174 277 455 161 227 157 225 287 250 206 155
235 222 177 142 107 94 94 69 61 41 32 34 43 31 3 -17 36 16 160 340 426 493 487 526 413 330 249 230 242 252 249 220 216 180 145 123 151 160 214 216 154 206 244 139 212 295 279 216 199
152 165 149 159 118 99 62 35 35 47 41 14 -2 -16 -25 7 -25 -26 79 354 456 474 508 523 423 328 308 272 288 263 259 257 223 155 120 113 165 203 220 251 226 220 194 73 205 317 302 261 254
168 156 148 98 79 85 62 2 25 41 77 91 -32 -45 -39 -3 2 34 138 312 380 482 514 519 380 314 303 266 261 267 249 214 184 116 72 94 152 253 197 209 201 171 87 120 191 303 370 325 209
137 130 153 91 114 112 71 -47 -6 31 79 55 -12 -39 -20 -15 7 113 180 279 396 445 518 511 359 287 293 283 327 283 258 192 126 67 60 75 108 299 215 238 164 169 134 150 191 311 332 328 290
83 95 97 147 153 95 88 -30 -32 45 58 62 11 13 75 -84 -3 106 238 282 362 407 512 475 327 281 286 304 276 227 215 240 145 48 49 71 117 153 219 244 215 307 239 306 215 249 330 353 324
98 107 167 216 220 201 169 168 66 63 66 56 66 61 123 84 38 82 216 272 376 485 545 484 338 278 298 296 232 237 247 240 166 97 63 72 75 99 215 311 350 432 380 292 438 202 277 288 335
140 138 165 185 197 152 114 164 -8 43 23 58 51 49 70 131 71 56 169 282 412 427 489 442 344 281 275 243 196 224 249 261 195 105 101 111 137 155 166 290 476 528 511 371 447 400 299 280 231
176 229 191 198 262 179 80 118 187 81 8 19 19 17 95 150 126 92 145 255 412 492 411 391 313 296 249 211 183 201 233 226 152 92 104 123 184 228 251 240 369 594 468 531 391 622 354 191 297
107 174 214 183 175 127 147 187 149 80 108 75 77 109 101 187 123 114 113 313 398 468 392 358 284 299 225 195 165 180 207 163 109 86 123 125 158 247 266 359 407 477 573 630 481 439 241 257 198
114 127 129 121 75 122 149 177 161 180 134 100 142 179 204 394 257 109 143 307 392 369 376 347 290 269 194 156 165 166 186 160 133 79 65 107 158 188 202 315 494 662 612 557 532 293 241 291 164
108 110 195 228 164 139 179 153 121 75 19 17 19 294 437 503 397 121 170 277 312 318 311 309 221 237 171 131 148 148 151 152 140 108 39 84 89 94 147 192 174 280 314 168 212 229 149 211 133
135 108 124 158 189 167 113 104 57 42 -65 -87 -51 280 524 494 385 254 164 106 125 199 276 281 224 200 150 122 144 142 137 163 186 133 93 71 104 101 106 150 238 340 348 297 239 153 120 85 -31
80 153 161 195 220 196 146 78 61 6 -75 -159 -163 148 449 390 401 294 167 104 91 42 188 233 231 190 126 98 132 141 134 166 163 144 111 129 112 110 108 130 145 152 242 264 170 129 106 -32 -80

GFSSGP_con_3kmhel_102.txt.gz
Helicity
74 88 88 104 90 90 62 67 28 12 3 4 24 36 36 56 67 43 106 59 34 37 -12 -10 27 100 132 146 141 116 123 127 138 140 148 157 173 175 193 194 189 197 174 160 156 161 153 127 137
103 112 127 106 110 102 72 66 109 44 -11 0 24 39 45 33 75 85 148 11 62 50 4 -25 -16 45 139 146 152 124 115 141 144 158 183 188 190 192 190 190 164 197 179 166 158 165 162 148 134
129 133 129 127 114 115 78 86 92 132 34 11 34 27 38 33 51 53 64 95 64 38 20 -32 -17 26 99 133 151 149 129 134 149 166 202 200 216 215 198 182 159 139 117 106 120 141 159 171 202
143 168 162 149 69 42 56 56 110 117 54 25 44 62 46 62 68 67 129 153 86 35 22 12 15 65 82 119 149 158 172 165 169 199 231 250 238 228 206 212 202 111 74 69 92 131 182 219 201
208 202 217 128 44 67 16 3 11 64 14 28 63 100 60 68 85 133 187 147 95 41 46 54 56 110 110 111 126 159 194 205 211 229 226 228 225 220 256 390 145 186 103 86 93 150 197 219 183
250 226 239 107 44 60 44 30 61 68 10 -23 87 116 55 75 106 130 177 124 90 90 92 91 95 128 134 139 137 147 195 234 248 252 247 213 216 239 238 178 188 133 46 116 131 144 226 198 194
206 256 217 144 18 26 34 37 98 78 79 97 59 116 55 69 112 150 150 137 128 126 135 125 136 157 151 148 150 181 230 267 273 259 263 247 233 201 190 178 210 161 136 258 236 204 251 274 232
213 231 223 151 50 3 9 74 99 89 160 160 73 118 70 73 185 226 199 154 158 144 138 140 150 177 158 145 150 214 256 248 241 230 252 229 194 198 225 200 139 54 93 189 191 353 378 261 212
243 287 256 184 141 76 24 88 129 85 102 197 124 26 28 102 259 287 224 171 175 156 141 165 161 168 150 142 170 217 256 250 239 225 213 189 190 186 198 158 73 73 161 171 195 346 267 192 190
259 275 266 176 164 115 100 78 32 84 136 159 252 135 62 110 181 270 260 215 195 187 166 162 165 159 149 153 177 203 240 264 259 243 223 225 212 193 160 125 93 139 167 141 269 427 146 190 195
236 215 241 136 128 93 73 68 43 68 112 110 216 196 92 126 173 198 211 222 234 199 150 162 177 159 165 161 161 180 200 272 264 273 248 212 201 160 133 150 111 139 135 147 238 314 238 177 204
222 195 189 111 97 98 65 24 52 73 90 64 124 181 133 154 174 174 185 224 270 239 142 185 205 183 163 162 139 152 211 251 249 244 272 263 260 219 215 142 107 194 206 192 370 394 339 249 198
178 186 155 107 76 90 78 46 64 72 76 117 139 123 139 163 160 151 171 200 224 214 198 233 265 239 188 209 133 169 168 228 205 243 243 269 256 231 163 131 173 196 333 413 412 441 333 271 205
137 93 62 126 94 85 83 32 51 32 39 89 125 159 132 147 135 141 140 131 232 227 232 292 279 284 239 249 153 166 165 195 200 229 239 219 246 173 131 193 173 190 377 538 320 342 293 225 183
141 125 119 134 149 124 64 53 75 60 61 71 73 110 115 83 99 109 105 135 225 269 297 315 319 331 269 250 205 209 190 202 200 194 190 191 179 134 168 191 227 184 234 234 281 268 250 219 190
167 161 168 119 146 154 128 -50 63 109 87 74 70 75 84 73 53 62 84 135 205 282 334 370 350 353 300 276 223 232 219 211 222 202 183 177 155 123 176 214 181 204 151 262 326 268 215 181 190
217 208 178 138 117 113 147 75 49 90 75 51 55 66 82 74 49 64 67 101 206 280 330 387 400 395 328 284 247 239 227 236 213 208 211 204 181 150 164 168 163 240 276 469 387 309 245 183 176
310 239 160 124 137 97 105 70 83 74 57 48 54 67 72 65 38 22 44 74 114 230 341 391 411 417 371 302 292 264 262 228 205 218 241 246 208 164 172 180 263 448 487 512 372 367 258 186 186
201 143 123 127 98 116 83 35 51 72 46 45 37 47 56 29 9 9 6 -5 107 258 339 364 405 440 405 340 336 288 289 234 223 241 242 225 170 182 216 216 361 500 771 483 347 336 233 191 211
152 127 105 83 71 83 68 3 8 55 99 74 68 58 34 17 -8 -61 -45 -22 112 178 251 285 356 448 410 341 324 304 289 243 233 255 213 207 156 176 207 195 174 194 239 258 292 247 193 266 209
171 143 164 93 107 102 57 -59 -27 35 97 78 76 65 45 25 25 14 10 41 124 161 199 269 377 476 413 353 347 314 321 246 257 245 208 194 108 120 257 255 251 235 302 275 310 280 199 283 183
132 119 108 118 110 85 102 -71 -28 5 44 72 71 83 89 61 73 55 16 87 135 188 164 242 333 453 404 376 316 282 266 274 229 208 182 183 83 84 246 266 336 340 307 358 217 97 181 292 278
98 84 95 138 158 132 138 94 -12 117 62 72 54 64 49 34 46 10 39 121 151 201 194 283 371 365 373 312 265 263 223 222 206 220 161 134 114 70 274 240 286 251 285 176 186 159 241 267 340
87 139 141 179 184 135 107 118 -62 -33 -5 81 4 6 32 29 62 70 99 115 150 210 245 270 393 360 297 246 240 256 244 255 224 221 201 160 100 112 103 157 264 306 300 210 269 214 246 325 314
134 181 180 176 212 133 35 75 93 58 66 52 54 48 16 15 45 79 121 113 192 198 263 292 354 373 288 243 240 232 234 231 187 168 167 138 124 131 114 174 257 278 378 442 436 350 316 271 277
118 131 163 132 137 93 109 96 45 69 90 110 42 9 2 51 124 131 203 124 209 197 270 290 357 334 309 257 208 197 203 191 157 136 113 75 93 132 148 199 245 268 384 543 612 444 542 449 236
168 198 133 120 99 82 64 94 76 94 132 71 17 -10 28 63 220 299 334 193 152 215 253 319 325 280 268 237 173 186 177 175 149 134 112 109 118 114 175 209 241 295 344 526 435 774 397 427 272
57 76 214 230 113 111 109 56 62 82 70 55 30 -16 -51 56 256 439 432 327 189 140 139 187 189 236 237 217 144 177 155 155 162 152 149 149 141 128 155 217 241 276 407 516 529 436 505 593 208
108 116 112 133 159 142 56 43 46 77 41 -16 -32 -43 -98 126 337 474 438 281 206 88 146 138 121 153 187 206 121 140 139 137 163 127 140 169 115 133 138 142 192 252 353 404 437 595 455 225 166
75 110 123 196 183 151 158 89 104 48 26 36 27 -44 -99 -76 287 484 358 248 214 5 147 113 102 115 153 170 118 114 126 133 159 130 120 174 187 130 106 117 122 150 263 370 358 244 234 209 181

GFSSGP_con_3kmhel_105.txt.gz
Helicity
89 92 91 99 70 70 61 71 49 48 48 11 58 37 23 22 29 52 54 69 41 65 45 23 33 68 98 120 112 125 125 122 122 127 133 154 149 174 177 198 166 138 133 109 112 128 125 121 129
97 114 134 107 94 88 68 75 59 33 11 8 17 6 13 20 27 48 111 43 49 83 67 35 44 66 83 97 112 111 116 110 115 129 150 158 171 185 188 178 179 183 159 141 121 118 115 114 171
119 131 128 116 106 100 84 70 66 79 37 24 33 7 8 22 20 1 20 79 79 67 52 31 53 58 89 61 100 124 122 108 106 130 166 179 180 186 200 175 156 180 143 139 124 131 131 174 154
118 152 171 135 61 66 63 95 89 148 80 29 38 47 31 17 25 29 67 113 102 52 35 47 65 78 106 96 88 103 115 129 125 140 165 189 216 194 154 241 150 156 112 140 171 150 194 209 174
176 174 190 138 71 100 43 45 55 122 67 30 48 76 54 41 32 50 102 109 91 53 36 53 87 86 117 101 113 124 137 132 143 167 184 193 191 216 244 192 109 99 172 120 189 192 255 221 224
205 193 195 104 61 84 61 46 77 30 50 12 11 43 47 64 59 76 98 96 69 85 52 73 110 130 134 124 115 141 160 170 178 192 207 209 202 169 196 224 216 135 167 96 146 195 277 230 218
198 224 194 159 72 54 66 64 107 126 111 100 45 88 57 32 55 93 110 120 118 111 91 92 104 114 130 134 102 134 169 178 210 207 166 170 183 151 196 213 167 92 134 110 151 209 248 263 209
210 206 200 159 43 16 50 65 84 114 144 111 96 204 123 31 64 97 126 138 131 130 99 95 118 131 134 133 117 137 181 194 210 215 210 206 193 165 155 147 139 145 169 105 169 234 234 259 248
229 222 208 142 89 72 24 50 110 143 140 145 121 203 102 48 70 105 134 141 141 135 122 106 123 129 139 137 114 162 181 183 215 201 212 221 207 190 144 126 131 146 133 115 215 240 289 304 248
270 244 200 179 85 72 62 85 85 106 117 128 128 152 104 53 50 126 114 142 149 159 151 130 113 129 138 139 119 153 162 162 184 186 184 209 203 205 184 147 114 110 61 79 201 265 339 332 338
255 201 220 176 85 75 54 65 56 81 109 66 116 150 108 116 91 99 89 90 159 171 164 167 130 132 151 149 147 172 186 173 181 187 248 231 244 239 225 211 157 125 73 98 247 257 276 297 296
234 187 178 141 81 68 43 40 34 60 74 33 27 90 97 125 122 104 106 92 124 173 171 166 149 158 158 154 152 181 180 176 175 213 216 241 270 248 207 186 137 121 116 148 250 247 280 271 140
216 191 167 111 60 54 55 25 47 33 29 39 59 78 98 100 111 108 77 89 85 99 166 183 188 193 194 172 163 173 179 159 150 178 207 220 260 275 162 199 177 98 133 181 304 303 350 306 119
190 98 82 83 69 68 34 19 47 17 24 50 53 91 101 113 111 115 99 90 114 100 115 166 199 225 219 207 181 176 206 167 175 163 159 164 197 206 230 164 135 123 154 255 405 426 507 321 103
172 114 110 98 110 86 54 5 19 36 62 52 50 70 78 90 120 95 84 84 85 85 120 186 219 257 245 218 204 198 220 195 190 178 157 163 151 188 225 154 107 138 266 232 496 514 383 313 118
162 127 100 116 68 143 92 3 97 120 37 44 36 99 96 94 118 105 91 76 66 69 121 197 254 272 292 270 246 225 251 238 189 181 167 149 120 142 164 139 166 203 355 309 549 530 484 307 147
205 209 127 145 75 94 85 49 71 121 110 95 94 92 103 117 104 77 65 63 68 70 109 180 236 253 320 291 264 245 260 264 217 191 173 131 141 134 147 117 187 326 304 288 450 356 294 250 141
217 192 140 101 129 87 88 74 101 123 67 67 87 82 73 72 71 73 71 70 70 64 72 136 172 216 317 351 293 273 285 263 246 217 190 149 172 145 121 127 176 318 259 290 179 233 324 152 122
155 68 69 101 116 144 81 59 74 77 81 52 63 62 54 49 43 68 50 59 65 60 54 96 167 224 344 367 354 322 309 275 272 239 198 192 200 206 183 146 169 166 277 390 426 390 419 192 157
77 74 81 108 122 75 73 41 34 38 65 65 66 64 49 69 106 141 102 34 22 31 33 58 119 185 250 312 339 320 314 261 267 243 208 199 194 220 157 149 163 175 265 546 387 515 419 323 131
96 74 84 69 75 63 33 -3 -8 35 29 74 48 56 99 121 148 156 120 99 31 47 45 40 61 139 157 257 352 326 323 289 288 247 229 202 213 211 150 174 236 281 365 560 847 552 382 432 215
107 95 77 70 77 77 64 -19 63 65 41 41 63 108 126 127 113 116 113 88 64 59 48 49 63 116 146 286 318 272 244 236 250 233 218 244 220 201 159 184 261 248 342 474 658 424 308 324 257
85 48 55 71 81 91 76 66 0 54 80 37 76 86 74 80 95 88 99 103 86 23 34 60 98 77 163 267 266 264 202 190 209 217 205 223 176 142 179 199 213 308 244 246 184 150 181 276 232
74 91 103 124 103 61 54 73 -48 -20 -20 83 106 66 35 44 55 62 64 63 64 -35 -2 41 74 92 175 251 276 273 193 190 201 197 186 200 157 147 159 162 174 288 255 293 278 253 392 379 166
104 111 112 95 119 75 8 21 76 65 80 74 64 48 33 18 32 37 60 61 95 74 1 17 66 122 168 236 275 239 170 177 170 165 179 190 151 97 164 174 220 193 245 221 282 330 223 119 118
74 89 124 91 72 57 88 42 41 33 93 81 59 38 34 17 -22 -10 14 52 56 110 8 -1 84 122 178 217 206 187 162 171 162 154 138 109 96 107 120 152 187 204 284 339 331 356 315 207 165
153 124 105 115 109 83 95 89 69 106 84 62 27 18 19 -2 -28 -45 -3 44 50 85 19 2 85 129 165 146 182 133 164 158 139 123 110 64 50 66 120 184 220 218 241 387 342 338 450 324 391
50 87 127 141 100 72 56 53 56 14 26 36 30 12 -4 -21 3 -30 19 26 80 73 26 -43 60 144 168 154 92 104 142 128 112 111 89 67 65 46 68 135 180 220 272 332 390 514 395 651 297
72 95 132 112 119 126 89 54 32 9 25 9 -21 -28 -10 -31 -46 -66 62 -67 69 90 29 -22 68 145 152 123 73 115 119 99 94 79 69 70 75 28 65 114 147 146 160 254 376 423 587 545 445
106 90 86 113 107 104 87 45 66 77 9 0 -15 -15 16 14 -28 -22 47 126 195 82 56 93 143 136 145 118 91 121 93 76 75 49 52 76 76 17 60 97 101 109 127 206 297 346 336 397 504

GFSSGP_con_3kmhel_108.txt.gz
Helicity
41 23 32 31 49 52 38 51 62 66 65 56 36 30 12 20 36 56 39 88 75 79 55 38 20 53 82 90 65 72 82 83 86 98 115 128 129 135 138 166 133 127 106 92 86 84 84 98 118
56 55 48 67 73 47 34 51 37 56 86 67 52 14 9 12 11 44 62 47 62 66 63 41 36 66 85 73 52 64 77 75 80 106 132 137 155 155 149 141 145 148 124 103 97 99 96 126 146
59 51 67 99 65 19 46 71 87 101 75 51 35 5 23 30 23 28 51 65 78 68 53 47 50 66 61 73 60 56 67 76 86 106 133 156 165 173 171 138 128 127 121 96 85 93 149 142 164
69 82 108 105 38 32 47 65 124 115 66 72 103 41 35 32 31 18 51 82 83 68 39 90 53 59 31 41 54 59 61 73 96 115 131 150 162 190 190 169 166 122 97 91 86 104 164 166 183
77 119 122 89 10 19 45 68 82 104 109 114 140 58 86 36 45 43 74 83 90 70 39 40 70 85 41 34 35 47 63 88 116 130 143 158 171 154 161 179 151 148 137 127 168 164 162 203 221
114 151 156 92 21 62 32 56 68 65 109 108 101 62 60 66 44 53 70 89 94 85 69 54 79 93 86 56 43 49 69 96 129 161 180 173 137 154 170 151 147 157 121 179 145 185 161 221 218
94 117 111 76 53 68 43 66 71 44 71 63 103 82 90 56 83 49 68 89 98 90 88 86 88 84 76 98 80 71 71 90 112 142 163 172 134 139 152 159 179 199 129 124 184 133 148 202 196
117 151 82 94 64 27 52 52 79 61 79 146 104 125 120 138 53 47 74 86 93 101 96 103 111 98 71 87 96 86 94 95 113 124 125 120 106 130 162 187 145 149 85 105 144 119 184 231 202
126 159 116 96 68 44 85 33 69 137 141 128 120 173 216 125 39 40 63 66 83 98 110 117 123 111 93 73 104 107 115 115 107 121 121 88 75 95 135 123 127 96 111 107 109 163 237 262 230
177 148 85 105 68 60 119 52 80 68 56 80 98 115 133 111 76 78 75 79 75 92 132 128 131 125 108 86 87 88 110 104 118 112 114 88 96 108 121 126 142 140 164 149 110 203 246 255 244
125 89 105 107 70 44 55 36 66 82 97 58 85 108 110 119 105 95 75 60 53 61 111 136 130 145 132 104 79 96 121 107 112 112 111 100 106 125 134 139 110 105 156 141 128 199 198 209 274
108 90 71 89 47 46 40 58 48 66 53 49 75 89 113 135 108 91 75 43 42 59 72 107 133 143 140 123 104 98 132 124 141 125 135 111 120 132 142 122 95 90 132 129 141 189 159 196 279
79 80 74 80 57 43 52 40 43 57 83 29 64 54 69 110 99 108 104 78 67 61 58 86 129 128 140 135 127 96 113 123 157 159 154 157 142 151 159 196 203 136 144 107 168 161 283 228 251
149 46 62 65 59 48 33 39 42 53 50 32 55 59 59 74 95 103 97 87 62 48 62 76 102 111 136 153 164 140 115 98 133 171 171 137 129 165 147 149 160 96 129 87 161 248 276 223 229
132 140 66 58 72 63 60 29 24 30 25 34 32 50 61 76 93 93 91 104 81 73 68 79 103 102 131 144 153 150 140 135 128 161 170 164 161 141 117 138 171 131 141 146 164 315 311 302 232
119 108 109 77 20 38 63 24 97 96 60 34 46 71 93 92 100 98 110 126 93 87 83 75 104 105 127 162 173 167 176 179 168 193 178 156 153 126 82 75 128 176 131 172 280 395 539 388 518
124 164 85 132 111 58 43 68 56 121 109 88 81 98 111 112 101 99 92 111 133 106 87 88 103 103 111 156 200 172 184 226 186 179 200 161 156 168 142 133 153 168 146 208 238 352 387 476 459
245 155 221 173 110 59 60 37 118 70 61 109 126 108 98 95 70 51 99 116 92 91 78 78 82 86 98 179 220 201 222 224 207 191 190 164 167 167 161 140 174 191 195 238 257 328 419 717 417
246 266 228 225 127 152 104 84 61 44 91 99 81 67 58 52 45 99 117 113 110 83 70 55 69 88 97 231 255 258 287 264 223 208 176 177 173 160 166 181 196 189 226 303 253 346 649 575 363
239 241 151 99 113 71 67 70 77 85 84 67 67 54 47 59 92 107 128 139 122 86 90 78 67 60 76 181 230 181 270 212 187 217 176 176 171 153 191 212 202 200 242 247 194 278 211 217 266
91 109 126 129 106 35 66 57 47 29 40 32 42 63 87 125 146 146 142 125 105 102 79 66 58 43 68 88 182 166 229 217 243 234 213 187 175 167 207 213 194 166 193 246 308 399 560 483 324
106 63 67 78 113 125 88 106 50 65 8 37 56 87 102 117 127 141 144 138 129 129 97 60 58 60 73 49 187 187 284 265 178 187 200 196 194 180 206 184 137 133 207 198 305 448 629 447 309
98 59 72 49 68 95 105 70 46 86 15 54 83 95 107 86 82 92 94 99 84 63 93 64 55 75 73 71 178 150 134 144 142 143 178 217 208 200 228 207 199 132 155 212 289 455 452 516 503
38 71 78 67 80 140 77 88 81 47 56 75 95 119 105 56 38 42 46 51 75 68 38 59 55 62 69 103 137 82 101 168 197 177 197 226 212 237 231 202 181 134 189 215 302 426 592 461 306
57 44 162 175 206 196 84 65 59 123 62 70 68 39 -1 16 48 61 62 55 45 69 71 43 53 63 58 106 103 80 98 143 134 146 175 197 218 241 218 198 168 171 192 185 242 283 360 104 199
-17 27 100 154 157 94 80 77 93 78 88 70 70 59 45 46 27 10 23 18 27 51 72 88 52 55 56 91 101 120 120 131 120 144 166 158 176 164 180 172 138 159 195 206 206 179 34 151 289
51 70 46 118 101 125 50 84 74 72 52 50 29 34 51 45 29 26 43 15 33 60 60 76 62 56 66 85 130 137 108 118 109 115 131 128 136 122 96 135 138 134 185 250 283 268 202 286 288
103 47 86 85 112 79 27 40 56 15 -1 2 -15 7 29 24 35 20 16 37 20 33 -38 16 59 81 31 93 169 163 102 89 103 117 99 114 112 76 58 91 131 148 179 247 316 292 297 328 310
121 95 86 105 67 86 88 50 130 61 23 -2 14 29 25 39 22 14 9 -2 29 -1 37 18 65 90 22 104 176 161 86 76 104 89 84 113 89 52 39 57 115 148 169 189 226 302 451 386 317
29 28 45 72 56 53 65 88 85 58 35 23 25 26 10 11 14 18 -35 -43 37 -38 142 114 57 66 22 95 138 145 91 87 98 79 82 103 72 43 35 63 47 59 126 142 231 213 289 247 305

GFSSGP_con_3kmhel_111.txt.gz
Helicity
6 9 3 15 39 39 3 9 35 75 62 73 113 27 11 16 21 50 20 65 114 115 91 40 41 70 84 74 36 37 57 82 89 85 82 106 96 93 85 87 77 78 87 78 63 63 68 77 77
4 1 13 36 64 20 22 20 61 17 72 92 73 86 64 21 61 54 33 52 83 87 54 43 40 78 71 41 21 25 41 58 68 77 96 99 111 114 100 92 95 91 94 81 66 78 92 89 88
-40 6 36 71 53 10 -6 73 62 93 140 43 51 40 32 35 69 50 90 54 65 67 55 70 41 45 50 28 16 17 29 47 57 73 91 117 122 130 124 120 122 108 105 79 68 93 89 120 127
20 51 74 102 35 7 10 63 36 94 63 49 16 47 88 101 51 41 70 49 60 65 58 121 60 44 35 22 11 -2 18 43 61 79 93 116 126 137 141 120 128 121 118 82 71 111 110 139 150
20 55 90 90 33 -11 32 60 45 35 57 65 79 19 63 80 75 78 71 59 73 77 82 53 64 52 37 19 24 8 5 21 45 69 92 124 137 144 133 119 98 104 95 80 96 74 109 167 161
78 65 100 98 22 5 13 109 61 55 46 65 66 57 63 91 73 87 75 66 85 83 70 50 53 53 44 35 32 25 32 35 41 55 78 119 137 135 152 135 102 104 87 118 128 147 167 161 161
65 68 79 66 32 21 31 112 84 50 36 20 40 42 39 89 72 72 68 77 93 85 74 56 53 57 50 58 40 37 45 57 56 59 72 100 112 124 134 128 102 115 103 121 118 132 113 125 124
87 89 73 67 66 31 24 131 60 46 26 30 85 66 30 155 110 70 64 75 86 78 66 68 66 69 68 73 70 48 60 60 69 58 57 54 67 106 106 109 131 151 116 118 141 98 126 140 108
83 115 90 55 43 21 40 107 61 55 35 99 65 43 166 202 94 106 96 70 81 71 61 65 81 77 81 84 98 85 70 76 79 73 66 47 45 72 88 82 143 157 150 119 122 105 109 178 164
133 170 83 55 18 35 51 72 46 61 63 62 106 134 152 145 134 139 139 95 74 67 65 72 77 89 87 91 106 89 86 81 81 90 90 65 70 71 78 106 154 146 144 123 141 163 184 160 135
134 122 124 69 19 52 39 41 42 49 41 34 45 39 84 99 123 117 74 60 66 52 56 59 79 86 79 90 100 90 105 88 93 102 84 87 82 74 84 109 125 126 127 133 161 165 118 137 141
99 90 75 71 82 52 78 81 49 31 32 43 27 58 89 103 95 92 83 35 44 67 70 61 79 81 92 97 103 93 148 78 108 93 102 92 81 105 100 113 117 111 138 104 162 161 120 130 114
89 85 81 62 77 97 62 79 96 82 48 53 51 59 61 65 73 79 61 33 21 47 95 97 81 98 90 93 104 83 145 93 99 107 108 96 123 135 110 112 107 90 122 93 209 169 157 146 152
70 50 65 76 116 78 79 54 69 64 65 60 48 76 70 59 66 71 76 100 63 36 60 127 108 104 92 90 94 127 124 106 92 143 92 113 114 131 118 126 129 129 160 195 151 183 143 211 194
117 148 124 108 128 92 77 59 47 40 35 69 36 43 54 53 51 62 38 66 74 68 45 133 108 152 74 99 93 124 112 118 101 109 95 118 133 145 128 127 108 114 153 137 127 134 153 187 254
129 130 145 106 77 98 169 49 47 -3 -1 46 38 32 59 58 46 31 53 43 35 62 70 111 140 127 97 93 131 128 109 125 135 121 168 123 145 139 136 119 93 98 136 144 150 187 151 218 304
157 178 134 130 49 39 60 78 76 34 42 36 27 54 57 46 43 43 43 38 38 45 53 88 123 131 122 88 104 155 115 137 126 157 185 149 186 176 138 97 138 118 120 172 191 207 240 281 303
227 102 153 179 7 24 102 129 89 64 84 61 38 42 35 40 49 43 53 28 43 39 56 117 136 135 151 133 120 126 176 139 140 164 161 166 166 164 178 133 175 185 246 254 184 193 243 277 400
106 167 123 99 70 94 95 75 92 13 61 81 72 70 50 41 26 23 32 142 154 140 154 128 119 120 140 129 138 200 358 223 163 134 149 160 157 173 207 176 190 304 219 213 176 189 177 250 395
130 152 215 126 92 97 129 165 46 42 37 32 58 52 30 18 18 31 88 124 159 114 119 96 83 73 96 119 111 242 309 192 159 173 177 157 202 201 188 202 296 336 259 202 154 210 260 315 512
95 146 140 237 131 230 215 192 147 71 66 62 56 45 26 21 30 51 134 139 121 97 116 92 73 72 88 106 209 228 181 173 165 164 183 167 207 188 224 216 278 325 289 227 208 252 239 294 389
112 123 103 184 199 165 179 139 96 21 106 20 28 15 28 56 107 105 100 87 91 105 136 129 104 78 86 93 166 136 226 236 167 163 191 176 174 188 209 241 275 300 288 260 199 237 275 326 171
98 63 119 63 76 59 83 132 126 40 30 45 -5 24 40 99 91 98 100 96 100 113 117 92 115 88 80 96 97 146 141 117 87 94 128 180 178 211 235 238 284 289 295 242 172 231 269 309 315
111 209 135 109 121 145 81 123 163 156 58 29 52 85 69 76 80 73 72 81 76 112 111 93 71 77 72 106 90 170 127 64 96 108 143 185 194 200 253 245 280 243 239 253 166 263 262 468 437
77 114 230 201 203 119 -4 70 105 43 54 24 90 55 102 88 83 60 65 90 109 74 61 62 70 67 73 88 87 166 128 58 88 116 151 151 177 207 261 284 274 215 177 194 155 196 222 344 544
26 61 179 150 79 75 31 113 27 -12 60 105 118 69 70 32 33 47 88 102 75 90 78 67 71 78 68 84 117 103 112 94 130 149 123 137 146 156 246 287 258 190 160 125 168 204 257 329 492
-14 33 -4 153 95 110 92 37 114 87 53 109 87 80 57 50 46 72 67 72 61 66 75 58 47 55 86 95 123 95 102 121 179 126 140 130 122 127 178 229 169 145 140 115 132 184 232 265 323
11 11 59 89 252 235 34 16 48 68 118 70 66 70 53 51 68 50 55 70 42 50 71 52 46 26 49 116 135 103 124 141 152 170 109 121 130 147 191 193 164 180 163 143 148 144 181 213 123
44 38 45 32 63 132 112 75 61 36 21 25 8 44 71 50 30 42 56 30 16 22 51 52 32 49 55 168 160 116 158 166 151 139 129 134 116 125 117 128 132 139 151 162 166 199 210 225 180
24 27 -0 61 36 46 51 32 33 68 105 75 45 62 53 101 142 127 74 26 7 6 17 50 71 163 149 170 160 145 141 160 144 131 109 117 124 103 106 110 109 113 133 166 166 209 234 257 336

GFSSGP_con_3kmhel_114.txt.gz
Helicity
14 -0 12 44 59 55 17 -1 -13 33 90 99 125 75 46 97 114 132 134 123 149 116 107 78 77 76 84 92 82 65 60 59 53 47 45 46 49 51 53 57 56 34 65 62 55 57 53 61 73
3 -4 23 70 86 56 25 19 -33 95 113 185 104 141 73 65 74 73 107 86 102 99 79 61 62 70 71 73 54 49 49 51 46 50 51 52 46 59 54 59 56 50 74 66 59 59 52 57 69
-21 -35 62 70 64 44 -7 -77 39 108 163 99 39 39 64 102 99 99 131 105 82 83 75 65 49 54 57 50 36 34 32 33 38 50 57 57 60 66 66 60 61 71 80 80 68 61 47 60 63
26 54 65 97 31 42 2 47 68 74 94 109 48 40 31 147 96 130 102 99 96 84 95 70 38 41 38 36 30 28 26 23 27 30 45 50 64 76 73 80 65 70 70 69 63 39 71 96 89
44 80 98 93 44 -15 14 43 92 50 74 26 18 3 44 130 83 148 89 97 122 135 118 67 52 43 31 18 17 22 19 19 26 32 36 49 66 75 81 86 74 63 47 55 50 54 115 107 85
132 113 112 83 40 -4 -10 5 85 87 23 60 63 43 44 128 156 143 101 128 144 155 97 76 52 52 36 22 11 16 18 17 22 30 39 54 76 67 86 87 81 60 63 70 71 103 114 120 86
66 104 125 77 59 36 12 -7 150 126 118 42 82 58 35 114 130 171 146 154 163 148 106 82 52 50 42 31 29 33 40 36 31 35 43 58 46 61 69 85 71 65 71 70 97 112 94 115 89
77 72 62 89 78 44 34 19 112 114 79 23 12 42 63 137 208 221 172 137 162 139 112 83 72 61 55 46 42 53 64 63 55 45 51 56 46 64 69 75 54 77 72 106 115 90 77 111 91
48 107 90 79 90 90 28 30 116 110 58 27 27 102 129 186 123 150 174 145 148 130 103 80 78 67 70 74 62 67 78 83 86 74 68 74 62 65 66 67 79 93 90 113 113 97 81 140 121
100 135 89 66 53 64 34 40 39 75 26 80 76 89 141 96 128 112 150 163 187 142 94 89 69 76 71 76 110 76 80 90 96 107 100 77 84 86 98 108 113 135 132 132 141 133 112 144 111
98 110 107 67 16 31 50 67 49 75 56 30 48 127 108 106 80 89 96 124 199 128 92 101 84 97 88 74 136 91 97 87 93 112 104 106 103 92 108 124 133 155 167 176 203 182 155 134 145
94 98 78 50 45 34 28 53 67 79 32 33 11 129 83 107 116 102 83 79 122 129 108 100 137 136 115 67 117 86 122 103 100 88 111 102 105 114 133 147 164 160 176 159 190 189 173 180 184
99 85 57 34 53 82 79 127 108 128 83 58 42 49 78 105 84 95 52 18 44 155 196 205 195 187 152 73 108 80 208 120 83 86 92 82 117 158 155 148 165 157 163 156 235 216 176 175 147
94 77 77 38 47 54 92 120 92 95 132 113 126 71 62 68 85 97 83 31 41 33 206 291 298 260 198 147 90 144 226 190 112 131 116 110 127 168 164 154 172 137 127 122 241 225 183 151 167
145 158 109 85 91 94 50 115 89 83 74 103 174 198 119 110 80 89 51 70 63 66 48 241 288 326 250 173 108 143 206 183 122 169 132 125 118 177 197 204 173 135 121 165 233 194 178 204 168
110 151 197 116 67 64 54 78 89 61 58 75 82 117 92 77 52 25 86 45 79 102 102 128 265 287 302 207 161 128 198 236 184 128 133 110 111 153 211 204 195 160 119 174 194 228 220 238 210
208 203 189 149 92 61 69 80 64 59 23 19 28 78 96 102 48 50 59 74 57 58 86 124 188 260 263 174 150 167 197 209 252 226 150 133 139 138 179 181 221 188 177 190 206 224 214 254 241
323 249 205 164 53 54 66 118 73 45 72 65 80 70 56 80 55 30 48 35 82 85 71 145 213 234 292 223 118 152 202 184 211 230 218 259 150 160 163 169 202 265 215 252 268 256 200 231 258
156 145 112 64 70 25 46 42 49 35 85 109 47 51 63 55 59 67 128 106 90 146 196 205 170 165 253 293 219 170 215 271 248 262 296 242 160 183 163 179 204 322 325 308 283 252 241 245 170
150 128 117 57 55 120 162 119 143 108 48 77 86 97 70 86 53 62 60 206 202 216 195 217 217 195 212 222 220 185 160 273 287 312 241 141 125 160 157 215 239 345 351 302 284 284 282 207 202
86 163 125 135 155 281 110 181 276 49 54 49 49 57 68 84 46 28 36 250 259 222 217 204 173 183 147 133 211 229 357 375 354 282 180 168 193 190 196 209 289 342 365 320 283 253 254 214 208
85 30 64 58 139 180 136 298 254 196 94 77 81 60 98 131 63 34 119 256 192 181 174 251 221 191 163 159 195 350 386 331 263 243 218 195 229 187 200 190 303 307 350 324 294 275 219 204 194
30 32 22 86 154 129 182 234 100 137 157 145 45 44 100 113 53 71 176 154 120 108 130 132 70 110 143 167 175 292 280 241 207 182 176 144 143 173 175 245 370 308 328 307 316 273 237 197 183
12 136 119 164 116 153 79 177 54 69 63 37 -27 86 143 238 249 221 183 150 117 76 109 112 78 111 97 119 149 225 212 207 218 155 144 183 164 194 205 297 339 305 323 325 288 256 216 190 186
124 129 246 239 159 102 20 55 46 38 36 -5 21 90 216 224 201 176 185 104 139 176 179 161 108 111 130 82 106 161 203 172 113 81 127 166 205 221 241 307 320 305 319 294 274 231 198 173 210
94 126 252 207 122 69 -20 74 -4 -35 -26 31 152 256 228 172 129 86 116 172 210 240 206 137 101 133 76 93 95 147 191 174 102 47 117 255 219 185 193 242 284 308 317 278 239 235 189 196 187
70 49 -8 128 60 87 60 40 34 -37 66 160 121 200 167 130 80 129 110 159 183 106 87 79 74 88 61 67 103 173 263 179 96 59 154 280 192 138 170 223 219 306 269 247 218 203 147 200 198
24 7 33 123 206 122 50 -6 76 59 137 93 24 25 49 73 125 132 131 138 46 11 29 39 54 39 42 50 23 172 225 136 80 78 176 199 160 150 206 199 221 283 242 233 220 186 149 160 188
47 10 29 47 97 144 106 90 53 72 122 201 52 112 204 248 278 235 227 151 113 29 -2 20 5 16 38 60 67 200 211 121 92 94 171 250 179 163 202 163 175 222 213 209 191 181 166 147 163
13 12 14 73 97 73 59 72 18 141 100 87 288 295 295 165 216 233 163 103 59 39 14 2 3 -10 28 70 192 268 207 152 107 129 185 275 183 146 145 147 172 201 219 220 194 181 185 166 169

GFSSGP_con_3kmhel_117.txt.gz
Helicity
39 31 68 79 103 99 60 -22 37 18 7 121 141 193 127 68 45 84 97 200 126 80 43 60 136 116 106 131 120 106 89 75 52 37 32 28 28 27 33 39 37 30 40 47 49 46 48 49 55
24 39 99 117 123 107 18 -24 -47 -13 149 242 188 213 209 72 50 47 113 73 98 91 42 46 99 101 104 112 99 77 60 41 31 29 22 24 21 27 29 30 31 21 58 60 54 49 49 44 50
34 77 134 127 131 105 40 -7 -67 54 114 110 139 126 120 114 79 50 95 135 149 86 39 37 85 92 89 98 77 64 44 31 23 19 20 21 18 21 24 29 37 41 62 53 51 40 40 52 51
68 129 152 189 91 14 40 113 15 17 122 121 106 51 133 37 139 149 129 160 138 92 46 49 75 68 77 73 62 55 45 29 21 13 22 20 27 26 27 29 45 56 65 47 42 42 46 50 47
123 165 189 200 111 58 7 78 36 -0 88 95 102 129 137 205 153 179 142 145 175 129 85 73 62 57 58 62 54 40 36 29 28 18 21 27 32 32 38 38 46 42 44 40 40 57 59 51 33
208 168 239 173 92 19 7 29 64 12 108 96 123 122 100 158 238 203 246 226 187 149 112 86 57 46 50 58 47 32 26 30 30 28 25 34 30 34 47 50 44 40 47 46 63 69 73 58 35
135 147 168 121 89 30 -23 2 53 40 204 201 171 159 109 182 153 214 313 291 232 181 144 94 51 42 41 55 48 37 21 21 29 36 41 46 40 46 49 66 46 42 46 59 86 77 77 59 50
172 158 126 127 121 52 -17 4 33 118 125 94 88 138 162 203 242 352 373 340 277 191 143 111 70 63 49 41 56 58 45 34 34 45 65 65 66 56 60 68 48 50 52 80 110 91 82 57 49
77 145 154 153 99 26 -16 -4 1 74 137 174 117 118 212 294 290 350 347 334 286 182 144 120 97 82 73 71 54 66 67 53 52 41 61 81 78 62 65 67 72 71 74 98 115 109 83 60 58
201 227 178 225 121 68 30 49 51 86 148 167 140 263 304 285 235 282 318 286 253 207 156 128 110 103 103 93 94 84 85 82 68 68 59 77 92 85 84 78 90 98 105 124 121 119 114 112 80
151 53 211 143 93 16 21 62 48 -13 115 163 124 255 226 220 190 153 212 233 211 201 204 143 121 115 121 123 127 111 98 102 88 84 85 74 86 91 106 104 120 143 156 177 168 164 141 119 105
136 92 133 62 74 35 22 61 20 -48 31 91 68 162 198 208 145 96 131 222 225 205 202 163 123 131 122 162 147 126 127 119 117 103 109 104 85 111 126 147 163 182 183 204 205 175 130 138 124
88 112 96 97 90 45 -6 62 57 46 7 55 127 96 165 222 192 169 83 154 243 237 204 177 173 188 167 160 162 134 139 127 133 117 100 120 102 110 138 172 195 203 196 210 208 183 174 173 176
137 103 88 82 84 60 100 88 78 40 18 98 62 62 118 132 189 181 148 106 149 254 292 267 225 246 226 189 203 160 178 144 135 126 99 86 111 124 155 185 205 209 201 179 237 209 195 193 164
108 127 114 84 -0 90 44 140 117 90 80 131 65 38 55 108 95 128 134 119 105 102 272 340 317 300 252 177 181 223 222 207 168 156 146 120 121 163 179 179 195 202 177 180 207 240 213 193 163
229 257 203 -40 138 124 55 156 102 131 124 118 109 126 65 64 103 123 133 162 51 34 104 266 335 333 293 215 164 234 256 236 196 209 205 168 162 179 193 186 192 195 218 254 263 255 232 218 198
290 291 243 117 183 162 124 161 147 164 134 98 131 109 123 110 104 138 126 193 100 56 75 153 332 343 323 309 218 167 281 235 223 246 218 228 214 211 231 221 199 211 234 285 296 273 267 243 212
490 397 336 240 171 152 139 107 172 208 149 104 120 89 133 109 92 104 120 71 43 96 108 228 352 381 363 370 313 216 187 300 253 218 226 201 219 223 241 235 202 219 235 284 311 277 269 263 198
459 368 216 186 179 96 79 92 155 171 107 88 93 84 111 64 177 129 78 81 109 125 180 192 364 379 414 401 327 336 227 197 273 280 238 223 214 242 202 211 225 239 262 279 310 289 275 307 281
359 431 431 159 92 33 24 129 59 201 159 89 95 114 75 94 116 108 94 91 165 256 335 356 248 288 270 262 227 277 274 229 220 255 308 335 301 286 197 166 214 254 321 316 326 331 321 308 294
128 346 388 241 65 168 200 118 124 148 152 137 101 88 71 117 127 123 173 254 302 292 290 297 315 233 195 170 227 314 304 319 296 301 380 362 313 286 211 191 211 262 336 344 323 318 308 293 271
94 123 180 92 120 69 153 183 68 74 66 163 203 87 77 96 141 163 138 281 339 321 295 273 285 341 310 237 197 278 299 304 338 365 414 370 237 230 236 202 207 261 308 331 321 299 275 295 263
48 19 87 139 91 74 118 123 28 160 178 179 215 155 100 100 131 229 166 256 202 285 311 269 266 265 284 253 197 269 318 271 363 401 360 313 263 224 275 215 246 247 297 299 321 311 316 306 288
50 -18 -2 47 196 139 86 105 24 103 151 226 229 182 102 81 122 195 233 366 525 546 520 490 460 387 325 360 303 127 227 292 360 333 302 230 179 250 269 263 252 240 285 269 273 291 305 324 244
110 47 82 142 170 75 20 98 62 69 92 98 100 82 137 201 237 446 600 508 504 482 446 465 454 342 271 164 171 191 209 208 296 302 271 204 131 161 212 299 261 280 305 262 259 289 307 272 238
35 95 91 107 152 111 128 63 53 -2 -26 33 35 100 386 468 543 484 431 412 325 291 259 188 203 158 84 84 61 34 125 206 258 221 207 172 153 138 207 264 259 261 269 262 267 291 284 240 203
143 65 76 52 60 90 69 99 71 145 48 64 188 366 304 397 311 312 303 344 328 143 47 58 71 27 38 52 42 32 53 133 192 222 176 175 133 177 222 274 232 227 254 260 258 270 256 220 179
113 126 101 112 87 61 88 56 114 183 183 323 549 497 402 454 561 482 394 300 255 199 57 -1 -13 -2 7 31 29 52 85 130 140 226 203 169 144 229 219 238 224 220 236 251 260 252 211 172 165
67 55 55 67 149 149 114 153 -18 170 201 165 350 514 420 474 356 338 276 241 188 136 76 24 4 -7 -12 3 31 54 81 104 123 221 184 182 180 225 234 231 213 218 240 248 263 231 200 154 156
140 44 20 36 115 90 56 94 80 109 314 356 377 293 179 208 257 250 192 158 115 69 18 -2 -28 -19 -14 14 26 60 97 101 158 192 175 181 199 272 238 178 169 172 204 226 236 248 204 148 137

GFSSGP_con_3kmhel_123.txt.gz
Helicity
46 67 100 129 150 167 65 26 31 10 65 4 -12 16 21 52 207 178 102 78 144 114 43 42 83 126 146 193 227 244 233 233 218 186 145 109 93 80 70 64 47 51 53 56 45 46 53 60 66
64 84 134 134 208 192 33 80 70 76 72 136 26 -1 41 69 81 97 171 50 99 133 73 59 75 117 153 185 232 246 228 208 182 154 118 96 81 62 55 54 41 48 47 56 56 55 48 49 59
91 120 126 163 209 136 18 46 54 36 65 92 22 10 36 47 62 26 33 95 178 105 69 75 87 114 137 159 199 219 199 162 135 111 93 88 76 56 58 48 38 48 57 65 65 57 54 49 56
134 166 192 220 148 61 2 70 41 69 38 12 47 67 54 48 55 34 117 169 158 71 60 89 98 97 104 115 147 159 151 124 93 82 82 84 62 57 68 51 49 60 68 73 73 62 50 46 68
177 190 204 223 176 66 45 35 35 100 65 112 86 65 23 118 145 139 145 117 129 91 88 106 88 67 51 82 107 117 115 101 81 62 63 64 55 59 65 54 52 59 70 79 73 54 46 47 68
228 216 248 210 221 139 59 33 30 47 46 126 69 96 30 104 181 155 170 143 143 137 116 103 58 33 27 49 73 91 100 92 78 58 50 43 52 60 61 54 56 62 79 70 73 56 43 48 72
223 258 245 228 189 128 60 9 26 18 39 81 23 61 134 114 211 210 195 181 146 153 158 99 49 1 29 40 54 71 79 86 70 52 43 48 57 64 61 56 70 74 80 73 77 72 40 52 69
210 243 269 234 209 138 21 15 35 52 71 31 98 71 203 144 290 313 273 226 200 169 133 114 68 24 29 34 48 54 73 73 63 48 41 55 72 76 59 58 73 83 91 82 78 69 46 50 87
211 298 256 301 276 272 71 44 -5 41 66 2 47 42 38 417 367 338 289 241 227 182 139 110 104 64 47 49 39 36 56 60 60 50 45 54 59 72 72 62 60 76 92 84 81 77 60 66 103
265 316 303 329 230 149 94 29 5 -35 42 4 43 75 97 345 345 337 291 251 241 242 130 110 138 104 100 81 62 43 40 45 52 53 56 65 69 80 82 73 71 67 81 86 84 93 84 91 125
231 279 244 221 170 134 119 39 39 -1 12 19 5 56 44 283 330 327 275 293 287 206 187 137 132 166 133 120 102 74 56 45 45 56 80 85 76 88 92 89 86 85 82 86 90 94 95 90 120
184 143 160 147 125 123 124 97 13 -7 -9 -9 -10 25 59 175 297 266 263 254 281 252 173 179 155 173 152 184 140 106 96 78 63 55 87 110 98 94 108 108 104 115 109 117 108 94 83 97 101
153 116 92 106 106 75 68 56 59 -45 -71 2 21 45 97 222 185 235 235 304 305 239 209 168 206 199 185 194 178 150 122 109 75 82 84 119 110 105 107 112 119 135 141 151 139 112 93 108 106
205 109 117 80 121 164 138 96 141 -54 -55 -9 6 38 88 237 167 195 258 197 194 179 175 221 207 215 243 201 174 170 170 159 150 139 120 109 122 127 127 120 124 140 150 148 163 147 112 105 111
196 136 63 9 78 72 173 96 157 55 65 4 33 32 54 120 217 178 199 156 171 184 194 215 240 240 217 179 171 185 185 185 173 179 168 147 144 151 151 137 129 134 142 150 166 164 130 117 109
156 172 148 88 188 280 201 105 131 102 89 9 47 44 63 80 105 179 124 147 128 169 210 160 204 219 204 190 192 208 203 208 192 196 189 170 161 161 179 165 143 149 147 155 159 181 161 137 126
169 163 153 54 53 94 163 192 -5 236 127 70 24 43 57 87 106 118 131 225 157 145 147 183 212 239 224 209 226 214 180 187 182 183 176 156 155 167 178 176 167 166 169 167 176 184 184 163 132
133 151 138 160 113 150 211 253 121 65 178 185 90 49 50 73 127 114 127 135 134 128 133 190 262 242 256 281 263 261 241 198 190 170 175 164 159 157 178 183 189 196 199 186 186 180 188 161 164
115 114 97 81 132 171 176 151 184 53 159 201 187 89 70 94 143 145 122 147 140 126 161 186 226 226 290 329 344 282 213 200 196 212 200 177 171 165 174 181 191 210 207 206 199 205 176 181 212
112 121 105 70 85 96 111 70 44 147 120 97 129 139 71 130 189 160 135 130 113 195 165 219 240 254 300 320 302 316 278 241 293 225 172 185 193 200 205 205 201 192 205 205 225 215 225 220 249
104 137 73 99 86 126 145 37 62 118 155 97 108 113 83 128 199 152 139 143 172 181 264 260 241 276 284 315 415 436 442 350 301 233 199 189 205 224 226 225 229 217 230 223 256 247 248 250 251
133 130 126 123 146 226 98 60 54 63 185 85 98 120 145 80 128 117 137 255 296 306 314 348 382 433 446 427 419 400 370 323 261 198 192 199 218 236 260 263 245 230 224 216 253 249 230 267 261
172 144 114 108 120 114 72 211 55 44 48 89 130 152 168 142 101 160 155 205 371 457 529 555 587 581 510 501 343 312 288 229 175 205 217 250 242 247 260 273 265 294 259 207 247 269 251 264 290
71 79 139 83 101 181 86 126 -116 69 20 45 79 109 205 256 303 334 452 469 590 628 689 688 713 699 612 569 482 425 384 257 263 219 217 216 270 281 266 286 279 243 274 258 231 244 242 254 265
196 133 84 62 49 89 -74 35 84 40 73 93 75 197 193 328 547 668 710 759 797 802 756 663 598 611 580 552 512 466 432 307 271 236 182 201 234 248 265 286 306 261 258 245 253 271 265 257 273
-20 101 146 -29 -3 9 -30 24 122 40 53 35 104 278 388 517 669 796 784 818 749 735 706 641 577 552 527 450 341 234 181 179 191 192 196 163 214 232 236 247 239 240 249 241 228 268 264 290 279
-39 76 91 21 181 71 48 31 31 114 278 326 241 413 524 548 552 611 716 679 657 634 571 451 375 333 336 294 246 206 192 179 155 155 155 129 167 187 206 221 228 246 227 195 222 262 262 261 252
-25 -13 -24 107 71 14 -1 -13 17 56 244 422 593 645 636 515 455 401 446 530 455 458 408 326 225 164 126 92 79 99 47 73 109 125 108 146 148 135 186 212 243 239 201 201 220 243 258 245 242
54 -25 -24 -14 11 -1 9 -18 25 120 248 412 570 702 698 760 648 605 593 492 510 478 416 332 351 296 213 83 51 37 9 21 69 87 97 116 131 116 136 201 239 233 201 212 241 218 263 235 241
-18 -56 -58 -69 -25 -85 38 32 290 295 358 483 525 524 577 552 593 618 558 609 562 411 309 245 227 193 148 133 138 143 139 106 95 86 94 104 117 103 120 170 216 212 183 202 221 207 250 244 265

GFSSGP_con_3kmhel_126.txt.gz
Helicity
72 69 76 117 144 159 52 18 54 43 45 34 43 52 31 48 80 103 62 163 198 189 106 96 98 119 137 195 221 243 261 265 261 248 202 168 121 98 81 72 68 76 68 68 66 65 65 63 70
77 95 130 118 186 172 37 46 77 57 58 122 78 19 28 25 39 52 127 88 124 209 129 96 104 122 146 179 208 242 259 268 250 213 178 147 110 97 69 69 69 82 88 79 70 72 77 75 75
83 120 146 150 187 139 52 32 64 40 66 98 96 63 34 27 22 56 82 107 159 188 124 91 117 121 143 182 203 221 247 243 223 185 145 119 97 92 62 64 60 95 85 74 76 79 75 73 73
118 167 209 230 155 66 107 76 -22 60 19 17 48 136 60 6 28 39 95 140 173 164 107 96 112 118 140 173 192 190 217 211 186 155 117 93 87 82 61 57 66 88 83 82 87 93 82 66 77
163 183 228 249 194 107 76 62 45 85 67 58 12 68 74 75 63 17 92 148 186 138 107 89 110 123 129 140 147 147 164 166 146 129 110 91 80 67 61 61 65 82 80 88 97 96 73 67 87
205 199 249 231 223 129 39 2 20 47 42 59 35 53 10 47 88 101 81 135 121 155 108 93 98 109 106 101 95 104 110 123 111 104 102 93 74 67 61 65 83 92 91 97 93 93 66 72 84
199 225 203 191 171 127 54 27 -4 -11 7 38 -15 85 65 98 88 219 181 146 165 138 125 83 68 87 100 77 52 75 82 84 89 85 93 86 70 69 67 75 84 90 91 100 99 100 73 70 88
190 213 227 197 188 125 73 33 42 20 -20 -1 4 112 128 87 65 232 277 194 189 164 115 106 68 64 76 48 45 48 61 64 67 71 82 85 75 66 72 85 87 90 86 87 102 100 73 80 101
140 237 254 224 181 157 113 45 9 17 6 20 -9 82 29 35 192 219 314 209 167 160 122 109 112 85 34 28 26 34 40 48 51 59 71 85 68 62 73 74 86 95 89 78 87 108 78 85 105
184 204 176 148 131 84 72 26 -18 -78 -2 -7 35 -9 -1 -7 157 184 217 207 160 179 159 153 118 102 60 22 59 56 36 31 38 48 64 70 71 60 66 69 83 98 98 93 85 100 98 102 91
189 217 174 122 125 113 91 80 -4 -48 -110 -84 27 -72 -60 -0 126 125 105 175 209 236 251 169 138 132 98 62 74 65 45 40 33 47 63 64 72 70 65 81 77 88 103 109 114 125 112 98 85
195 169 177 121 115 100 103 91 44 6 -57 -12 -8 14 -18 28 113 147 53 69 192 256 219 215 168 134 129 111 97 75 77 47 45 45 86 102 95 87 83 94 87 98 103 125 135 126 113 107 92
118 124 103 117 90 77 107 99 88 -8 15 5 -32 -16 -4 47 91 154 45 111 134 180 227 202 190 157 161 141 125 116 91 61 39 47 76 111 108 105 94 88 102 98 114 121 138 148 131 121 111
128 61 32 18 30 48 62 58 141 112 45 -1 7 3 1 60 108 144 176 75 115 194 180 195 138 187 189 196 164 149 103 97 79 63 67 103 107 106 102 96 104 101 114 122 134 142 144 124 123
76 38 21 -1 34 13 -9 26 188 20 65 44 -1 20 3 16 107 112 177 142 103 183 248 166 146 203 213 214 213 178 140 105 111 102 91 102 109 114 114 123 120 108 111 132 133 130 135 138 123
136 98 79 116 63 32 81 63 30 68 95 108 85 -26 -17 6 71 95 127 212 142 155 229 186 176 181 217 224 224 214 208 166 143 151 150 128 126 129 153 158 140 140 132 143 138 132 130 123 139
86 86 69 -1 74 13 5 69 83 216 138 105 154 63 13 36 9 99 50 209 214 188 187 210 207 183 195 205 225 227 258 235 206 209 182 159 142 162 168 172 168 166 153 161 156 140 140 113 108
72 72 89 71 34 46 78 119 86 95 52 82 97 137 45 1 91 51 113 107 208 209 177 203 249 190 179 220 227 192 194 223 222 197 187 197 174 176 182 177 174 181 174 180 182 161 155 135 133
80 84 60 47 80 99 92 110 95 73 39 58 36 88 180 31 33 78 138 78 147 195 207 234 249 178 230 242 249 207 175 184 211 183 176 176 191 179 171 167 166 180 187 187 173 178 165 163 163
59 83 119 105 78 78 68 70 71 94 69 71 50 33 136 115 51 126 192 146 158 161 277 224 209 217 245 237 247 287 258 222 196 207 202 176 174 182 175 184 175 171 183 197 215 224 225 181 206
74 79 76 59 30 56 103 51 66 50 30 26 69 61 40 138 96 108 219 133 165 152 192 207 206 228 250 268 308 345 302 266 250 194 201 196 197 179 176 181 189 189 190 192 207 229 228 233 219
106 68 -4 -6 26 85 132 124 206 134 46 60 83 62 31 56 93 117 179 209 214 218 164 210 268 286 298 338 329 338 332 325 271 232 193 214 178 167 154 198 217 207 213 222 218 215 232 267 251
138 95 61 54 58 137 215 241 358 237 21 28 84 -1 -14 -35 109 171 210 243 232 265 336 375 433 475 437 399 351 390 410 340 299 288 290 282 153 123 154 189 225 218 238 234 282 246 248 256 282
102 110 86 104 126 193 130 212 173 51 50 47 21 51 64 121 229 286 347 404 449 415 432 515 562 629 611 618 566 494 427 328 284 262 268 184 188 97 143 178 231 234 246 282 306 283 245 253 242
115 110 2 12 103 312 246 111 366 146 70 73 -21 271 372 538 651 633 645 699 686 736 727 769 754 779 706 641 600 532 393 366 388 389 363 196 171 110 104 216 240 278 276 272 256 268 281 232 226
95 129 69 101 159 221 136 241 84 -5 199 272 283 309 393 685 799 829 841 836 872 813 799 730 718 734 684 580 519 477 418 378 347 318 323 349 157 134 195 192 202 215 271 297 266 258 272 260 250
40 90 27 65 124 310 117 110 116 101 129 175 301 547 572 552 698 822 844 813 816 813 751 702 652 620 612 532 455 439 372 359 324 285 222 167 132 130 158 179 192 210 247 259 252 290 255 259 226
26 -49 -77 -22 69 18 20 34 -8 -14 103 179 284 463 497 540 611 694 746 720 675 627 629 543 480 466 398 313 248 224 209 179 150 136 140 139 129 141 148 170 199 203 200 226 250 247 264 227 194
-19 -60 -79 -23 50 6 87 91 24 137 180 234 302 293 416 528 514 591 633 573 465 388 348 349 307 265 174 187 111 74 69 99 133 132 129 128 134 132 139 168 163 163 188 229 246 260 236 214 189
-42 -58 -60 -5 -45 14 130 -25 45 182 264 384 356 296 361 389 406 456 539 447 363 377 308 172 150 171 185 135 144 87 59 56 66 97 133 164 156 154 147 146 125 140 157 231 280 258 221 215 257

GFSSGP_con_3kmhel_129.txt.gz
Helicity
48 51 51 85 88 112 64 21 36 60 45 22 81 53 46 56 47 49 31 79 86 235 207 160 169 165 147 134 171 208 220 218 220 207 177 144 128 115 91 77 62 59 66 67 65 69 71 68 70
57 63 97 128 128 100 52 42 44 41 42 67 38 63 58 93 44 9 -22 94 81 204 184 145 182 194 172 162 162 205 240 232 223 201 178 142 126 112 86 71 63 66 83 72 69 74 76 81 80
74 95 111 160 158 81 50 27 9 13 56 36 71 59 73 78 40 -4 21 104 94 156 166 134 201 198 187 189 176 193 223 243 220 196 165 142 115 100 79 66 72 71 80 69 72 75 74 78 77
108 126 159 192 128 63 59 52 25 40 38 23 21 111 50 40 36 18 14 91 94 135 132 146 202 192 185 186 170 194 208 220 195 172 148 131 112 92 76 59 54 66 84 74 80 82 81 77 69
151 154 181 199 136 59 34 22 30 31 37 20 40 25 82 25 32 11 36 85 57 79 101 159 203 183 178 179 173 180 181 178 161 145 129 117 109 94 71 55 54 61 79 80 86 92 84 71 72
158 167 161 155 106 66 33 36 18 15 -24 -1 14 47 56 -0 68 19 22 85 65 84 91 150 180 164 162 164 169 167 155 149 124 119 105 106 100 89 66 53 57 72 84 83 95 86 78 72 79
167 158 141 127 99 55 28 19 -11 -3 6 4 -16 48 59 79 117 86 39 78 122 88 102 114 113 106 128 128 133 130 117 113 105 89 90 96 90 76 67 64 70 90 105 89 87 81 83 79 72
154 162 148 132 97 60 27 -5 -39 -34 -28 23 6 51 110 84 19 94 28 82 101 96 99 112 100 85 88 87 99 84 75 77 85 78 80 86 82 73 74 78 80 98 109 94 88 81 86 76 70
126 158 149 123 81 62 99 42 18 1 2 8 32 77 71 4 -28 45 17 67 95 95 101 107 111 93 91 84 58 50 32 51 59 77 77 84 68 70 80 81 81 92 107 98 98 89 94 80 66
142 171 124 131 135 147 130 97 31 -30 18 3 -11 19 32 31 9 75 89 63 74 100 132 121 118 107 109 83 53 36 17 5 27 28 54 59 63 68 73 77 84 82 99 93 105 112 120 88 69
190 180 147 198 230 205 124 80 50 30 15 -24 3 52 78 102 107 89 103 38 3 101 99 127 128 118 141 87 70 71 48 25 2 16 34 24 44 53 62 78 75 71 90 89 98 119 101 85 78
162 135 162 153 161 107 80 73 39 28 44 48 44 42 46 46 88 95 60 78 -12 72 79 99 83 127 157 114 81 85 91 44 28 13 16 29 35 50 62 79 87 78 83 94 94 95 92 94 86
124 126 131 102 77 57 40 58 65 18 25 44 -1 -6 -3 7 42 74 58 68 60 9 62 91 101 94 149 128 115 91 90 73 55 43 35 43 50 60 68 71 84 78 82 90 97 99 101 92 85
149 92 68 59 61 65 49 42 71 111 19 26 27 9 8 19 3 55 92 26 41 39 23 103 115 103 145 135 125 109 104 86 65 67 55 52 57 74 69 72 67 71 80 86 87 102 101 95 89
82 59 57 23 129 77 40 24 87 80 86 116 112 106 43 40 62 67 113 66 61 56 66 81 119 117 127 146 148 150 149 105 91 58 71 90 77 78 83 79 73 67 85 87 85 97 98 100 89
80 66 75 81 112 -38 -7 27 93 82 173 146 142 100 88 33 13 79 112 102 51 93 41 117 176 136 132 159 178 168 130 136 103 103 81 101 112 99 105 105 90 89 97 103 98 101 104 97 91
86 88 67 22 -37 42 31 48 28 67 75 49 52 70 73 48 32 37 88 153 85 79 91 140 176 180 137 162 184 187 154 156 148 127 140 124 147 140 141 127 111 113 117 126 125 120 113 121 106
71 60 44 31 1 69 71 67 103 59 19 47 34 16 45 104 7 30 44 118 135 89 108 158 223 196 183 180 186 165 170 151 164 165 150 155 169 171 163 139 140 142 150 149 153 150 125 122 105
98 62 44 67 57 65 25 21 45 109 74 57 75 85 63 63 119 57 -4 72 135 138 129 155 190 186 217 222 213 164 148 138 112 106 117 144 182 194 163 141 140 163 172 172 163 163 152 168 167
83 51 37 69 22 44 20 20 41 48 115 -28 60 156 176 136 88 126 51 82 111 141 120 169 191 203 206 217 186 205 159 132 100 103 105 129 130 154 157 160 164 155 162 159 174 202 224 196 210
54 46 40 35 51 14 49 -14 36 47 -37 -34 -89 -12 98 189 174 148 105 91 97 93 139 178 215 174 194 193 197 208 141 138 93 93 103 136 128 115 117 138 173 173 172 183 193 175 189 251 233
21 3 -7 32 49 108 116 26 94 -17 1 46 46 3 18 114 191 145 53 98 135 77 161 119 158 210 191 225 238 204 230 171 144 127 189 167 144 141 123 99 103 116 142 152 176 202 191 190 264
38 76 43 48 27 60 41 26 183 75 -37 -61 71 5 66 26 94 69 43 80 27 52 105 128 182 182 175 172 196 221 185 170 131 171 172 190 242 290 316 297 94 119 117 134 176 179 201 211 218
46 60 63 65 74 28 -3 12 107 -74 -44 117 110 50 41 109 110 93 150 119 64 187 269 282 307 407 420 329 235 148 149 176 182 155 203 222 318 348 312 228 291 50 109 123 177 184 202 239 228
76 68 21 -15 -30 22 161 -31 -22 -40 -62 242 224 227 244 366 461 430 407 272 310 360 393 402 380 443 451 492 475 430 370 348 280 233 207 220 229 212 259 251 238 209 88 113 189 222 229 252 223
33 23 27 -4 11 42 -56 -134 152 25 64 190 231 333 379 388 477 540 477 505 522 461 524 484 496 474 525 511 504 512 507 443 359 327 323 335 266 225 194 120 311 137 121 193 252 254 264 272 229
42 24 34 80 15 -20 -52 89 219 -21 -6 79 309 440 548 398 488 548 643 604 559 583 574 525 486 515 552 527 496 453 424 391 371 319 297 254 223 195 222 248 187 128 114 208 250 279 277 276 257
18 27 24 -43 -48 -46 13 68 -46 -60 -57 37 139 375 443 497 485 580 680 599 548 664 645 614 519 576 599 532 475 404 359 333 282 252 208 200 188 191 160 143 193 208 184 201 250 267 255 285 260
23 16 -42 -43 32 -75 -17 -17 -75 -43 -41 -15 130 124 352 454 520 531 582 637 644 614 609 583 533 488 545 535 472 417 280 242 228 207 226 197 133 133 128 148 170 175 189 217 228 243 252 280 266
-23 -20 -50 -73 -39 17 122 88 1 -13 -5 26 109 186 204 411 458 574 610 632 696 659 591 501 407 393 374 287 314 257 289 271 195 195 174 157 141 124 119 140 153 161 175 176 191 201 237 263 244

GFSSGP_con_3kmhel_132.txt.gz
Helicity
23 20 13 36 45 49 36 34 39 41 47 42 57 42 59 51 92 72 16 -4 82 124 164 148 169 147 175 160 141 122 165 168 158 146 142 131 121 92 89 59 43 42 43 46 47 57 63 62 65
48 36 25 72 78 43 23 63 35 58 65 45 26 48 35 78 41 40 15 -2 90 99 144 149 176 170 200 171 158 144 164 175 176 165 153 139 122 92 80 56 37 48 68 60 56 61 69 72 82
41 30 49 93 81 31 69 57 112 69 69 51 63 54 57 90 82 34 4 -7 72 91 91 130 190 180 219 193 169 151 157 181 172 165 151 136 114 98 75 57 44 55 59 51 60 68 74 80 78
69 63 83 102 58 52 74 60 39 45 42 44 70 100 57 48 70 33 11 -2 32 95 89 129 181 198 218 206 186 168 160 171 165 164 142 121 104 90 83 53 50 51 58 51 57 68 68 70 65
89 111 90 68 42 14 27 6 26 45 43 39 61 94 77 68 41 41 -10 3 7 88 95 77 162 205 226 203 185 176 171 168 157 148 130 109 94 79 77 57 47 50 58 62 64 71 73 59 61
102 138 85 58 30 29 18 24 35 44 45 50 9 62 59 34 94 79 14 7 5 38 63 81 143 190 211 194 181 177 172 162 139 118 111 103 88 79 70 62 40 52 67 76 81 76 63 58 62
96 94 64 70 70 52 10 64 18 36 41 67 93 62 81 54 88 80 97 -0 19 42 44 74 103 131 179 179 169 164 151 144 121 100 89 94 83 81 71 65 45 59 71 82 89 82 68 65 55
87 109 70 52 50 40 55 51 43 28 46 51 26 93 111 125 107 44 62 34 -8 37 62 73 92 106 108 112 140 142 127 113 101 84 76 77 75 75 73 74 55 60 70 83 87 86 77 68 59
94 100 64 38 46 31 88 58 52 56 17 36 58 53 63 64 24 31 25 29 9 24 66 70 78 101 101 98 103 105 96 91 81 67 64 67 46 49 67 54 84 64 73 76 86 82 75 70 64
69 76 72 160 93 83 93 50 56 61 75 64 53 31 51 85 91 95 117 96 14 13 49 68 79 86 95 96 89 74 58 41 36 43 35 32 36 40 47 72 78 59 75 69 79 81 76 49 51
98 76 146 82 116 95 69 54 45 48 49 48 64 62 59 87 106 119 121 121 89 27 36 74 89 96 79 78 92 69 67 53 23 34 42 20 16 31 27 56 59 50 66 62 71 81 52 33 35
96 84 102 110 98 83 60 56 35 31 29 24 30 32 45 72 85 107 103 125 107 36 16 48 86 109 80 79 96 100 74 63 39 26 27 29 19 31 26 40 56 51 63 57 56 53 40 48 31
75 115 96 74 61 44 40 39 35 35 22 40 27 32 22 21 40 71 100 100 109 95 8 26 66 102 97 82 75 85 77 66 38 30 24 12 13 29 34 31 52 39 65 48 54 43 44 54 52
148 73 57 53 41 38 7 24 38 29 35 52 49 55 48 43 54 76 82 119 117 85 48 12 32 84 110 91 77 80 86 76 35 37 20 25 12 27 30 35 39 51 79 44 36 39 43 43 52
76 68 69 67 41 54 61 18 8 107 57 69 78 38 62 50 40 37 85 110 129 114 83 23 10 56 116 104 96 84 83 77 79 58 25 18 19 37 47 40 39 59 70 51 40 52 47 49 48
67 68 67 75 47 53 42 63 102 145 41 -1 15 81 89 55 40 54 37 63 119 138 97 89 34 42 76 109 112 92 82 70 66 48 32 49 43 29 45 67 60 65 102 69 60 67 68 55 51
48 147 154 100 33 60 52 40 41 -7 -36 -9 -31 -5 23 68 72 70 70 56 65 117 102 108 64 40 61 99 147 115 85 63 53 62 44 38 89 72 60 77 82 100 105 106 91 86 84 82 73
166 104 81 66 68 29 57 50 65 5 2 -32 -27 -75 -102 -60 14 54 64 85 83 94 108 136 114 87 77 140 215 182 127 82 74 61 48 37 65 108 105 90 102 115 108 126 143 142 110 102 101
90 58 46 85 92 106 76 66 62 -6 6 21 48 32 21 1 -7 -19 74 81 81 108 137 113 169 120 148 150 172 193 170 132 110 106 84 83 78 106 154 117 109 125 120 153 164 180 150 148 121
70 55 70 68 45 92 59 72 -17 21 12 -32 28 51 18 8 10 23 -24 48 108 107 128 126 158 124 163 141 212 228 212 134 110 116 90 89 127 158 170 124 109 112 135 135 178 184 234 210 208
33 45 43 45 62 3 24 72 75 34 40 136 101 96 74 60 59 27 18 11 73 107 150 118 155 124 167 127 163 223 184 146 140 99 111 103 129 152 178 127 115 111 114 130 160 170 167 210 210
26 95 56 41 94 111 94 100 21 60 120 4 -27 -144 -134 43 66 40 16 25 36 73 175 144 164 145 135 153 148 188 250 202 149 136 110 122 114 134 128 120 151 158 167 147 128 125 134 122 157
63 43 15 11 30 59 7 -16 18 112 -89 -170 -149 -134 -0 -1 58 122 131 33 51 74 137 188 145 170 118 165 164 179 194 189 116 115 95 107 132 125 161 187 217 239 232 194 110 141 107 91 101
7 11 -0 61 83 55 22 16 112 -28 -104 -108 -132 -42 119 58 84 230 457 351 246 201 127 168 202 185 136 152 186 151 137 131 145 165 181 145 149 175 235 345 456 380 337 255 114 59 119 118 84
16 31 55 46 15 46 58 5 196 130 -56 -133 -148 -26 136 279 209 181 281 274 331 279 234 226 220 353 388 385 389 288 128 184 168 143 167 162 180 222 275 284 346 383 293 236 248 279 206 121 107
11 38 63 52 32 14 -1 14 171 111 -38 -44 -16 101 138 189 325 310 309 325 315 439 413 295 337 436 536 480 484 499 466 506 401 333 259 185 189 141 124 152 176 176 222 247 269 260 81 107 164
76 31 72 65 14 23 12 118 223 4 -12 -7 18 78 69 173 189 370 372 397 414 453 427 428 396 492 530 478 459 435 591 361 325 310 308 287 342 286 257 255 162 143 127 188 195 132 154 210 193
41 35 27 44 20 34 -36 120 -50 -39 -26 -15 19 45 85 121 258 350 458 429 476 520 505 488 396 455 559 448 399 367 411 367 323 312 332 361 325 297 246 193 167 211 222 140 137 154 189 201 211
78 63 50 26 -45 -26 -19 87 -64 -53 -72 -57 -33 3 63 111 222 363 523 495 605 510 504 520 480 329 388 408 367 395 403 397 361 355 341 288 250 223 201 162 189 162 132 131 178 213 243 258 274
84 51 -9 11 -9 -4 1 35 26 -24 -43 -35 -16 13 48 50 121 203 435 378 329 488 581 539 622 422 356 368 406 420 418 390 378 343 291 211 179 139 177 192 159 110 116 138 166 167 238 259 260